<?xml version="1.0" encoding="UTF-8" standalone="no" ?>
<gpx xmlns="http://www.topografix.com/GPX/1/1" xmlns:xsi="http://www.w3.org/2001/XMLSchema-instance" xsi:schemaLocation="http://www.topografix.com/GPX/1/1 http://www.topografix.com/GPX/1/1/gpx.xsd" version="1.1" creator="VisuGPX - https://www.visugpx.com">
  <metadata>
    <name>Champagnat Cyclisme sur route</name>
  </metadata>
  <trk>
    <name><![CDATA[Champagnat Cyclisme sur route_1]]></name>
    <trkseg>
      <trkpt lat="46.48273" lon="5.36842">
        <ele>273</ele>
        <time>2022-06-21T04:51:20Z</time>
      </trkpt>
      <trkpt lat="46.48255" lon="5.3682">
        <ele>271.4</ele>
        <time>2022-06-21T04:51:22Z</time>
      </trkpt>
      <trkpt lat="46.48245" lon="5.3681">
        <ele>270.2</ele>
        <time>2022-06-21T04:51:23Z</time>
      </trkpt>
      <trkpt lat="46.48224" lon="5.36792">
        <ele>268.8</ele>
        <time>2022-06-21T04:51:25Z</time>
      </trkpt>
      <trkpt lat="46.48202" lon="5.36775">
        <ele>267.2</ele>
        <time>2022-06-21T04:51:27Z</time>
      </trkpt>
      <trkpt lat="46.48192" lon="5.36766">
        <ele>266.2</ele>
        <time>2022-06-21T04:51:28Z</time>
      </trkpt>
      <trkpt lat="46.48182" lon="5.36758">
        <ele>265.4</ele>
        <time>2022-06-21T04:51:29Z</time>
      </trkpt>
      <trkpt lat="46.48172" lon="5.3675">
        <ele>264.6</ele>
        <time>2022-06-21T04:51:30Z</time>
      </trkpt>
      <trkpt lat="46.48143" lon="5.36727">
        <ele>263</ele>
        <time>2022-06-21T04:51:33Z</time>
      </trkpt>
      <trkpt lat="46.48134" lon="5.3672">
        <ele>262.4</ele>
        <time>2022-06-21T04:51:34Z</time>
      </trkpt>
      <trkpt lat="46.48126" lon="5.36714">
        <ele>261.4</ele>
        <time>2022-06-21T04:51:35Z</time>
      </trkpt>
      <trkpt lat="46.48113" lon="5.36704">
        <ele>260.6</ele>
        <time>2022-06-21T04:51:37Z</time>
      </trkpt>
      <trkpt lat="46.48109" lon="5.36697">
        <ele>260.4</ele>
        <time>2022-06-21T04:51:38Z</time>
      </trkpt>
      <trkpt lat="46.48107" lon="5.36689">
        <ele>259.6</ele>
        <time>2022-06-21T04:51:39Z</time>
      </trkpt>
      <trkpt lat="46.48107" lon="5.36681">
        <ele>258.8</ele>
        <time>2022-06-21T04:51:40Z</time>
      </trkpt>
      <trkpt lat="46.4811" lon="5.36673">
        <ele>258.4</ele>
        <time>2022-06-21T04:51:41Z</time>
      </trkpt>
      <trkpt lat="46.48115" lon="5.36667">
        <ele>257.8</ele>
        <time>2022-06-21T04:51:42Z</time>
      </trkpt>
      <trkpt lat="46.48135" lon="5.36648">
        <ele>256.4</ele>
        <time>2022-06-21T04:51:45Z</time>
      </trkpt>
      <trkpt lat="46.48142" lon="5.36642">
        <ele>256</ele>
        <time>2022-06-21T04:51:46Z</time>
      </trkpt>
      <trkpt lat="46.48149" lon="5.36635">
        <ele>255.4</ele>
        <time>2022-06-21T04:51:47Z</time>
      </trkpt>
      <trkpt lat="46.48181" lon="5.36608">
        <ele>254.4</ele>
        <time>2022-06-21T04:51:51Z</time>
      </trkpt>
      <trkpt lat="46.48197" lon="5.36602">
        <ele>254.2</ele>
        <time>2022-06-21T04:51:53Z</time>
      </trkpt>
      <trkpt lat="46.48212" lon="5.36597">
        <ele>254</ele>
        <time>2022-06-21T04:51:55Z</time>
      </trkpt>
      <trkpt lat="46.48222" lon="5.36582">
        <ele>253.6</ele>
        <time>2022-06-21T04:51:57Z</time>
      </trkpt>
      <trkpt lat="46.4823" lon="5.36562">
        <ele>253.4</ele>
        <time>2022-06-21T04:51:59Z</time>
      </trkpt>
      <trkpt lat="46.48234" lon="5.36554">
        <ele>253.2</ele>
        <time>2022-06-21T04:52:00Z</time>
      </trkpt>
      <trkpt lat="46.4824" lon="5.36547">
        <ele>253.2</ele>
        <time>2022-06-21T04:52:01Z</time>
      </trkpt>
      <trkpt lat="46.48278" lon="5.36504">
        <ele>252</ele>
        <time>2022-06-21T04:52:07Z</time>
      </trkpt>
      <trkpt lat="46.48298" lon="5.36482">
        <ele>251.6</ele>
        <time>2022-06-21T04:52:10Z</time>
      </trkpt>
      <trkpt lat="46.48325" lon="5.36453">
        <ele>250.8</ele>
        <time>2022-06-21T04:52:14Z</time>
      </trkpt>
      <trkpt lat="46.4836" lon="5.36414">
        <ele>249.8</ele>
        <time>2022-06-21T04:52:19Z</time>
      </trkpt>
      <trkpt lat="46.48367" lon="5.36406">
        <ele>249.6</ele>
        <time>2022-06-21T04:52:20Z</time>
      </trkpt>
      <trkpt lat="46.48394" lon="5.36378">
        <ele>248.4</ele>
        <time>2022-06-21T04:52:24Z</time>
      </trkpt>
      <trkpt lat="46.48416" lon="5.3636">
        <ele>247.8</ele>
        <time>2022-06-21T04:52:27Z</time>
      </trkpt>
      <trkpt lat="46.48431" lon="5.36353">
        <ele>247.4</ele>
        <time>2022-06-21T04:52:29Z</time>
      </trkpt>
      <trkpt lat="46.48455" lon="5.36347">
        <ele>247</ele>
        <time>2022-06-21T04:52:32Z</time>
      </trkpt>
      <trkpt lat="46.48515" lon="5.36337">
        <ele>246.4</ele>
        <time>2022-06-21T04:52:40Z</time>
      </trkpt>
      <trkpt lat="46.48523" lon="5.36336">
        <ele>246.4</ele>
        <time>2022-06-21T04:52:41Z</time>
      </trkpt>
      <trkpt lat="46.48584" lon="5.36326">
        <ele>245.6</ele>
        <time>2022-06-21T04:52:49Z</time>
      </trkpt>
      <trkpt lat="46.486" lon="5.36324">
        <ele>245.2</ele>
        <time>2022-06-21T04:52:51Z</time>
      </trkpt>
      <trkpt lat="46.48616" lon="5.3632">
        <ele>244.8</ele>
        <time>2022-06-21T04:52:53Z</time>
      </trkpt>
      <trkpt lat="46.48623" lon="5.36314">
        <ele>244.6</ele>
        <time>2022-06-21T04:52:54Z</time>
      </trkpt>
      <trkpt lat="46.48629" lon="5.36305">
        <ele>244.4</ele>
        <time>2022-06-21T04:52:55Z</time>
      </trkpt>
      <trkpt lat="46.48633" lon="5.36294">
        <ele>244</ele>
        <time>2022-06-21T04:52:56Z</time>
      </trkpt>
      <trkpt lat="46.48635" lon="5.36285">
        <ele>244</ele>
        <time>2022-06-21T04:52:57Z</time>
      </trkpt>
      <trkpt lat="46.4864" lon="5.36245">
        <ele>243</ele>
        <time>2022-06-21T04:53:00Z</time>
      </trkpt>
      <trkpt lat="46.48642" lon="5.36219">
        <ele>241.8</ele>
        <time>2022-06-21T04:53:02Z</time>
      </trkpt>
      <trkpt lat="46.48645" lon="5.3618">
        <ele>240.6</ele>
        <time>2022-06-21T04:53:05Z</time>
      </trkpt>
      <trkpt lat="46.48646" lon="5.36157">
        <ele>240.2</ele>
        <time>2022-06-21T04:53:07Z</time>
      </trkpt>
      <trkpt lat="46.48648" lon="5.36142">
        <ele>240</ele>
        <time>2022-06-21T04:53:08Z</time>
      </trkpt>
      <trkpt lat="46.48658" lon="5.36094">
        <ele>239.4</ele>
        <time>2022-06-21T04:53:12Z</time>
      </trkpt>
      <trkpt lat="46.48671" lon="5.36032">
        <ele>239.2</ele>
        <time>2022-06-21T04:53:18Z</time>
      </trkpt>
      <trkpt lat="46.48675" lon="5.36015">
        <ele>239.4</ele>
        <time>2022-06-21T04:53:20Z</time>
      </trkpt>
      <trkpt lat="46.48676" lon="5.35998">
        <ele>239.8</ele>
        <time>2022-06-21T04:53:22Z</time>
      </trkpt>
      <trkpt lat="46.48679" lon="5.35982">
        <ele>240</ele>
        <time>2022-06-21T04:53:24Z</time>
      </trkpt>
      <trkpt lat="46.48683" lon="5.35951">
        <ele>240.4</ele>
        <time>2022-06-21T04:53:27Z</time>
      </trkpt>
      <trkpt lat="46.48685" lon="5.35931">
        <ele>240.8</ele>
        <time>2022-06-21T04:53:29Z</time>
      </trkpt>
      <trkpt lat="46.48687" lon="5.35923">
        <ele>241</ele>
        <time>2022-06-21T04:53:30Z</time>
      </trkpt>
      <trkpt lat="46.48697" lon="5.35892">
        <ele>241</ele>
        <time>2022-06-21T04:53:33Z</time>
      </trkpt>
      <trkpt lat="46.48724" lon="5.35824">
        <ele>240.4</ele>
        <time>2022-06-21T04:53:40Z</time>
      </trkpt>
      <trkpt lat="46.48736" lon="5.35797">
        <ele>239.6</ele>
        <time>2022-06-21T04:53:43Z</time>
      </trkpt>
      <trkpt lat="46.48756" lon="5.35752">
        <ele>238.6</ele>
        <time>2022-06-21T04:53:48Z</time>
      </trkpt>
      <trkpt lat="46.48787" lon="5.35681">
        <ele>237.8</ele>
        <time>2022-06-21T04:53:56Z</time>
      </trkpt>
      <trkpt lat="46.48812" lon="5.35623">
        <ele>237.8</ele>
        <time>2022-06-21T04:54:03Z</time>
      </trkpt>
      <trkpt lat="46.48835" lon="5.35567">
        <ele>238</ele>
        <time>2022-06-21T04:54:10Z</time>
      </trkpt>
      <trkpt lat="46.48867" lon="5.35495">
        <ele>238.2</ele>
        <time>2022-06-21T04:54:19Z</time>
      </trkpt>
      <trkpt lat="46.48894" lon="5.35435">
        <ele>238</ele>
        <time>2022-06-21T04:54:26Z</time>
      </trkpt>
      <trkpt lat="46.48921" lon="5.35373">
        <ele>237.4</ele>
        <time>2022-06-21T04:54:33Z</time>
      </trkpt>
      <trkpt lat="46.48926" lon="5.35364">
        <ele>237.2</ele>
        <time>2022-06-21T04:54:34Z</time>
      </trkpt>
      <trkpt lat="46.48952" lon="5.35302">
        <ele>236.6</ele>
        <time>2022-06-21T04:54:41Z</time>
      </trkpt>
      <trkpt lat="46.48967" lon="5.35269">
        <ele>236.4</ele>
        <time>2022-06-21T04:54:45Z</time>
      </trkpt>
      <trkpt lat="46.48974" lon="5.35253">
        <ele>236.4</ele>
        <time>2022-06-21T04:54:47Z</time>
      </trkpt>
      <trkpt lat="46.48992" lon="5.35207">
        <ele>237</ele>
        <time>2022-06-21T04:54:53Z</time>
      </trkpt>
      <trkpt lat="46.49007" lon="5.35174">
        <ele>238</ele>
        <time>2022-06-21T04:54:58Z</time>
      </trkpt>
      <trkpt lat="46.49013" lon="5.35161">
        <ele>237.8</ele>
        <time>2022-06-21T04:55:00Z</time>
      </trkpt>
      <trkpt lat="46.49022" lon="5.3514">
        <ele>238.4</ele>
        <time>2022-06-21T04:55:03Z</time>
      </trkpt>
      <trkpt lat="46.49036" lon="5.35101">
        <ele>238.4</ele>
        <time>2022-06-21T04:55:08Z</time>
      </trkpt>
      <trkpt lat="46.4904" lon="5.35084">
        <ele>238.6</ele>
        <time>2022-06-21T04:55:10Z</time>
      </trkpt>
      <trkpt lat="46.49057" lon="5.35009">
        <ele>238.6</ele>
        <time>2022-06-21T04:55:18Z</time>
      </trkpt>
      <trkpt lat="46.49071" lon="5.34935">
        <ele>237</ele>
        <time>2022-06-21T04:55:25Z</time>
      </trkpt>
      <trkpt lat="46.49082" lon="5.34879">
        <ele>236.2</ele>
        <time>2022-06-21T04:55:30Z</time>
      </trkpt>
      <trkpt lat="46.49084" lon="5.34868">
        <ele>236</ele>
        <time>2022-06-21T04:55:31Z</time>
      </trkpt>
      <trkpt lat="46.49086" lon="5.34857">
        <ele>236</ele>
        <time>2022-06-21T04:55:32Z</time>
      </trkpt>
      <trkpt lat="46.49095" lon="5.3481">
        <ele>235</ele>
        <time>2022-06-21T04:55:36Z</time>
      </trkpt>
      <trkpt lat="46.49106" lon="5.34752">
        <ele>234.2</ele>
        <time>2022-06-21T04:55:41Z</time>
      </trkpt>
      <trkpt lat="46.49108" lon="5.3474">
        <ele>234</ele>
        <time>2022-06-21T04:55:42Z</time>
      </trkpt>
      <trkpt lat="46.49122" lon="5.34658">
        <ele>233.2</ele>
        <time>2022-06-21T04:55:49Z</time>
      </trkpt>
      <trkpt lat="46.49124" lon="5.34646">
        <ele>232.8</ele>
        <time>2022-06-21T04:55:50Z</time>
      </trkpt>
      <trkpt lat="46.4913" lon="5.34617">
        <ele>232.6</ele>
        <time>2022-06-21T04:55:53Z</time>
      </trkpt>
      <trkpt lat="46.49139" lon="5.3457">
        <ele>232.6</ele>
        <time>2022-06-21T04:55:58Z</time>
      </trkpt>
      <trkpt lat="46.49141" lon="5.3456">
        <ele>232.6</ele>
        <time>2022-06-21T04:55:59Z</time>
      </trkpt>
      <trkpt lat="46.4915" lon="5.34515">
        <ele>232.6</ele>
        <time>2022-06-21T04:56:03Z</time>
      </trkpt>
      <trkpt lat="46.49165" lon="5.34445">
        <ele>232.6</ele>
        <time>2022-06-21T04:56:09Z</time>
      </trkpt>
      <trkpt lat="46.49177" lon="5.34393">
        <ele>232.6</ele>
        <time>2022-06-21T04:56:14Z</time>
      </trkpt>
      <trkpt lat="46.49182" lon="5.34365">
        <ele>232.6</ele>
        <time>2022-06-21T04:56:17Z</time>
      </trkpt>
      <trkpt lat="46.49185" lon="5.3435">
        <ele>232.8</ele>
        <time>2022-06-21T04:56:19Z</time>
      </trkpt>
      <trkpt lat="46.49193" lon="5.34307">
        <ele>233.4</ele>
        <time>2022-06-21T04:56:24Z</time>
      </trkpt>
      <trkpt lat="46.49207" lon="5.34231">
        <ele>233.4</ele>
        <time>2022-06-21T04:56:31Z</time>
      </trkpt>
      <trkpt lat="46.49218" lon="5.34177">
        <ele>232.4</ele>
        <time>2022-06-21T04:56:36Z</time>
      </trkpt>
      <trkpt lat="46.49223" lon="5.34146">
        <ele>232.6</ele>
        <time>2022-06-21T04:56:39Z</time>
      </trkpt>
      <trkpt lat="46.49226" lon="5.34127">
        <ele>232.6</ele>
        <time>2022-06-21T04:56:41Z</time>
      </trkpt>
      <trkpt lat="46.49234" lon="5.34088">
        <ele>232.8</ele>
        <time>2022-06-21T04:56:46Z</time>
      </trkpt>
      <trkpt lat="46.49235" lon="5.3408">
        <ele>233</ele>
        <time>2022-06-21T04:56:47Z</time>
      </trkpt>
      <trkpt lat="46.49241" lon="5.34044">
        <ele>234</ele>
        <time>2022-06-21T04:56:52Z</time>
      </trkpt>
      <trkpt lat="46.49242" lon="5.34036">
        <ele>234.2</ele>
        <time>2022-06-21T04:56:53Z</time>
      </trkpt>
      <trkpt lat="46.49254" lon="5.33983">
        <ele>234.8</ele>
        <time>2022-06-21T04:56:59Z</time>
      </trkpt>
      <trkpt lat="46.4926" lon="5.33956">
        <ele>235</ele>
        <time>2022-06-21T04:57:02Z</time>
      </trkpt>
      <trkpt lat="46.49267" lon="5.3392">
        <ele>235.2</ele>
        <time>2022-06-21T04:57:06Z</time>
      </trkpt>
      <trkpt lat="46.49274" lon="5.33876">
        <ele>235.2</ele>
        <time>2022-06-21T04:57:11Z</time>
      </trkpt>
      <trkpt lat="46.49278" lon="5.33858">
        <ele>235</ele>
        <time>2022-06-21T04:57:13Z</time>
      </trkpt>
      <trkpt lat="46.49289" lon="5.33798">
        <ele>235</ele>
        <time>2022-06-21T04:57:20Z</time>
      </trkpt>
      <trkpt lat="46.49301" lon="5.33727">
        <ele>234.8</ele>
        <time>2022-06-21T04:57:28Z</time>
      </trkpt>
      <trkpt lat="46.49305" lon="5.33646">
        <ele>234</ele>
        <time>2022-06-21T04:57:36Z</time>
      </trkpt>
      <trkpt lat="46.49306" lon="5.33626">
        <ele>233.8</ele>
        <time>2022-06-21T04:57:38Z</time>
      </trkpt>
      <trkpt lat="46.49311" lon="5.33596">
        <ele>233.4</ele>
        <time>2022-06-21T04:57:41Z</time>
      </trkpt>
      <trkpt lat="46.49313" lon="5.33586">
        <ele>233.4</ele>
        <time>2022-06-21T04:57:42Z</time>
      </trkpt>
      <trkpt lat="46.4932" lon="5.33546">
        <ele>233.2</ele>
        <time>2022-06-21T04:57:46Z</time>
      </trkpt>
      <trkpt lat="46.4932" lon="5.33536">
        <ele>233.2</ele>
        <time>2022-06-21T04:57:47Z</time>
      </trkpt>
      <trkpt lat="46.49313" lon="5.33476">
        <ele>233</ele>
        <time>2022-06-21T04:57:53Z</time>
      </trkpt>
      <trkpt lat="46.493" lon="5.334">
        <ele>233</ele>
        <time>2022-06-21T04:58:01Z</time>
      </trkpt>
      <trkpt lat="46.49296" lon="5.3338">
        <ele>233</ele>
        <time>2022-06-21T04:58:03Z</time>
      </trkpt>
      <trkpt lat="46.49285" lon="5.33329">
        <ele>232.6</ele>
        <time>2022-06-21T04:58:08Z</time>
      </trkpt>
      <trkpt lat="46.49282" lon="5.33308">
        <ele>232.6</ele>
        <time>2022-06-21T04:58:10Z</time>
      </trkpt>
      <trkpt lat="46.49269" lon="5.33249">
        <ele>231.6</ele>
        <time>2022-06-21T04:58:16Z</time>
      </trkpt>
      <trkpt lat="46.49267" lon="5.33239">
        <ele>231.6</ele>
        <time>2022-06-21T04:58:17Z</time>
      </trkpt>
      <trkpt lat="46.49266" lon="5.33229">
        <ele>231.2</ele>
        <time>2022-06-21T04:58:18Z</time>
      </trkpt>
      <trkpt lat="46.49269" lon="5.3321">
        <ele>230.8</ele>
        <time>2022-06-21T04:58:20Z</time>
      </trkpt>
      <trkpt lat="46.49283" lon="5.33187">
        <ele>230.4</ele>
        <time>2022-06-21T04:58:23Z</time>
      </trkpt>
      <trkpt lat="46.49315" lon="5.33149">
        <ele>230</ele>
        <time>2022-06-21T04:58:29Z</time>
      </trkpt>
      <trkpt lat="46.49363" lon="5.33099">
        <ele>229.8</ele>
        <time>2022-06-21T04:58:37Z</time>
      </trkpt>
      <trkpt lat="46.49386" lon="5.33074">
        <ele>229.4</ele>
        <time>2022-06-21T04:58:41Z</time>
      </trkpt>
      <trkpt lat="46.49403" lon="5.33052">
        <ele>229</ele>
        <time>2022-06-21T04:58:44Z</time>
      </trkpt>
      <trkpt lat="46.49418" lon="5.33019">
        <ele>228.4</ele>
        <time>2022-06-21T04:58:48Z</time>
      </trkpt>
      <trkpt lat="46.49422" lon="5.33011">
        <ele>228.2</ele>
        <time>2022-06-21T04:58:49Z</time>
      </trkpt>
      <trkpt lat="46.49439" lon="5.32966">
        <ele>227.8</ele>
        <time>2022-06-21T04:58:54Z</time>
      </trkpt>
      <trkpt lat="46.49467" lon="5.3289">
        <ele>227.4</ele>
        <time>2022-06-21T04:59:02Z</time>
      </trkpt>
      <trkpt lat="46.49477" lon="5.32859">
        <ele>227.2</ele>
        <time>2022-06-21T04:59:05Z</time>
      </trkpt>
      <trkpt lat="46.49492" lon="5.32817">
        <ele>226.2</ele>
        <time>2022-06-21T04:59:09Z</time>
      </trkpt>
      <trkpt lat="46.49496" lon="5.32807">
        <ele>226</ele>
        <time>2022-06-21T04:59:10Z</time>
      </trkpt>
      <trkpt lat="46.4951" lon="5.32777">
        <ele>225.2</ele>
        <time>2022-06-21T04:59:13Z</time>
      </trkpt>
      <trkpt lat="46.49528" lon="5.32748">
        <ele>224.4</ele>
        <time>2022-06-21T04:59:16Z</time>
      </trkpt>
      <trkpt lat="46.4954" lon="5.32728">
        <ele>223.8</ele>
        <time>2022-06-21T04:59:18Z</time>
      </trkpt>
      <trkpt lat="46.49564" lon="5.32686">
        <ele>222.4</ele>
        <time>2022-06-21T04:59:22Z</time>
      </trkpt>
      <trkpt lat="46.4957" lon="5.32676">
        <ele>222</ele>
        <time>2022-06-21T04:59:23Z</time>
      </trkpt>
      <trkpt lat="46.49583" lon="5.32655">
        <ele>221</ele>
        <time>2022-06-21T04:59:25Z</time>
      </trkpt>
      <trkpt lat="46.49607" lon="5.32615">
        <ele>219.8</ele>
        <time>2022-06-21T04:59:29Z</time>
      </trkpt>
      <trkpt lat="46.49626" lon="5.32587">
        <ele>218.6</ele>
        <time>2022-06-21T04:59:32Z</time>
      </trkpt>
      <trkpt lat="46.49648" lon="5.32564">
        <ele>217.8</ele>
        <time>2022-06-21T04:59:35Z</time>
      </trkpt>
      <trkpt lat="46.49655" lon="5.32557">
        <ele>217.4</ele>
        <time>2022-06-21T04:59:36Z</time>
      </trkpt>
      <trkpt lat="46.49707" lon="5.32514">
        <ele>216.4</ele>
        <time>2022-06-21T04:59:43Z</time>
      </trkpt>
      <trkpt lat="46.4975" lon="5.32499">
        <ele>215</ele>
        <time>2022-06-21T04:59:48Z</time>
      </trkpt>
      <trkpt lat="46.49787" lon="5.32487">
        <ele>213.4</ele>
        <time>2022-06-21T04:59:52Z</time>
      </trkpt>
      <trkpt lat="46.49815" lon="5.32477">
        <ele>212</ele>
        <time>2022-06-21T04:59:55Z</time>
      </trkpt>
      <trkpt lat="46.49825" lon="5.32474">
        <ele>211.8</ele>
        <time>2022-06-21T04:59:56Z</time>
      </trkpt>
      <trkpt lat="46.49852" lon="5.32466">
        <ele>210.6</ele>
        <time>2022-06-21T04:59:59Z</time>
      </trkpt>
      <trkpt lat="46.49887" lon="5.32457">
        <ele>209.6</ele>
        <time>2022-06-21T05:00:03Z</time>
      </trkpt>
      <trkpt lat="46.49895" lon="5.32456">
        <ele>209.4</ele>
        <time>2022-06-21T05:00:04Z</time>
      </trkpt>
      <trkpt lat="46.49923" lon="5.32455">
        <ele>209.4</ele>
        <time>2022-06-21T05:00:08Z</time>
      </trkpt>
      <trkpt lat="46.49951" lon="5.32453">
        <ele>210.4</ele>
        <time>2022-06-21T05:00:13Z</time>
      </trkpt>
      <trkpt lat="46.4996" lon="5.32452">
        <ele>211.4</ele>
        <time>2022-06-21T05:00:15Z</time>
      </trkpt>
      <trkpt lat="46.49972" lon="5.32451">
        <ele>212.8</ele>
        <time>2022-06-21T05:00:18Z</time>
      </trkpt>
      <trkpt lat="46.49976" lon="5.32451">
        <ele>213.2</ele>
        <time>2022-06-21T05:00:19Z</time>
      </trkpt>
      <trkpt lat="46.49983" lon="5.3245">
        <ele>214</ele>
        <time>2022-06-21T05:00:21Z</time>
      </trkpt>
      <trkpt lat="46.4999" lon="5.3245">
        <ele>215</ele>
        <time>2022-06-21T05:00:23Z</time>
      </trkpt>
      <trkpt lat="46.49997" lon="5.3245">
        <ele>215.8</ele>
        <time>2022-06-21T05:00:25Z</time>
      </trkpt>
      <trkpt lat="46.50004" lon="5.3245">
        <ele>216.4</ele>
        <time>2022-06-21T05:00:27Z</time>
      </trkpt>
      <trkpt lat="46.50018" lon="5.3245">
        <ele>217.6</ele>
        <time>2022-06-21T05:00:31Z</time>
      </trkpt>
      <trkpt lat="46.50032" lon="5.3245">
        <ele>218.4</ele>
        <time>2022-06-21T05:00:35Z</time>
      </trkpt>
      <trkpt lat="46.50035" lon="5.3245">
        <ele>218.8</ele>
        <time>2022-06-21T05:00:36Z</time>
      </trkpt>
      <trkpt lat="46.50048" lon="5.32453">
        <ele>219.8</ele>
        <time>2022-06-21T05:00:40Z</time>
      </trkpt>
      <trkpt lat="46.50058" lon="5.32453">
        <ele>220.4</ele>
        <time>2022-06-21T05:00:43Z</time>
      </trkpt>
      <trkpt lat="46.50065" lon="5.32455">
        <ele>220.8</ele>
        <time>2022-06-21T05:00:45Z</time>
      </trkpt>
      <trkpt lat="46.50079" lon="5.32455">
        <ele>222</ele>
        <time>2022-06-21T05:00:49Z</time>
      </trkpt>
      <trkpt lat="46.50083" lon="5.32454">
        <ele>222.2</ele>
        <time>2022-06-21T05:00:50Z</time>
      </trkpt>
      <trkpt lat="46.50103" lon="5.32453">
        <ele>223</ele>
        <time>2022-06-21T05:00:55Z</time>
      </trkpt>
      <trkpt lat="46.50108" lon="5.32453">
        <ele>223</ele>
        <time>2022-06-21T05:00:56Z</time>
      </trkpt>
      <trkpt lat="46.50138" lon="5.32453">
        <ele>223</ele>
        <time>2022-06-21T05:01:01Z</time>
      </trkpt>
      <trkpt lat="46.50154" lon="5.32452">
        <ele>222.6</ele>
        <time>2022-06-21T05:01:03Z</time>
      </trkpt>
      <trkpt lat="46.50171" lon="5.32447">
        <ele>221.8</ele>
        <time>2022-06-21T05:01:05Z</time>
      </trkpt>
      <trkpt lat="46.50189" lon="5.32442">
        <ele>220.8</ele>
        <time>2022-06-21T05:01:07Z</time>
      </trkpt>
      <trkpt lat="46.50215" lon="5.32436">
        <ele>219.6</ele>
        <time>2022-06-21T05:01:10Z</time>
      </trkpt>
      <trkpt lat="46.50223" lon="5.32434">
        <ele>218.8</ele>
        <time>2022-06-21T05:01:11Z</time>
      </trkpt>
      <trkpt lat="46.50231" lon="5.32432">
        <ele>218.6</ele>
        <time>2022-06-21T05:01:12Z</time>
      </trkpt>
      <trkpt lat="46.50278" lon="5.32422">
        <ele>217.4</ele>
        <time>2022-06-21T05:01:18Z</time>
      </trkpt>
      <trkpt lat="46.50286" lon="5.32419">
        <ele>217.4</ele>
        <time>2022-06-21T05:01:19Z</time>
      </trkpt>
      <trkpt lat="46.50302" lon="5.32409">
        <ele>217.2</ele>
        <time>2022-06-21T05:01:21Z</time>
      </trkpt>
      <trkpt lat="46.5031" lon="5.32401">
        <ele>216.8</ele>
        <time>2022-06-21T05:01:22Z</time>
      </trkpt>
      <trkpt lat="46.50316" lon="5.32393">
        <ele>216.6</ele>
        <time>2022-06-21T05:01:23Z</time>
      </trkpt>
      <trkpt lat="46.50328" lon="5.32371">
        <ele>216.2</ele>
        <time>2022-06-21T05:01:25Z</time>
      </trkpt>
      <trkpt lat="46.50334" lon="5.3236">
        <ele>216</ele>
        <time>2022-06-21T05:01:26Z</time>
      </trkpt>
      <trkpt lat="46.5035" lon="5.32323">
        <ele>214.8</ele>
        <time>2022-06-21T05:01:29Z</time>
      </trkpt>
      <trkpt lat="46.50361" lon="5.323">
        <ele>213.6</ele>
        <time>2022-06-21T05:01:31Z</time>
      </trkpt>
      <trkpt lat="46.50372" lon="5.32277">
        <ele>212.4</ele>
        <time>2022-06-21T05:01:33Z</time>
      </trkpt>
      <trkpt lat="46.50392" lon="5.32237">
        <ele>211.4</ele>
        <time>2022-06-21T05:01:37Z</time>
      </trkpt>
      <trkpt lat="46.50398" lon="5.3223">
        <ele>211.2</ele>
        <time>2022-06-21T05:01:38Z</time>
      </trkpt>
      <trkpt lat="46.50405" lon="5.32224">
        <ele>210.8</ele>
        <time>2022-06-21T05:01:39Z</time>
      </trkpt>
      <trkpt lat="46.50421" lon="5.32213">
        <ele>210.2</ele>
        <time>2022-06-21T05:01:42Z</time>
      </trkpt>
      <trkpt lat="46.50424" lon="5.32211">
        <ele>210</ele>
        <time>2022-06-21T05:01:43Z</time>
      </trkpt>
      <trkpt lat="46.50433" lon="5.32204">
        <ele>209.8</ele>
        <time>2022-06-21T05:01:46Z</time>
      </trkpt>
      <trkpt lat="46.5044" lon="5.32195">
        <ele>209.8</ele>
        <time>2022-06-21T05:01:48Z</time>
      </trkpt>
      <trkpt lat="46.50452" lon="5.32184">
        <ele>209.8</ele>
        <time>2022-06-21T05:01:51Z</time>
      </trkpt>
      <trkpt lat="46.50461" lon="5.32171">
        <ele>209.8</ele>
        <time>2022-06-21T05:01:53Z</time>
      </trkpt>
      <trkpt lat="46.50465" lon="5.32164">
        <ele>209.8</ele>
        <time>2022-06-21T05:01:54Z</time>
      </trkpt>
      <trkpt lat="46.50468" lon="5.32155">
        <ele>209.8</ele>
        <time>2022-06-21T05:01:55Z</time>
      </trkpt>
      <trkpt lat="46.50478" lon="5.3212">
        <ele>210</ele>
        <time>2022-06-21T05:01:59Z</time>
      </trkpt>
      <trkpt lat="46.505" lon="5.3207">
        <ele>210</ele>
        <time>2022-06-21T05:02:05Z</time>
      </trkpt>
      <trkpt lat="46.50536" lon="5.32012">
        <ele>210.2</ele>
        <time>2022-06-21T05:02:13Z</time>
      </trkpt>
      <trkpt lat="46.50555" lon="5.3198">
        <ele>210.6</ele>
        <time>2022-06-21T05:02:18Z</time>
      </trkpt>
      <trkpt lat="46.50567" lon="5.31947">
        <ele>211.4</ele>
        <time>2022-06-21T05:02:23Z</time>
      </trkpt>
      <trkpt lat="46.50569" lon="5.31941">
        <ele>211.6</ele>
        <time>2022-06-21T05:02:24Z</time>
      </trkpt>
      <trkpt lat="46.50578" lon="5.31912">
        <ele>212.8</ele>
        <time>2022-06-21T05:02:29Z</time>
      </trkpt>
      <trkpt lat="46.50586" lon="5.3189">
        <ele>213.8</ele>
        <time>2022-06-21T05:02:33Z</time>
      </trkpt>
      <trkpt lat="46.50595" lon="5.31864">
        <ele>214.6</ele>
        <time>2022-06-21T05:02:38Z</time>
      </trkpt>
      <trkpt lat="46.50597" lon="5.31858">
        <ele>215</ele>
        <time>2022-06-21T05:02:39Z</time>
      </trkpt>
      <trkpt lat="46.50604" lon="5.31836">
        <ele>216</ele>
        <time>2022-06-21T05:02:43Z</time>
      </trkpt>
      <trkpt lat="46.50606" lon="5.3183">
        <ele>216.2</ele>
        <time>2022-06-21T05:02:44Z</time>
      </trkpt>
      <trkpt lat="46.50618" lon="5.31791">
        <ele>217.4</ele>
        <time>2022-06-21T05:02:50Z</time>
      </trkpt>
      <trkpt lat="46.50623" lon="5.31778">
        <ele>217.6</ele>
        <time>2022-06-21T05:02:52Z</time>
      </trkpt>
      <trkpt lat="46.50633" lon="5.31752">
        <ele>218</ele>
        <time>2022-06-21T05:02:56Z</time>
      </trkpt>
      <trkpt lat="46.50648" lon="5.31732">
        <ele>218.2</ele>
        <time>2022-06-21T05:03:00Z</time>
      </trkpt>
      <trkpt lat="46.50652" lon="5.31728">
        <ele>218.4</ele>
        <time>2022-06-21T05:03:01Z</time>
      </trkpt>
      <trkpt lat="46.50657" lon="5.31725">
        <ele>218.4</ele>
        <time>2022-06-21T05:03:02Z</time>
      </trkpt>
      <trkpt lat="46.50674" lon="5.31717">
        <ele>218.4</ele>
        <time>2022-06-21T05:03:05Z</time>
      </trkpt>
      <trkpt lat="46.50711" lon="5.31712">
        <ele>218.4</ele>
        <time>2022-06-21T05:03:11Z</time>
      </trkpt>
      <trkpt lat="46.50757" lon="5.31706">
        <ele>218.4</ele>
        <time>2022-06-21T05:03:18Z</time>
      </trkpt>
      <trkpt lat="46.50763" lon="5.31707">
        <ele>218.4</ele>
        <time>2022-06-21T05:03:19Z</time>
      </trkpt>
      <trkpt lat="46.50776" lon="5.31711">
        <ele>218.4</ele>
        <time>2022-06-21T05:03:21Z</time>
      </trkpt>
      <trkpt lat="46.50787" lon="5.31719">
        <ele>218.4</ele>
        <time>2022-06-21T05:03:23Z</time>
      </trkpt>
      <trkpt lat="46.50826" lon="5.31747">
        <ele>218.6</ele>
        <time>2022-06-21T05:03:30Z</time>
      </trkpt>
      <trkpt lat="46.50836" lon="5.31749">
        <ele>218.6</ele>
        <time>2022-06-21T05:03:32Z</time>
      </trkpt>
      <trkpt lat="46.50841" lon="5.31748">
        <ele>218.6</ele>
        <time>2022-06-21T05:03:33Z</time>
      </trkpt>
      <trkpt lat="46.50847" lon="5.31745">
        <ele>218.8</ele>
        <time>2022-06-21T05:03:34Z</time>
      </trkpt>
      <trkpt lat="46.50861" lon="5.31732">
        <ele>219.2</ele>
        <time>2022-06-21T05:03:37Z</time>
      </trkpt>
      <trkpt lat="46.50871" lon="5.31721">
        <ele>219.4</ele>
        <time>2022-06-21T05:03:39Z</time>
      </trkpt>
      <trkpt lat="46.50892" lon="5.31699">
        <ele>219.8</ele>
        <time>2022-06-21T05:03:43Z</time>
      </trkpt>
      <trkpt lat="46.50898" lon="5.31693">
        <ele>219.8</ele>
        <time>2022-06-21T05:03:44Z</time>
      </trkpt>
      <trkpt lat="46.50902" lon="5.31687">
        <ele>219.8</ele>
        <time>2022-06-21T05:03:45Z</time>
      </trkpt>
      <trkpt lat="46.50919" lon="5.31669">
        <ele>219.8</ele>
        <time>2022-06-21T05:03:48Z</time>
      </trkpt>
      <trkpt lat="46.50953" lon="5.31635">
        <ele>219.6</ele>
        <time>2022-06-21T05:03:53Z</time>
      </trkpt>
      <trkpt lat="46.50997" lon="5.31591">
        <ele>218.6</ele>
        <time>2022-06-21T05:04:00Z</time>
      </trkpt>
      <trkpt lat="46.5102" lon="5.31567">
        <ele>218.8</ele>
        <time>2022-06-21T05:04:04Z</time>
      </trkpt>
      <trkpt lat="46.51024" lon="5.31561">
        <ele>219</ele>
        <time>2022-06-21T05:04:05Z</time>
      </trkpt>
      <trkpt lat="46.51036" lon="5.31539">
        <ele>219.2</ele>
        <time>2022-06-21T05:04:08Z</time>
      </trkpt>
      <trkpt lat="46.51039" lon="5.3153">
        <ele>219.2</ele>
        <time>2022-06-21T05:04:09Z</time>
      </trkpt>
      <trkpt lat="46.51054" lon="5.31466">
        <ele>219</ele>
        <time>2022-06-21T05:04:15Z</time>
      </trkpt>
      <trkpt lat="46.51066" lon="5.31407">
        <ele>217.8</ele>
        <time>2022-06-21T05:04:20Z</time>
      </trkpt>
      <trkpt lat="46.5107" lon="5.31382">
        <ele>217.4</ele>
        <time>2022-06-21T05:04:22Z</time>
      </trkpt>
      <trkpt lat="46.5107" lon="5.31369">
        <ele>217</ele>
        <time>2022-06-21T05:04:23Z</time>
      </trkpt>
      <trkpt lat="46.51069" lon="5.31356">
        <ele>216.8</ele>
        <time>2022-06-21T05:04:24Z</time>
      </trkpt>
      <trkpt lat="46.51068" lon="5.31344">
        <ele>216.4</ele>
        <time>2022-06-21T05:04:25Z</time>
      </trkpt>
      <trkpt lat="46.51069" lon="5.31331">
        <ele>216.2</ele>
        <time>2022-06-21T05:04:26Z</time>
      </trkpt>
      <trkpt lat="46.51072" lon="5.31303">
        <ele>215.4</ele>
        <time>2022-06-21T05:04:28Z</time>
      </trkpt>
      <trkpt lat="46.51083" lon="5.3128">
        <ele>215</ele>
        <time>2022-06-21T05:04:30Z</time>
      </trkpt>
      <trkpt lat="46.51091" lon="5.31268">
        <ele>214.8</ele>
        <time>2022-06-21T05:04:31Z</time>
      </trkpt>
      <trkpt lat="46.51099" lon="5.3126">
        <ele>214.4</ele>
        <time>2022-06-21T05:04:32Z</time>
      </trkpt>
      <trkpt lat="46.51106" lon="5.3125">
        <ele>214.2</ele>
        <time>2022-06-21T05:04:33Z</time>
      </trkpt>
      <trkpt lat="46.51112" lon="5.3124">
        <ele>213.2</ele>
        <time>2022-06-21T05:04:34Z</time>
      </trkpt>
      <trkpt lat="46.51119" lon="5.31233">
        <ele>212.8</ele>
        <time>2022-06-21T05:04:35Z</time>
      </trkpt>
      <trkpt lat="46.51134" lon="5.31218">
        <ele>212</ele>
        <time>2022-06-21T05:04:37Z</time>
      </trkpt>
      <trkpt lat="46.51156" lon="5.31192">
        <ele>211</ele>
        <time>2022-06-21T05:04:40Z</time>
      </trkpt>
      <trkpt lat="46.51171" lon="5.31175">
        <ele>210.2</ele>
        <time>2022-06-21T05:04:42Z</time>
      </trkpt>
      <trkpt lat="46.51178" lon="5.31167">
        <ele>210.2</ele>
        <time>2022-06-21T05:04:43Z</time>
      </trkpt>
      <trkpt lat="46.51185" lon="5.31159">
        <ele>209.8</ele>
        <time>2022-06-21T05:04:44Z</time>
      </trkpt>
      <trkpt lat="46.51212" lon="5.31126">
        <ele>209.4</ele>
        <time>2022-06-21T05:04:48Z</time>
      </trkpt>
      <trkpt lat="46.51241" lon="5.31092">
        <ele>208.8</ele>
        <time>2022-06-21T05:04:52Z</time>
      </trkpt>
      <trkpt lat="46.51249" lon="5.31087">
        <ele>208.6</ele>
        <time>2022-06-21T05:04:53Z</time>
      </trkpt>
      <trkpt lat="46.51267" lon="5.31077">
        <ele>208</ele>
        <time>2022-06-21T05:04:55Z</time>
      </trkpt>
      <trkpt lat="46.51275" lon="5.31074">
        <ele>208</ele>
        <time>2022-06-21T05:04:56Z</time>
      </trkpt>
      <trkpt lat="46.51284" lon="5.31075">
        <ele>207.8</ele>
        <time>2022-06-21T05:04:57Z</time>
      </trkpt>
      <trkpt lat="46.51326" lon="5.31077">
        <ele>207.4</ele>
        <time>2022-06-21T05:05:02Z</time>
      </trkpt>
      <trkpt lat="46.51385" lon="5.31074">
        <ele>207.6</ele>
        <time>2022-06-21T05:05:10Z</time>
      </trkpt>
      <trkpt lat="46.51444" lon="5.31071">
        <ele>207.6</ele>
        <time>2022-06-21T05:05:18Z</time>
      </trkpt>
      <trkpt lat="46.51451" lon="5.31071">
        <ele>207.6</ele>
        <time>2022-06-21T05:05:19Z</time>
      </trkpt>
      <trkpt lat="46.51506" lon="5.31072">
        <ele>207.2</ele>
        <time>2022-06-21T05:05:27Z</time>
      </trkpt>
      <trkpt lat="46.5152" lon="5.31073">
        <ele>207.2</ele>
        <time>2022-06-21T05:05:29Z</time>
      </trkpt>
      <trkpt lat="46.51579" lon="5.31079">
        <ele>207.6</ele>
        <time>2022-06-21T05:05:38Z</time>
      </trkpt>
      <trkpt lat="46.51592" lon="5.31082">
        <ele>207.8</ele>
        <time>2022-06-21T05:05:40Z</time>
      </trkpt>
      <trkpt lat="46.51632" lon="5.31102">
        <ele>208.2</ele>
        <time>2022-06-21T05:05:47Z</time>
      </trkpt>
      <trkpt lat="46.51637" lon="5.31104">
        <ele>208.2</ele>
        <time>2022-06-21T05:05:48Z</time>
      </trkpt>
      <trkpt lat="46.51646" lon="5.31105">
        <ele>208.4</ele>
        <time>2022-06-21T05:05:50Z</time>
      </trkpt>
      <trkpt lat="46.51651" lon="5.31105">
        <ele>208.4</ele>
        <time>2022-06-21T05:05:51Z</time>
      </trkpt>
      <trkpt lat="46.5166" lon="5.31103">
        <ele>208.6</ele>
        <time>2022-06-21T05:05:53Z</time>
      </trkpt>
      <trkpt lat="46.5167" lon="5.31106">
        <ele>209</ele>
        <time>2022-06-21T05:05:55Z</time>
      </trkpt>
      <trkpt lat="46.51678" lon="5.31115">
        <ele>209.4</ele>
        <time>2022-06-21T05:05:57Z</time>
      </trkpt>
      <trkpt lat="46.51682" lon="5.31122">
        <ele>209.4</ele>
        <time>2022-06-21T05:05:58Z</time>
      </trkpt>
      <trkpt lat="46.51694" lon="5.31144">
        <ele>209.8</ele>
        <time>2022-06-21T05:06:01Z</time>
      </trkpt>
      <trkpt lat="46.51704" lon="5.31157">
        <ele>210</ele>
        <time>2022-06-21T05:06:03Z</time>
      </trkpt>
      <trkpt lat="46.51723" lon="5.31172">
        <ele>210</ele>
        <time>2022-06-21T05:06:06Z</time>
      </trkpt>
      <trkpt lat="46.51731" lon="5.31175">
        <ele>209.6</ele>
        <time>2022-06-21T05:06:07Z</time>
      </trkpt>
      <trkpt lat="46.51746" lon="5.31179">
        <ele>209.2</ele>
        <time>2022-06-21T05:06:09Z</time>
      </trkpt>
      <trkpt lat="46.51763" lon="5.3118">
        <ele>208.8</ele>
        <time>2022-06-21T05:06:11Z</time>
      </trkpt>
      <trkpt lat="46.51781" lon="5.3118">
        <ele>208</ele>
        <time>2022-06-21T05:06:13Z</time>
      </trkpt>
      <trkpt lat="46.51818" lon="5.31182">
        <ele>206.8</ele>
        <time>2022-06-21T05:06:17Z</time>
      </trkpt>
      <trkpt lat="46.51837" lon="5.31188">
        <ele>205.6</ele>
        <time>2022-06-21T05:06:19Z</time>
      </trkpt>
      <trkpt lat="46.51844" lon="5.31193">
        <ele>205.2</ele>
        <time>2022-06-21T05:06:20Z</time>
      </trkpt>
      <trkpt lat="46.51852" lon="5.31199">
        <ele>204.4</ele>
        <time>2022-06-21T05:06:21Z</time>
      </trkpt>
      <trkpt lat="46.51873" lon="5.31222">
        <ele>203.2</ele>
        <time>2022-06-21T05:06:24Z</time>
      </trkpt>
      <trkpt lat="46.5188" lon="5.31231">
        <ele>202.6</ele>
        <time>2022-06-21T05:06:25Z</time>
      </trkpt>
      <trkpt lat="46.51898" lon="5.31258">
        <ele>202.2</ele>
        <time>2022-06-21T05:06:28Z</time>
      </trkpt>
      <trkpt lat="46.51915" lon="5.31284">
        <ele>202.2</ele>
        <time>2022-06-21T05:06:31Z</time>
      </trkpt>
      <trkpt lat="46.51953" lon="5.3134">
        <ele>202.2</ele>
        <time>2022-06-21T05:06:38Z</time>
      </trkpt>
      <trkpt lat="46.51981" lon="5.31384">
        <ele>202.2</ele>
        <time>2022-06-21T05:06:44Z</time>
      </trkpt>
      <trkpt lat="46.52011" lon="5.31433">
        <ele>202.8</ele>
        <time>2022-06-21T05:06:51Z</time>
      </trkpt>
      <trkpt lat="46.52032" lon="5.31464">
        <ele>203.2</ele>
        <time>2022-06-21T05:06:56Z</time>
      </trkpt>
      <trkpt lat="46.5204" lon="5.31476">
        <ele>203.4</ele>
        <time>2022-06-21T05:06:58Z</time>
      </trkpt>
      <trkpt lat="46.52044" lon="5.31482">
        <ele>203.4</ele>
        <time>2022-06-21T05:06:59Z</time>
      </trkpt>
      <trkpt lat="46.52061" lon="5.31505">
        <ele>203.8</ele>
        <time>2022-06-21T05:07:03Z</time>
      </trkpt>
      <trkpt lat="46.52068" lon="5.31518">
        <ele>204.4</ele>
        <time>2022-06-21T05:07:05Z</time>
      </trkpt>
      <trkpt lat="46.52097" lon="5.31559">
        <ele>205.4</ele>
        <time>2022-06-21T05:07:12Z</time>
      </trkpt>
      <trkpt lat="46.52101" lon="5.31564">
        <ele>205.6</ele>
        <time>2022-06-21T05:07:13Z</time>
      </trkpt>
      <trkpt lat="46.52109" lon="5.31575">
        <ele>206</ele>
        <time>2022-06-21T05:07:15Z</time>
      </trkpt>
      <trkpt lat="46.52121" lon="5.31592">
        <ele>206.4</ele>
        <time>2022-06-21T05:07:18Z</time>
      </trkpt>
      <trkpt lat="46.52126" lon="5.31598">
        <ele>206.8</ele>
        <time>2022-06-21T05:07:19Z</time>
      </trkpt>
      <trkpt lat="46.52149" lon="5.3163">
        <ele>208</ele>
        <time>2022-06-21T05:07:25Z</time>
      </trkpt>
      <trkpt lat="46.52157" lon="5.3164">
        <ele>208.4</ele>
        <time>2022-06-21T05:07:27Z</time>
      </trkpt>
      <trkpt lat="46.52174" lon="5.31659">
        <ele>209.2</ele>
        <time>2022-06-21T05:07:31Z</time>
      </trkpt>
      <trkpt lat="46.52181" lon="5.31669">
        <ele>209.4</ele>
        <time>2022-06-21T05:07:33Z</time>
      </trkpt>
      <trkpt lat="46.52188" lon="5.31678">
        <ele>209.8</ele>
        <time>2022-06-21T05:07:35Z</time>
      </trkpt>
      <trkpt lat="46.52198" lon="5.31691">
        <ele>210.2</ele>
        <time>2022-06-21T05:07:38Z</time>
      </trkpt>
      <trkpt lat="46.52202" lon="5.31696">
        <ele>210.4</ele>
        <time>2022-06-21T05:07:39Z</time>
      </trkpt>
      <trkpt lat="46.52208" lon="5.31707">
        <ele>210.8</ele>
        <time>2022-06-21T05:07:41Z</time>
      </trkpt>
      <trkpt lat="46.52219" lon="5.31722">
        <ele>211.4</ele>
        <time>2022-06-21T05:07:44Z</time>
      </trkpt>
      <trkpt lat="46.52233" lon="5.31742">
        <ele>211.6</ele>
        <time>2022-06-21T05:07:48Z</time>
      </trkpt>
      <trkpt lat="46.52239" lon="5.31751">
        <ele>211.6</ele>
        <time>2022-06-21T05:07:50Z</time>
      </trkpt>
      <trkpt lat="46.5225" lon="5.31766">
        <ele>212.2</ele>
        <time>2022-06-21T05:07:53Z</time>
      </trkpt>
      <trkpt lat="46.52275" lon="5.31799">
        <ele>213</ele>
        <time>2022-06-21T05:08:00Z</time>
      </trkpt>
      <trkpt lat="46.52278" lon="5.31805">
        <ele>213.2</ele>
        <time>2022-06-21T05:08:01Z</time>
      </trkpt>
      <trkpt lat="46.52303" lon="5.31839">
        <ele>214.4</ele>
        <time>2022-06-21T05:08:08Z</time>
      </trkpt>
      <trkpt lat="46.52309" lon="5.31849">
        <ele>214.6</ele>
        <time>2022-06-21T05:08:10Z</time>
      </trkpt>
      <trkpt lat="46.52326" lon="5.31874">
        <ele>215.6</ele>
        <time>2022-06-21T05:08:15Z</time>
      </trkpt>
      <trkpt lat="46.52333" lon="5.31884">
        <ele>215.8</ele>
        <time>2022-06-21T05:08:17Z</time>
      </trkpt>
      <trkpt lat="46.52355" lon="5.31917">
        <ele>216.6</ele>
        <time>2022-06-21T05:08:23Z</time>
      </trkpt>
      <trkpt lat="46.52358" lon="5.31922">
        <ele>216.8</ele>
        <time>2022-06-21T05:08:24Z</time>
      </trkpt>
      <trkpt lat="46.52386" lon="5.31961">
        <ele>217</ele>
        <time>2022-06-21T05:08:30Z</time>
      </trkpt>
      <trkpt lat="46.52425" lon="5.32015">
        <ele>215.8</ele>
        <time>2022-06-21T05:08:37Z</time>
      </trkpt>
      <trkpt lat="46.52431" lon="5.32024">
        <ele>215.4</ele>
        <time>2022-06-21T05:08:38Z</time>
      </trkpt>
      <trkpt lat="46.52455" lon="5.32058">
        <ele>214</ele>
        <time>2022-06-21T05:08:42Z</time>
      </trkpt>
      <trkpt lat="46.52462" lon="5.32067">
        <ele>214</ele>
        <time>2022-06-21T05:08:43Z</time>
      </trkpt>
      <trkpt lat="46.52486" lon="5.32103">
        <ele>213</ele>
        <time>2022-06-21T05:08:47Z</time>
      </trkpt>
      <trkpt lat="46.52493" lon="5.32112">
        <ele>212.8</ele>
        <time>2022-06-21T05:08:48Z</time>
      </trkpt>
      <trkpt lat="46.52513" lon="5.3214">
        <ele>212</ele>
        <time>2022-06-21T05:08:51Z</time>
      </trkpt>
      <trkpt lat="46.52527" lon="5.32157">
        <ele>211.4</ele>
        <time>2022-06-21T05:08:53Z</time>
      </trkpt>
      <trkpt lat="46.52541" lon="5.32173">
        <ele>211</ele>
        <time>2022-06-21T05:08:55Z</time>
      </trkpt>
      <trkpt lat="46.52548" lon="5.3218">
        <ele>210.6</ele>
        <time>2022-06-21T05:08:56Z</time>
      </trkpt>
      <trkpt lat="46.52555" lon="5.32184">
        <ele>210.4</ele>
        <time>2022-06-21T05:08:57Z</time>
      </trkpt>
      <trkpt lat="46.52561" lon="5.32187">
        <ele>209.8</ele>
        <time>2022-06-21T05:08:58Z</time>
      </trkpt>
      <trkpt lat="46.52568" lon="5.32186">
        <ele>209.6</ele>
        <time>2022-06-21T05:08:59Z</time>
      </trkpt>
      <trkpt lat="46.52574" lon="5.32182">
        <ele>209.2</ele>
        <time>2022-06-21T05:09:00Z</time>
      </trkpt>
      <trkpt lat="46.52578" lon="5.32175">
        <ele>208.6</ele>
        <time>2022-06-21T05:09:01Z</time>
      </trkpt>
      <trkpt lat="46.52582" lon="5.32167">
        <ele>208.4</ele>
        <time>2022-06-21T05:09:02Z</time>
      </trkpt>
      <trkpt lat="46.52585" lon="5.3216">
        <ele>207.8</ele>
        <time>2022-06-21T05:09:03Z</time>
      </trkpt>
      <trkpt lat="46.52598" lon="5.32133">
        <ele>207.4</ele>
        <time>2022-06-21T05:09:07Z</time>
      </trkpt>
      <trkpt lat="46.52601" lon="5.32127">
        <ele>207.4</ele>
        <time>2022-06-21T05:09:08Z</time>
      </trkpt>
      <trkpt lat="46.52623" lon="5.3208">
        <ele>208.6</ele>
        <time>2022-06-21T05:09:16Z</time>
      </trkpt>
      <trkpt lat="46.52637" lon="5.32045">
        <ele>209.8</ele>
        <time>2022-06-21T05:09:22Z</time>
      </trkpt>
      <trkpt lat="46.52643" lon="5.32029">
        <ele>210.4</ele>
        <time>2022-06-21T05:09:25Z</time>
      </trkpt>
      <trkpt lat="46.52648" lon="5.32013">
        <ele>211</ele>
        <time>2022-06-21T05:09:28Z</time>
      </trkpt>
      <trkpt lat="46.52655" lon="5.31986">
        <ele>212.4</ele>
        <time>2022-06-21T05:09:33Z</time>
      </trkpt>
      <trkpt lat="46.52657" lon="5.3198">
        <ele>212.6</ele>
        <time>2022-06-21T05:09:34Z</time>
      </trkpt>
      <trkpt lat="46.52663" lon="5.31959">
        <ele>213.6</ele>
        <time>2022-06-21T05:09:38Z</time>
      </trkpt>
      <trkpt lat="46.52667" lon="5.31943">
        <ele>214.2</ele>
        <time>2022-06-21T05:09:41Z</time>
      </trkpt>
      <trkpt lat="46.52669" lon="5.31933">
        <ele>214.6</ele>
        <time>2022-06-21T05:09:43Z</time>
      </trkpt>
      <trkpt lat="46.52673" lon="5.31914">
        <ele>215.8</ele>
        <time>2022-06-21T05:09:47Z</time>
      </trkpt>
      <trkpt lat="46.52675" lon="5.31904">
        <ele>216.2</ele>
        <time>2022-06-21T05:09:49Z</time>
      </trkpt>
      <trkpt lat="46.5268" lon="5.31886">
        <ele>217</ele>
        <time>2022-06-21T05:09:53Z</time>
      </trkpt>
      <trkpt lat="46.52685" lon="5.31865">
        <ele>217.6</ele>
        <time>2022-06-21T05:09:57Z</time>
      </trkpt>
      <trkpt lat="46.52688" lon="5.31854">
        <ele>218.4</ele>
        <time>2022-06-21T05:09:59Z</time>
      </trkpt>
      <trkpt lat="46.52699" lon="5.3183">
        <ele>219.4</ele>
        <time>2022-06-21T05:10:04Z</time>
      </trkpt>
      <trkpt lat="46.52714" lon="5.31807">
        <ele>220.2</ele>
        <time>2022-06-21T05:10:09Z</time>
      </trkpt>
      <trkpt lat="46.52718" lon="5.31803">
        <ele>220.4</ele>
        <time>2022-06-21T05:10:10Z</time>
      </trkpt>
      <trkpt lat="46.52726" lon="5.31797">
        <ele>220.4</ele>
        <time>2022-06-21T05:10:12Z</time>
      </trkpt>
      <trkpt lat="46.52735" lon="5.31792">
        <ele>220.4</ele>
        <time>2022-06-21T05:10:14Z</time>
      </trkpt>
      <trkpt lat="46.5277" lon="5.31777">
        <ele>220.8</ele>
        <time>2022-06-21T05:10:21Z</time>
      </trkpt>
      <trkpt lat="46.52802" lon="5.3176">
        <ele>221</ele>
        <time>2022-06-21T05:10:28Z</time>
      </trkpt>
      <trkpt lat="46.52831" lon="5.31748">
        <ele>221.2</ele>
        <time>2022-06-21T05:10:34Z</time>
      </trkpt>
      <trkpt lat="46.52869" lon="5.31732">
        <ele>221.2</ele>
        <time>2022-06-21T05:10:40Z</time>
      </trkpt>
      <trkpt lat="46.52876" lon="5.31731">
        <ele>221.2</ele>
        <time>2022-06-21T05:10:41Z</time>
      </trkpt>
      <trkpt lat="46.52894" lon="5.31729">
        <ele>220.8</ele>
        <time>2022-06-21T05:10:44Z</time>
      </trkpt>
      <trkpt lat="46.52904" lon="5.31736">
        <ele>220.6</ele>
        <time>2022-06-21T05:10:46Z</time>
      </trkpt>
      <trkpt lat="46.52908" lon="5.31741">
        <ele>220.6</ele>
        <time>2022-06-21T05:10:47Z</time>
      </trkpt>
      <trkpt lat="46.52912" lon="5.31746">
        <ele>220.6</ele>
        <time>2022-06-21T05:10:48Z</time>
      </trkpt>
      <trkpt lat="46.52929" lon="5.31766">
        <ele>220.4</ele>
        <time>2022-06-21T05:10:52Z</time>
      </trkpt>
      <trkpt lat="46.52934" lon="5.31771">
        <ele>220.4</ele>
        <time>2022-06-21T05:10:53Z</time>
      </trkpt>
      <trkpt lat="46.52955" lon="5.31783">
        <ele>220.4</ele>
        <time>2022-06-21T05:10:56Z</time>
      </trkpt>
      <trkpt lat="46.52968" lon="5.31785">
        <ele>220.2</ele>
        <time>2022-06-21T05:10:58Z</time>
      </trkpt>
      <trkpt lat="46.52975" lon="5.31782">
        <ele>220.2</ele>
        <time>2022-06-21T05:10:59Z</time>
      </trkpt>
      <trkpt lat="46.52983" lon="5.31778">
        <ele>220.2</ele>
        <time>2022-06-21T05:11:00Z</time>
      </trkpt>
      <trkpt lat="46.52994" lon="5.31763">
        <ele>220.2</ele>
        <time>2022-06-21T05:11:02Z</time>
      </trkpt>
      <trkpt lat="46.53003" lon="5.31744">
        <ele>219.8</ele>
        <time>2022-06-21T05:11:04Z</time>
      </trkpt>
      <trkpt lat="46.53011" lon="5.31724">
        <ele>219.6</ele>
        <time>2022-06-21T05:11:06Z</time>
      </trkpt>
      <trkpt lat="46.53021" lon="5.31702">
        <ele>219.4</ele>
        <time>2022-06-21T05:11:08Z</time>
      </trkpt>
      <trkpt lat="46.53046" lon="5.31651">
        <ele>218.6</ele>
        <time>2022-06-21T05:11:13Z</time>
      </trkpt>
      <trkpt lat="46.53063" lon="5.31639">
        <ele>218</ele>
        <time>2022-06-21T05:11:15Z</time>
      </trkpt>
      <trkpt lat="46.53073" lon="5.31636">
        <ele>217.8</ele>
        <time>2022-06-21T05:11:16Z</time>
      </trkpt>
      <trkpt lat="46.53102" lon="5.31624">
        <ele>216.6</ele>
        <time>2022-06-21T05:11:19Z</time>
      </trkpt>
      <trkpt lat="46.53121" lon="5.31614">
        <ele>215.6</ele>
        <time>2022-06-21T05:11:21Z</time>
      </trkpt>
      <trkpt lat="46.5314" lon="5.31607">
        <ele>214.4</ele>
        <time>2022-06-21T05:11:23Z</time>
      </trkpt>
      <trkpt lat="46.53171" lon="5.31594">
        <ele>213</ele>
        <time>2022-06-21T05:11:26Z</time>
      </trkpt>
      <trkpt lat="46.5318" lon="5.3159">
        <ele>212.8</ele>
        <time>2022-06-21T05:11:27Z</time>
      </trkpt>
      <trkpt lat="46.532" lon="5.31583">
        <ele>211.8</ele>
        <time>2022-06-21T05:11:29Z</time>
      </trkpt>
      <trkpt lat="46.53221" lon="5.31574">
        <ele>210.8</ele>
        <time>2022-06-21T05:11:31Z</time>
      </trkpt>
      <trkpt lat="46.53243" lon="5.31564">
        <ele>209.6</ele>
        <time>2022-06-21T05:11:33Z</time>
      </trkpt>
      <trkpt lat="46.53274" lon="5.31541">
        <ele>208.6</ele>
        <time>2022-06-21T05:11:36Z</time>
      </trkpt>
      <trkpt lat="46.53292" lon="5.31524">
        <ele>207.4</ele>
        <time>2022-06-21T05:11:38Z</time>
      </trkpt>
      <trkpt lat="46.5332" lon="5.31501">
        <ele>206</ele>
        <time>2022-06-21T05:11:41Z</time>
      </trkpt>
      <trkpt lat="46.53353" lon="5.31473">
        <ele>204.6</ele>
        <time>2022-06-21T05:11:45Z</time>
      </trkpt>
      <trkpt lat="46.53379" lon="5.31443">
        <ele>204</ele>
        <time>2022-06-21T05:11:49Z</time>
      </trkpt>
      <trkpt lat="46.53398" lon="5.31406">
        <ele>204</ele>
        <time>2022-06-21T05:11:53Z</time>
      </trkpt>
      <trkpt lat="46.53427" lon="5.31348">
        <ele>204</ele>
        <time>2022-06-21T05:11:59Z</time>
      </trkpt>
      <trkpt lat="46.53445" lon="5.31307">
        <ele>203.2</ele>
        <time>2022-06-21T05:12:03Z</time>
      </trkpt>
      <trkpt lat="46.53463" lon="5.31268">
        <ele>202.6</ele>
        <time>2022-06-21T05:12:07Z</time>
      </trkpt>
      <trkpt lat="46.53486" lon="5.31213">
        <ele>202.6</ele>
        <time>2022-06-21T05:12:13Z</time>
      </trkpt>
      <trkpt lat="46.53488" lon="5.31204">
        <ele>202.8</ele>
        <time>2022-06-21T05:12:14Z</time>
      </trkpt>
      <trkpt lat="46.53491" lon="5.31178">
        <ele>203.4</ele>
        <time>2022-06-21T05:12:17Z</time>
      </trkpt>
      <trkpt lat="46.53498" lon="5.31137">
        <ele>203.8</ele>
        <time>2022-06-21T05:12:22Z</time>
      </trkpt>
      <trkpt lat="46.53503" lon="5.31125">
        <ele>204.2</ele>
        <time>2022-06-21T05:12:24Z</time>
      </trkpt>
      <trkpt lat="46.53507" lon="5.31119">
        <ele>204.6</ele>
        <time>2022-06-21T05:12:25Z</time>
      </trkpt>
      <trkpt lat="46.53511" lon="5.31114">
        <ele>204.8</ele>
        <time>2022-06-21T05:12:26Z</time>
      </trkpt>
      <trkpt lat="46.53524" lon="5.31102">
        <ele>205.8</ele>
        <time>2022-06-21T05:12:29Z</time>
      </trkpt>
      <trkpt lat="46.53533" lon="5.31096">
        <ele>206</ele>
        <time>2022-06-21T05:12:31Z</time>
      </trkpt>
      <trkpt lat="46.53554" lon="5.31083">
        <ele>206.8</ele>
        <time>2022-06-21T05:12:35Z</time>
      </trkpt>
      <trkpt lat="46.53574" lon="5.31072">
        <ele>207.6</ele>
        <time>2022-06-21T05:12:39Z</time>
      </trkpt>
      <trkpt lat="46.53597" lon="5.31058">
        <ele>207.8</ele>
        <time>2022-06-21T05:12:43Z</time>
      </trkpt>
      <trkpt lat="46.53622" lon="5.31043">
        <ele>207.8</ele>
        <time>2022-06-21T05:12:47Z</time>
      </trkpt>
      <trkpt lat="46.53665" lon="5.31023">
        <ele>207.4</ele>
        <time>2022-06-21T05:12:54Z</time>
      </trkpt>
      <trkpt lat="46.53698" lon="5.31028">
        <ele>207.4</ele>
        <time>2022-06-21T05:12:59Z</time>
      </trkpt>
      <trkpt lat="46.53724" lon="5.31032">
        <ele>207.2</ele>
        <time>2022-06-21T05:13:03Z</time>
      </trkpt>
      <trkpt lat="46.53736" lon="5.3103">
        <ele>207.2</ele>
        <time>2022-06-21T05:13:05Z</time>
      </trkpt>
      <trkpt lat="46.53787" lon="5.31016">
        <ele>207</ele>
        <time>2022-06-21T05:13:12Z</time>
      </trkpt>
      <trkpt lat="46.53794" lon="5.31012">
        <ele>206.8</ele>
        <time>2022-06-21T05:13:13Z</time>
      </trkpt>
      <trkpt lat="46.53807" lon="5.30997">
        <ele>206.4</ele>
        <time>2022-06-21T05:13:15Z</time>
      </trkpt>
      <trkpt lat="46.5382" lon="5.30966">
        <ele>205.4</ele>
        <time>2022-06-21T05:13:18Z</time>
      </trkpt>
      <trkpt lat="46.53825" lon="5.30955">
        <ele>205.2</ele>
        <time>2022-06-21T05:13:19Z</time>
      </trkpt>
      <trkpt lat="46.53829" lon="5.30945">
        <ele>205</ele>
        <time>2022-06-21T05:13:20Z</time>
      </trkpt>
      <trkpt lat="46.53849" lon="5.30896">
        <ele>204.2</ele>
        <time>2022-06-21T05:13:25Z</time>
      </trkpt>
      <trkpt lat="46.53852" lon="5.30887">
        <ele>204.2</ele>
        <time>2022-06-21T05:13:26Z</time>
      </trkpt>
      <trkpt lat="46.53875" lon="5.30829">
        <ele>204</ele>
        <time>2022-06-21T05:13:33Z</time>
      </trkpt>
      <trkpt lat="46.53887" lon="5.30797">
        <ele>204.6</ele>
        <time>2022-06-21T05:13:38Z</time>
      </trkpt>
      <trkpt lat="46.5389" lon="5.30778">
        <ele>205.6</ele>
        <time>2022-06-21T05:13:41Z</time>
      </trkpt>
      <trkpt lat="46.53892" lon="5.30759">
        <ele>206.4</ele>
        <time>2022-06-21T05:13:44Z</time>
      </trkpt>
      <trkpt lat="46.53893" lon="5.30752">
        <ele>206.8</ele>
        <time>2022-06-21T05:13:45Z</time>
      </trkpt>
      <trkpt lat="46.53894" lon="5.30732">
        <ele>207.8</ele>
        <time>2022-06-21T05:13:48Z</time>
      </trkpt>
      <trkpt lat="46.53896" lon="5.30701">
        <ele>208.6</ele>
        <time>2022-06-21T05:13:53Z</time>
      </trkpt>
      <trkpt lat="46.53897" lon="5.30688">
        <ele>209.2</ele>
        <time>2022-06-21T05:13:55Z</time>
      </trkpt>
      <trkpt lat="46.53903" lon="5.30653">
        <ele>210.4</ele>
        <time>2022-06-21T05:14:00Z</time>
      </trkpt>
      <trkpt lat="46.53906" lon="5.3064">
        <ele>210.6</ele>
        <time>2022-06-21T05:14:02Z</time>
      </trkpt>
      <trkpt lat="46.5391" lon="5.30627">
        <ele>210.8</ele>
        <time>2022-06-21T05:14:04Z</time>
      </trkpt>
      <trkpt lat="46.53922" lon="5.30596">
        <ele>211</ele>
        <time>2022-06-21T05:14:09Z</time>
      </trkpt>
      <trkpt lat="46.5393" lon="5.3058">
        <ele>211.4</ele>
        <time>2022-06-21T05:14:12Z</time>
      </trkpt>
      <trkpt lat="46.53945" lon="5.30557">
        <ele>212.4</ele>
        <time>2022-06-21T05:14:17Z</time>
      </trkpt>
      <trkpt lat="46.53948" lon="5.30553">
        <ele>212.6</ele>
        <time>2022-06-21T05:14:18Z</time>
      </trkpt>
      <trkpt lat="46.53959" lon="5.30543">
        <ele>213.2</ele>
        <time>2022-06-21T05:14:21Z</time>
      </trkpt>
      <trkpt lat="46.53963" lon="5.3054">
        <ele>213.6</ele>
        <time>2022-06-21T05:14:22Z</time>
      </trkpt>
      <trkpt lat="46.53967" lon="5.30538">
        <ele>214</ele>
        <time>2022-06-21T05:14:23Z</time>
      </trkpt>
      <trkpt lat="46.53982" lon="5.30531">
        <ele>214.6</ele>
        <time>2022-06-21T05:14:27Z</time>
      </trkpt>
      <trkpt lat="46.53986" lon="5.3053">
        <ele>214.8</ele>
        <time>2022-06-21T05:14:28Z</time>
      </trkpt>
      <trkpt lat="46.54001" lon="5.30523">
        <ele>215.6</ele>
        <time>2022-06-21T05:14:32Z</time>
      </trkpt>
      <trkpt lat="46.54008" lon="5.30518">
        <ele>216.2</ele>
        <time>2022-06-21T05:14:34Z</time>
      </trkpt>
      <trkpt lat="46.54026" lon="5.30499">
        <ele>217</ele>
        <time>2022-06-21T05:14:39Z</time>
      </trkpt>
      <trkpt lat="46.54029" lon="5.30494">
        <ele>217</ele>
        <time>2022-06-21T05:14:40Z</time>
      </trkpt>
      <trkpt lat="46.54043" lon="5.3047">
        <ele>217.8</ele>
        <time>2022-06-21T05:14:44Z</time>
      </trkpt>
      <trkpt lat="46.54048" lon="5.30456">
        <ele>218</ele>
        <time>2022-06-21T05:14:46Z</time>
      </trkpt>
      <trkpt lat="46.5406" lon="5.30408">
        <ele>218.2</ele>
        <time>2022-06-21T05:14:52Z</time>
      </trkpt>
      <trkpt lat="46.5408" lon="5.30329">
        <ele>218.6</ele>
        <time>2022-06-21T05:15:02Z</time>
      </trkpt>
      <trkpt lat="46.54094" lon="5.30284">
        <ele>219</ele>
        <time>2022-06-21T05:15:08Z</time>
      </trkpt>
      <trkpt lat="46.54098" lon="5.3027">
        <ele>219</ele>
        <time>2022-06-21T05:15:10Z</time>
      </trkpt>
      <trkpt lat="46.54125" lon="5.30192">
        <ele>219.2</ele>
        <time>2022-06-21T05:15:20Z</time>
      </trkpt>
      <trkpt lat="46.54145" lon="5.30127">
        <ele>218.8</ele>
        <time>2022-06-21T05:15:28Z</time>
      </trkpt>
      <trkpt lat="46.54148" lon="5.30119">
        <ele>218.8</ele>
        <time>2022-06-21T05:15:29Z</time>
      </trkpt>
      <trkpt lat="46.54158" lon="5.30109">
        <ele>218.6</ele>
        <time>2022-06-21T05:15:31Z</time>
      </trkpt>
      <trkpt lat="46.54164" lon="5.30106">
        <ele>218.6</ele>
        <time>2022-06-21T05:15:32Z</time>
      </trkpt>
      <trkpt lat="46.54201" lon="5.30095">
        <ele>218.6</ele>
        <time>2022-06-21T05:15:38Z</time>
      </trkpt>
      <trkpt lat="46.54255" lon="5.301">
        <ele>218.4</ele>
        <time>2022-06-21T05:15:46Z</time>
      </trkpt>
      <trkpt lat="46.54291" lon="5.30103">
        <ele>217.8</ele>
        <time>2022-06-21T05:15:51Z</time>
      </trkpt>
      <trkpt lat="46.54313" lon="5.30106">
        <ele>217.8</ele>
        <time>2022-06-21T05:15:54Z</time>
      </trkpt>
      <trkpt lat="46.54354" lon="5.3012">
        <ele>217</ele>
        <time>2022-06-21T05:15:59Z</time>
      </trkpt>
      <trkpt lat="46.54362" lon="5.30123">
        <ele>216.8</ele>
        <time>2022-06-21T05:16:00Z</time>
      </trkpt>
      <trkpt lat="46.54397" lon="5.30139">
        <ele>215.4</ele>
        <time>2022-06-21T05:16:04Z</time>
      </trkpt>
      <trkpt lat="46.54406" lon="5.30142">
        <ele>215</ele>
        <time>2022-06-21T05:16:05Z</time>
      </trkpt>
      <trkpt lat="46.54434" lon="5.30146">
        <ele>214.4</ele>
        <time>2022-06-21T05:16:08Z</time>
      </trkpt>
      <trkpt lat="46.54453" lon="5.30146">
        <ele>213.4</ele>
        <time>2022-06-21T05:16:10Z</time>
      </trkpt>
      <trkpt lat="46.54463" lon="5.30145">
        <ele>212.8</ele>
        <time>2022-06-21T05:16:11Z</time>
      </trkpt>
      <trkpt lat="46.54491" lon="5.30135">
        <ele>211.8</ele>
        <time>2022-06-21T05:16:14Z</time>
      </trkpt>
      <trkpt lat="46.54501" lon="5.30131">
        <ele>211.6</ele>
        <time>2022-06-21T05:16:15Z</time>
      </trkpt>
      <trkpt lat="46.5453" lon="5.30115">
        <ele>210.6</ele>
        <time>2022-06-21T05:16:18Z</time>
      </trkpt>
      <trkpt lat="46.54549" lon="5.30103">
        <ele>209.6</ele>
        <time>2022-06-21T05:16:20Z</time>
      </trkpt>
      <trkpt lat="46.54559" lon="5.30097">
        <ele>209</ele>
        <time>2022-06-21T05:16:21Z</time>
      </trkpt>
      <trkpt lat="46.54579" lon="5.30085">
        <ele>208.2</ele>
        <time>2022-06-21T05:16:23Z</time>
      </trkpt>
      <trkpt lat="46.54609" lon="5.30067">
        <ele>206.8</ele>
        <time>2022-06-21T05:16:26Z</time>
      </trkpt>
      <trkpt lat="46.54629" lon="5.30054">
        <ele>205.6</ele>
        <time>2022-06-21T05:16:28Z</time>
      </trkpt>
      <trkpt lat="46.54659" lon="5.30036">
        <ele>204.4</ele>
        <time>2022-06-21T05:16:31Z</time>
      </trkpt>
      <trkpt lat="46.5468" lon="5.30023">
        <ele>202.8</ele>
        <time>2022-06-21T05:16:33Z</time>
      </trkpt>
      <trkpt lat="46.547" lon="5.3001">
        <ele>201.6</ele>
        <time>2022-06-21T05:16:35Z</time>
      </trkpt>
      <trkpt lat="46.54729" lon="5.29989">
        <ele>200.6</ele>
        <time>2022-06-21T05:16:38Z</time>
      </trkpt>
      <trkpt lat="46.54738" lon="5.29982">
        <ele>199.8</ele>
        <time>2022-06-21T05:16:39Z</time>
      </trkpt>
      <trkpt lat="46.54747" lon="5.29974">
        <ele>199.2</ele>
        <time>2022-06-21T05:16:40Z</time>
      </trkpt>
      <trkpt lat="46.5478" lon="5.29943">
        <ele>198</ele>
        <time>2022-06-21T05:16:44Z</time>
      </trkpt>
      <trkpt lat="46.54817" lon="5.299">
        <ele>197.2</ele>
        <time>2022-06-21T05:16:49Z</time>
      </trkpt>
      <trkpt lat="46.54831" lon="5.29883">
        <ele>197</ele>
        <time>2022-06-21T05:16:51Z</time>
      </trkpt>
      <trkpt lat="46.5487" lon="5.29833">
        <ele>196.2</ele>
        <time>2022-06-21T05:16:57Z</time>
      </trkpt>
      <trkpt lat="46.54902" lon="5.29787">
        <ele>196.2</ele>
        <time>2022-06-21T05:17:03Z</time>
      </trkpt>
      <trkpt lat="46.54937" lon="5.29724">
        <ele>196.4</ele>
        <time>2022-06-21T05:17:10Z</time>
      </trkpt>
      <trkpt lat="46.54941" lon="5.29715">
        <ele>196.4</ele>
        <time>2022-06-21T05:17:11Z</time>
      </trkpt>
      <trkpt lat="46.54948" lon="5.29696">
        <ele>196.2</ele>
        <time>2022-06-21T05:17:13Z</time>
      </trkpt>
      <trkpt lat="46.54953" lon="5.29676">
        <ele>196.2</ele>
        <time>2022-06-21T05:17:15Z</time>
      </trkpt>
      <trkpt lat="46.54955" lon="5.29666">
        <ele>196</ele>
        <time>2022-06-21T05:17:16Z</time>
      </trkpt>
      <trkpt lat="46.5496" lon="5.29638">
        <ele>196.2</ele>
        <time>2022-06-21T05:17:19Z</time>
      </trkpt>
      <trkpt lat="46.54969" lon="5.29599">
        <ele>196.4</ele>
        <time>2022-06-21T05:17:24Z</time>
      </trkpt>
      <trkpt lat="46.54984" lon="5.29568">
        <ele>197.6</ele>
        <time>2022-06-21T05:17:29Z</time>
      </trkpt>
      <trkpt lat="46.54993" lon="5.29553">
        <ele>198.2</ele>
        <time>2022-06-21T05:17:32Z</time>
      </trkpt>
      <trkpt lat="46.55" lon="5.29543">
        <ele>198.6</ele>
        <time>2022-06-21T05:17:34Z</time>
      </trkpt>
      <trkpt lat="46.5501" lon="5.2953">
        <ele>199.2</ele>
        <time>2022-06-21T05:17:37Z</time>
      </trkpt>
      <trkpt lat="46.55018" lon="5.29522">
        <ele>199.4</ele>
        <time>2022-06-21T05:17:39Z</time>
      </trkpt>
      <trkpt lat="46.55026" lon="5.29514">
        <ele>199.6</ele>
        <time>2022-06-21T05:17:41Z</time>
      </trkpt>
      <trkpt lat="46.55042" lon="5.29502">
        <ele>200.4</ele>
        <time>2022-06-21T05:17:45Z</time>
      </trkpt>
      <trkpt lat="46.5505" lon="5.29499">
        <ele>201.2</ele>
        <time>2022-06-21T05:17:47Z</time>
      </trkpt>
      <trkpt lat="46.55058" lon="5.29499">
        <ele>201.8</ele>
        <time>2022-06-21T05:17:49Z</time>
      </trkpt>
      <trkpt lat="46.55072" lon="5.29501">
        <ele>202.6</ele>
        <time>2022-06-21T05:17:52Z</time>
      </trkpt>
      <trkpt lat="46.55076" lon="5.29502">
        <ele>203</ele>
        <time>2022-06-21T05:17:53Z</time>
      </trkpt>
      <trkpt lat="46.5508" lon="5.29503">
        <ele>203.4</ele>
        <time>2022-06-21T05:17:54Z</time>
      </trkpt>
      <trkpt lat="46.55092" lon="5.29508">
        <ele>203.8</ele>
        <time>2022-06-21T05:17:57Z</time>
      </trkpt>
      <trkpt lat="46.55101" lon="5.29512">
        <ele>204.2</ele>
        <time>2022-06-21T05:17:59Z</time>
      </trkpt>
      <trkpt lat="46.5513" lon="5.29523">
        <ele>205</ele>
        <time>2022-06-21T05:18:05Z</time>
      </trkpt>
      <trkpt lat="46.5514" lon="5.29526">
        <ele>205.2</ele>
        <time>2022-06-21T05:18:07Z</time>
      </trkpt>
      <trkpt lat="46.55173" lon="5.2954">
        <ele>206</ele>
        <time>2022-06-21T05:18:14Z</time>
      </trkpt>
      <trkpt lat="46.55183" lon="5.29542">
        <ele>206.6</ele>
        <time>2022-06-21T05:18:16Z</time>
      </trkpt>
      <trkpt lat="46.55198" lon="5.29539">
        <ele>207</ele>
        <time>2022-06-21T05:18:19Z</time>
      </trkpt>
      <trkpt lat="46.55224" lon="5.29527">
        <ele>207.4</ele>
        <time>2022-06-21T05:18:25Z</time>
      </trkpt>
      <trkpt lat="46.55228" lon="5.29524">
        <ele>207.8</ele>
        <time>2022-06-21T05:18:26Z</time>
      </trkpt>
      <trkpt lat="46.55237" lon="5.29519">
        <ele>208.2</ele>
        <time>2022-06-21T05:18:28Z</time>
      </trkpt>
      <trkpt lat="46.55266" lon="5.295">
        <ele>209.2</ele>
        <time>2022-06-21T05:18:35Z</time>
      </trkpt>
      <trkpt lat="46.5527" lon="5.29498">
        <ele>209.4</ele>
        <time>2022-06-21T05:18:36Z</time>
      </trkpt>
      <trkpt lat="46.55274" lon="5.29495">
        <ele>209.6</ele>
        <time>2022-06-21T05:18:37Z</time>
      </trkpt>
      <trkpt lat="46.55278" lon="5.29485">
        <ele>209.6</ele>
        <time>2022-06-21T05:18:39Z</time>
      </trkpt>
      <trkpt lat="46.55276" lon="5.29472">
        <ele>209.8</ele>
        <time>2022-06-21T05:18:41Z</time>
      </trkpt>
      <trkpt lat="46.55272" lon="5.29459">
        <ele>210</ele>
        <time>2022-06-21T05:18:43Z</time>
      </trkpt>
      <trkpt lat="46.55262" lon="5.29422">
        <ele>210.4</ele>
        <time>2022-06-21T05:18:49Z</time>
      </trkpt>
      <trkpt lat="46.55261" lon="5.29416">
        <ele>210.6</ele>
        <time>2022-06-21T05:18:50Z</time>
      </trkpt>
      <trkpt lat="46.55257" lon="5.29397">
        <ele>211.6</ele>
        <time>2022-06-21T05:18:53Z</time>
      </trkpt>
      <trkpt lat="46.55253" lon="5.29378">
        <ele>212.2</ele>
        <time>2022-06-21T05:18:56Z</time>
      </trkpt>
      <trkpt lat="46.55253" lon="5.29362">
        <ele>212.6</ele>
        <time>2022-06-21T05:18:58Z</time>
      </trkpt>
      <trkpt lat="46.55254" lon="5.29355">
        <ele>212.8</ele>
        <time>2022-06-21T05:18:59Z</time>
      </trkpt>
      <trkpt lat="46.55256" lon="5.29346">
        <ele>213</ele>
        <time>2022-06-21T05:19:00Z</time>
      </trkpt>
      <trkpt lat="46.55258" lon="5.29338">
        <ele>213</ele>
        <time>2022-06-21T05:19:01Z</time>
      </trkpt>
      <trkpt lat="46.55266" lon="5.29308">
        <ele>213</ele>
        <time>2022-06-21T05:19:04Z</time>
      </trkpt>
      <trkpt lat="46.55281" lon="5.29251">
        <ele>212.2</ele>
        <time>2022-06-21T05:19:09Z</time>
      </trkpt>
      <trkpt lat="46.55285" lon="5.29239">
        <ele>211.4</ele>
        <time>2022-06-21T05:19:10Z</time>
      </trkpt>
      <trkpt lat="46.55294" lon="5.29202">
        <ele>210.4</ele>
        <time>2022-06-21T05:19:13Z</time>
      </trkpt>
      <trkpt lat="46.55298" lon="5.29191">
        <ele>210</ele>
        <time>2022-06-21T05:19:14Z</time>
      </trkpt>
      <trkpt lat="46.55309" lon="5.29169">
        <ele>209</ele>
        <time>2022-06-21T05:19:16Z</time>
      </trkpt>
      <trkpt lat="46.55324" lon="5.29133">
        <ele>207.6</ele>
        <time>2022-06-21T05:19:19Z</time>
      </trkpt>
      <trkpt lat="46.55332" lon="5.29107">
        <ele>206.4</ele>
        <time>2022-06-21T05:19:21Z</time>
      </trkpt>
      <trkpt lat="46.5534" lon="5.2908">
        <ele>205.6</ele>
        <time>2022-06-21T05:19:23Z</time>
      </trkpt>
      <trkpt lat="46.55343" lon="5.29067">
        <ele>205.2</ele>
        <time>2022-06-21T05:19:24Z</time>
      </trkpt>
      <trkpt lat="46.55357" lon="5.29002">
        <ele>203.8</ele>
        <time>2022-06-21T05:19:29Z</time>
      </trkpt>
      <trkpt lat="46.55362" lon="5.28976">
        <ele>203.2</ele>
        <time>2022-06-21T05:19:31Z</time>
      </trkpt>
      <trkpt lat="46.55368" lon="5.28951">
        <ele>202.6</ele>
        <time>2022-06-21T05:19:33Z</time>
      </trkpt>
      <trkpt lat="46.55382" lon="5.28889">
        <ele>201.4</ele>
        <time>2022-06-21T05:19:38Z</time>
      </trkpt>
      <trkpt lat="46.55389" lon="5.28836">
        <ele>200.4</ele>
        <time>2022-06-21T05:19:42Z</time>
      </trkpt>
      <trkpt lat="46.5539" lon="5.28822">
        <ele>200.2</ele>
        <time>2022-06-21T05:19:43Z</time>
      </trkpt>
      <trkpt lat="46.55394" lon="5.28781">
        <ele>199.4</ele>
        <time>2022-06-21T05:19:46Z</time>
      </trkpt>
      <trkpt lat="46.55397" lon="5.28768">
        <ele>199</ele>
        <time>2022-06-21T05:19:47Z</time>
      </trkpt>
      <trkpt lat="46.55401" lon="5.28755">
        <ele>198.6</ele>
        <time>2022-06-21T05:19:48Z</time>
      </trkpt>
      <trkpt lat="46.55409" lon="5.28732">
        <ele>197.6</ele>
        <time>2022-06-21T05:19:50Z</time>
      </trkpt>
      <trkpt lat="46.55417" lon="5.28712">
        <ele>197.2</ele>
        <time>2022-06-21T05:19:52Z</time>
      </trkpt>
      <trkpt lat="46.5544" lon="5.28658">
        <ele>197.4</ele>
        <time>2022-06-21T05:19:58Z</time>
      </trkpt>
      <trkpt lat="46.55466" lon="5.286">
        <ele>198.4</ele>
        <time>2022-06-21T05:20:05Z</time>
      </trkpt>
      <trkpt lat="46.5547" lon="5.28592">
        <ele>198.6</ele>
        <time>2022-06-21T05:20:06Z</time>
      </trkpt>
      <trkpt lat="46.55502" lon="5.28524">
        <ele>198.6</ele>
        <time>2022-06-21T05:20:14Z</time>
      </trkpt>
      <trkpt lat="46.55506" lon="5.28517">
        <ele>198.6</ele>
        <time>2022-06-21T05:20:15Z</time>
      </trkpt>
      <trkpt lat="46.55539" lon="5.28448">
        <ele>198.8</ele>
        <time>2022-06-21T05:20:23Z</time>
      </trkpt>
      <trkpt lat="46.5557" lon="5.28394">
        <ele>198.6</ele>
        <time>2022-06-21T05:20:30Z</time>
      </trkpt>
      <trkpt lat="46.55595" lon="5.2836">
        <ele>198.6</ele>
        <time>2022-06-21T05:20:35Z</time>
      </trkpt>
      <trkpt lat="46.55607" lon="5.28348">
        <ele>198.4</ele>
        <time>2022-06-21T05:20:37Z</time>
      </trkpt>
      <trkpt lat="46.55653" lon="5.28313">
        <ele>198.2</ele>
        <time>2022-06-21T05:20:44Z</time>
      </trkpt>
      <trkpt lat="46.55685" lon="5.28277">
        <ele>198</ele>
        <time>2022-06-21T05:20:49Z</time>
      </trkpt>
      <trkpt lat="46.55709" lon="5.28242">
        <ele>197.4</ele>
        <time>2022-06-21T05:20:53Z</time>
      </trkpt>
      <trkpt lat="46.55736" lon="5.28211">
        <ele>196.6</ele>
        <time>2022-06-21T05:20:57Z</time>
      </trkpt>
      <trkpt lat="46.55743" lon="5.28206">
        <ele>196.4</ele>
        <time>2022-06-21T05:20:58Z</time>
      </trkpt>
      <trkpt lat="46.55786" lon="5.28177">
        <ele>195.4</ele>
        <time>2022-06-21T05:21:04Z</time>
      </trkpt>
      <trkpt lat="46.55831" lon="5.28152">
        <ele>195.6</ele>
        <time>2022-06-21T05:21:11Z</time>
      </trkpt>
      <trkpt lat="46.55845" lon="5.2815">
        <ele>195.8</ele>
        <time>2022-06-21T05:21:13Z</time>
      </trkpt>
      <trkpt lat="46.55856" lon="5.28152">
        <ele>196</ele>
        <time>2022-06-21T05:21:15Z</time>
      </trkpt>
      <trkpt lat="46.55887" lon="5.28168">
        <ele>196</ele>
        <time>2022-06-21T05:21:20Z</time>
      </trkpt>
      <trkpt lat="46.55907" lon="5.28185">
        <ele>195.8</ele>
        <time>2022-06-21T05:21:23Z</time>
      </trkpt>
      <trkpt lat="46.55913" lon="5.28192">
        <ele>195.8</ele>
        <time>2022-06-21T05:21:24Z</time>
      </trkpt>
      <trkpt lat="46.5593" lon="5.28212">
        <ele>195.8</ele>
        <time>2022-06-21T05:21:27Z</time>
      </trkpt>
      <trkpt lat="46.55944" lon="5.28219">
        <ele>195.6</ele>
        <time>2022-06-21T05:21:29Z</time>
      </trkpt>
      <trkpt lat="46.55975" lon="5.28223">
        <ele>195.4</ele>
        <time>2022-06-21T05:21:33Z</time>
      </trkpt>
      <trkpt lat="46.5599" lon="5.28225">
        <ele>195.2</ele>
        <time>2022-06-21T05:21:35Z</time>
      </trkpt>
      <trkpt lat="46.56005" lon="5.28226">
        <ele>195</ele>
        <time>2022-06-21T05:21:37Z</time>
      </trkpt>
      <trkpt lat="46.56021" lon="5.28224">
        <ele>194.8</ele>
        <time>2022-06-21T05:21:39Z</time>
      </trkpt>
      <trkpt lat="46.56036" lon="5.28221">
        <ele>194.6</ele>
        <time>2022-06-21T05:21:41Z</time>
      </trkpt>
      <trkpt lat="46.56077" lon="5.28216">
        <ele>194.6</ele>
        <time>2022-06-21T05:21:47Z</time>
      </trkpt>
      <trkpt lat="46.56127" lon="5.28209">
        <ele>195.4</ele>
        <time>2022-06-21T05:21:55Z</time>
      </trkpt>
      <trkpt lat="46.56144" lon="5.28206">
        <ele>195.8</ele>
        <time>2022-06-21T05:21:58Z</time>
      </trkpt>
      <trkpt lat="46.56156" lon="5.28201">
        <ele>195.8</ele>
        <time>2022-06-21T05:22:00Z</time>
      </trkpt>
      <trkpt lat="46.56166" lon="5.28192">
        <ele>196.2</ele>
        <time>2022-06-21T05:22:02Z</time>
      </trkpt>
      <trkpt lat="46.56174" lon="5.28179">
        <ele>196.4</ele>
        <time>2022-06-21T05:22:04Z</time>
      </trkpt>
      <trkpt lat="46.56177" lon="5.28173">
        <ele>196.4</ele>
        <time>2022-06-21T05:22:05Z</time>
      </trkpt>
      <trkpt lat="46.56182" lon="5.28159">
        <ele>196.6</ele>
        <time>2022-06-21T05:22:07Z</time>
      </trkpt>
      <trkpt lat="46.56185" lon="5.28153">
        <ele>196.8</ele>
        <time>2022-06-21T05:22:08Z</time>
      </trkpt>
      <trkpt lat="46.56188" lon="5.28147">
        <ele>197</ele>
        <time>2022-06-21T05:22:09Z</time>
      </trkpt>
      <trkpt lat="46.56194" lon="5.28134">
        <ele>197.6</ele>
        <time>2022-06-21T05:22:11Z</time>
      </trkpt>
      <trkpt lat="46.56202" lon="5.28123">
        <ele>198</ele>
        <time>2022-06-21T05:22:13Z</time>
      </trkpt>
      <trkpt lat="46.56207" lon="5.28119">
        <ele>198</ele>
        <time>2022-06-21T05:22:14Z</time>
      </trkpt>
      <trkpt lat="46.56217" lon="5.28111">
        <ele>198.4</ele>
        <time>2022-06-21T05:22:16Z</time>
      </trkpt>
      <trkpt lat="46.56228" lon="5.28103">
        <ele>198.6</ele>
        <time>2022-06-21T05:22:18Z</time>
      </trkpt>
      <trkpt lat="46.56234" lon="5.28099">
        <ele>198.8</ele>
        <time>2022-06-21T05:22:19Z</time>
      </trkpt>
      <trkpt lat="46.56263" lon="5.28073">
        <ele>199.4</ele>
        <time>2022-06-21T05:22:25Z</time>
      </trkpt>
      <trkpt lat="46.56267" lon="5.28069">
        <ele>199.4</ele>
        <time>2022-06-21T05:22:26Z</time>
      </trkpt>
      <trkpt lat="46.56271" lon="5.28063">
        <ele>199.6</ele>
        <time>2022-06-21T05:22:27Z</time>
      </trkpt>
      <trkpt lat="46.56274" lon="5.28057">
        <ele>199.8</ele>
        <time>2022-06-21T05:22:28Z</time>
      </trkpt>
      <trkpt lat="46.56286" lon="5.28037">
        <ele>200.2</ele>
        <time>2022-06-21T05:22:31Z</time>
      </trkpt>
      <trkpt lat="46.5629" lon="5.28031">
        <ele>200.4</ele>
        <time>2022-06-21T05:22:32Z</time>
      </trkpt>
      <trkpt lat="46.56315" lon="5.27992">
        <ele>200</ele>
        <time>2022-06-21T05:22:37Z</time>
      </trkpt>
      <trkpt lat="46.56348" lon="5.27947">
        <ele>199.4</ele>
        <time>2022-06-21T05:22:43Z</time>
      </trkpt>
      <trkpt lat="46.56381" lon="5.27914">
        <ele>198.6</ele>
        <time>2022-06-21T05:22:48Z</time>
      </trkpt>
      <trkpt lat="46.56394" lon="5.27901">
        <ele>198.4</ele>
        <time>2022-06-21T05:22:50Z</time>
      </trkpt>
      <trkpt lat="46.56415" lon="5.27882">
        <ele>197.6</ele>
        <time>2022-06-21T05:22:53Z</time>
      </trkpt>
      <trkpt lat="46.56458" lon="5.27844">
        <ele>196.4</ele>
        <time>2022-06-21T05:22:59Z</time>
      </trkpt>
      <trkpt lat="46.56472" lon="5.27832">
        <ele>196</ele>
        <time>2022-06-21T05:23:01Z</time>
      </trkpt>
      <trkpt lat="46.56509" lon="5.27803">
        <ele>195.4</ele>
        <time>2022-06-21T05:23:06Z</time>
      </trkpt>
      <trkpt lat="46.5654" lon="5.27781">
        <ele>194.6</ele>
        <time>2022-06-21T05:23:10Z</time>
      </trkpt>
      <trkpt lat="46.56548" lon="5.27776">
        <ele>194.2</ele>
        <time>2022-06-21T05:23:11Z</time>
      </trkpt>
      <trkpt lat="46.56584" lon="5.27755">
        <ele>193.8</ele>
        <time>2022-06-21T05:23:16Z</time>
      </trkpt>
      <trkpt lat="46.56608" lon="5.27733">
        <ele>193.8</ele>
        <time>2022-06-21T05:23:20Z</time>
      </trkpt>
      <trkpt lat="46.56613" lon="5.27726">
        <ele>193.8</ele>
        <time>2022-06-21T05:23:21Z</time>
      </trkpt>
      <trkpt lat="46.56633" lon="5.27688">
        <ele>194.4</ele>
        <time>2022-06-21T05:23:26Z</time>
      </trkpt>
      <trkpt lat="46.56644" lon="5.27646">
        <ele>194.6</ele>
        <time>2022-06-21T05:23:31Z</time>
      </trkpt>
      <trkpt lat="46.56655" lon="5.27598">
        <ele>195.6</ele>
        <time>2022-06-21T05:23:37Z</time>
      </trkpt>
      <trkpt lat="46.56663" lon="5.2757">
        <ele>196.2</ele>
        <time>2022-06-21T05:23:41Z</time>
      </trkpt>
      <trkpt lat="46.56667" lon="5.27557">
        <ele>197</ele>
        <time>2022-06-21T05:23:43Z</time>
      </trkpt>
      <trkpt lat="46.56676" lon="5.27528">
        <ele>197.8</ele>
        <time>2022-06-21T05:23:48Z</time>
      </trkpt>
      <trkpt lat="46.56679" lon="5.27517">
        <ele>198</ele>
        <time>2022-06-21T05:23:50Z</time>
      </trkpt>
      <trkpt lat="46.56687" lon="5.27491">
        <ele>199.2</ele>
        <time>2022-06-21T05:23:55Z</time>
      </trkpt>
      <trkpt lat="46.56692" lon="5.27472">
        <ele>200.4</ele>
        <time>2022-06-21T05:23:59Z</time>
      </trkpt>
      <trkpt lat="46.56695" lon="5.27463">
        <ele>200.8</ele>
        <time>2022-06-21T05:24:01Z</time>
      </trkpt>
      <trkpt lat="46.56698" lon="5.27454">
        <ele>201.2</ele>
        <time>2022-06-21T05:24:03Z</time>
      </trkpt>
      <trkpt lat="46.56703" lon="5.27437">
        <ele>202.6</ele>
        <time>2022-06-21T05:24:07Z</time>
      </trkpt>
      <trkpt lat="46.56709" lon="5.27422">
        <ele>203.8</ele>
        <time>2022-06-21T05:24:11Z</time>
      </trkpt>
      <trkpt lat="46.56711" lon="5.27418">
        <ele>204</ele>
        <time>2022-06-21T05:24:12Z</time>
      </trkpt>
      <trkpt lat="46.56715" lon="5.274">
        <ele>205</ele>
        <time>2022-06-21T05:24:16Z</time>
      </trkpt>
      <trkpt lat="46.56721" lon="5.27381">
        <ele>206.4</ele>
        <time>2022-06-21T05:24:20Z</time>
      </trkpt>
      <trkpt lat="46.56727" lon="5.27362">
        <ele>207.6</ele>
        <time>2022-06-21T05:24:24Z</time>
      </trkpt>
      <trkpt lat="46.5673" lon="5.27352">
        <ele>208</ele>
        <time>2022-06-21T05:24:26Z</time>
      </trkpt>
      <trkpt lat="46.56732" lon="5.27342">
        <ele>208.6</ele>
        <time>2022-06-21T05:24:28Z</time>
      </trkpt>
      <trkpt lat="46.56734" lon="5.27327">
        <ele>209.4</ele>
        <time>2022-06-21T05:24:31Z</time>
      </trkpt>
      <trkpt lat="46.56736" lon="5.27316">
        <ele>209.8</ele>
        <time>2022-06-21T05:24:33Z</time>
      </trkpt>
      <trkpt lat="46.56743" lon="5.27275">
        <ele>210.8</ele>
        <time>2022-06-21T05:24:40Z</time>
      </trkpt>
      <trkpt lat="46.56751" lon="5.27228">
        <ele>211.2</ele>
        <time>2022-06-21T05:24:46Z</time>
      </trkpt>
      <trkpt lat="46.56763" lon="5.27176">
        <ele>210.6</ele>
        <time>2022-06-21T05:24:52Z</time>
      </trkpt>
      <trkpt lat="46.56773" lon="5.27151">
        <ele>209.8</ele>
        <time>2022-06-21T05:24:55Z</time>
      </trkpt>
      <trkpt lat="46.56782" lon="5.27133">
        <ele>209.2</ele>
        <time>2022-06-21T05:24:57Z</time>
      </trkpt>
      <trkpt lat="46.56793" lon="5.27106">
        <ele>208.4</ele>
        <time>2022-06-21T05:25:00Z</time>
      </trkpt>
      <trkpt lat="46.56813" lon="5.27059">
        <ele>207.4</ele>
        <time>2022-06-21T05:25:05Z</time>
      </trkpt>
      <trkpt lat="46.56817" lon="5.2705">
        <ele>207.4</ele>
        <time>2022-06-21T05:25:06Z</time>
      </trkpt>
      <trkpt lat="46.56838" lon="5.26996">
        <ele>207.2</ele>
        <time>2022-06-21T05:25:12Z</time>
      </trkpt>
      <trkpt lat="46.56864" lon="5.26928">
        <ele>207.4</ele>
        <time>2022-06-21T05:25:20Z</time>
      </trkpt>
      <trkpt lat="46.5689" lon="5.26879">
        <ele>208.4</ele>
        <time>2022-06-21T05:25:27Z</time>
      </trkpt>
      <trkpt lat="46.56893" lon="5.26872">
        <ele>208.6</ele>
        <time>2022-06-21T05:25:28Z</time>
      </trkpt>
      <trkpt lat="46.56908" lon="5.26837">
        <ele>209.6</ele>
        <time>2022-06-21T05:25:33Z</time>
      </trkpt>
      <trkpt lat="46.56911" lon="5.2683">
        <ele>209.8</ele>
        <time>2022-06-21T05:25:34Z</time>
      </trkpt>
      <trkpt lat="46.56926" lon="5.26785">
        <ele>211</ele>
        <time>2022-06-21T05:25:40Z</time>
      </trkpt>
      <trkpt lat="46.56944" lon="5.26715">
        <ele>211.4</ele>
        <time>2022-06-21T05:25:48Z</time>
      </trkpt>
      <trkpt lat="46.56953" lon="5.26685">
        <ele>211.4</ele>
        <time>2022-06-21T05:25:51Z</time>
      </trkpt>
      <trkpt lat="46.56958" lon="5.26675">
        <ele>211.4</ele>
        <time>2022-06-21T05:25:52Z</time>
      </trkpt>
      <trkpt lat="46.56987" lon="5.26628">
        <ele>209.6</ele>
        <time>2022-06-21T05:25:57Z</time>
      </trkpt>
      <trkpt lat="46.57" lon="5.26608">
        <ele>208.6</ele>
        <time>2022-06-21T05:25:59Z</time>
      </trkpt>
      <trkpt lat="46.57011" lon="5.26586">
        <ele>207.6</ele>
        <time>2022-06-21T05:26:01Z</time>
      </trkpt>
      <trkpt lat="46.57022" lon="5.26561">
        <ele>206.4</ele>
        <time>2022-06-21T05:26:03Z</time>
      </trkpt>
      <trkpt lat="46.57032" lon="5.26537">
        <ele>205.2</ele>
        <time>2022-06-21T05:26:05Z</time>
      </trkpt>
      <trkpt lat="46.57042" lon="5.26512">
        <ele>204</ele>
        <time>2022-06-21T05:26:07Z</time>
      </trkpt>
      <trkpt lat="46.57048" lon="5.265">
        <ele>203.6</ele>
        <time>2022-06-21T05:26:08Z</time>
      </trkpt>
      <trkpt lat="46.57053" lon="5.26488">
        <ele>203</ele>
        <time>2022-06-21T05:26:09Z</time>
      </trkpt>
      <trkpt lat="46.57073" lon="5.26442">
        <ele>202</ele>
        <time>2022-06-21T05:26:13Z</time>
      </trkpt>
      <trkpt lat="46.57087" lon="5.2641">
        <ele>201.2</ele>
        <time>2022-06-21T05:26:16Z</time>
      </trkpt>
      <trkpt lat="46.57112" lon="5.2637">
        <ele>201.6</ele>
        <time>2022-06-21T05:26:21Z</time>
      </trkpt>
      <trkpt lat="46.57138" lon="5.26339">
        <ele>202.8</ele>
        <time>2022-06-21T05:26:27Z</time>
      </trkpt>
      <trkpt lat="46.57142" lon="5.26335">
        <ele>203.2</ele>
        <time>2022-06-21T05:26:28Z</time>
      </trkpt>
      <trkpt lat="46.57162" lon="5.26315">
        <ele>204.6</ele>
        <time>2022-06-21T05:26:33Z</time>
      </trkpt>
      <trkpt lat="46.57166" lon="5.26311">
        <ele>204.8</ele>
        <time>2022-06-21T05:26:34Z</time>
      </trkpt>
      <trkpt lat="46.57177" lon="5.26299">
        <ele>205.8</ele>
        <time>2022-06-21T05:26:37Z</time>
      </trkpt>
      <trkpt lat="46.57189" lon="5.26288">
        <ele>207.4</ele>
        <time>2022-06-21T05:26:40Z</time>
      </trkpt>
      <trkpt lat="46.57203" lon="5.26273">
        <ele>208.4</ele>
        <time>2022-06-21T05:26:44Z</time>
      </trkpt>
      <trkpt lat="46.57207" lon="5.2627">
        <ele>208.6</ele>
        <time>2022-06-21T05:26:45Z</time>
      </trkpt>
      <trkpt lat="46.57213" lon="5.26263">
        <ele>209</ele>
        <time>2022-06-21T05:26:47Z</time>
      </trkpt>
      <trkpt lat="46.5722" lon="5.26255">
        <ele>209.4</ele>
        <time>2022-06-21T05:26:49Z</time>
      </trkpt>
      <trkpt lat="46.5723" lon="5.26243">
        <ele>209.8</ele>
        <time>2022-06-21T05:26:52Z</time>
      </trkpt>
      <trkpt lat="46.57241" lon="5.26232">
        <ele>210.6</ele>
        <time>2022-06-21T05:26:55Z</time>
      </trkpt>
      <trkpt lat="46.57258" lon="5.26215">
        <ele>212</ele>
        <time>2022-06-21T05:27:00Z</time>
      </trkpt>
      <trkpt lat="46.57277" lon="5.26195">
        <ele>213</ele>
        <time>2022-06-21T05:27:05Z</time>
      </trkpt>
      <trkpt lat="46.57285" lon="5.26187">
        <ele>213.2</ele>
        <time>2022-06-21T05:27:07Z</time>
      </trkpt>
      <trkpt lat="46.57309" lon="5.2616">
        <ele>214</ele>
        <time>2022-06-21T05:27:13Z</time>
      </trkpt>
      <trkpt lat="46.57322" lon="5.26146">
        <ele>214.2</ele>
        <time>2022-06-21T05:27:16Z</time>
      </trkpt>
      <trkpt lat="46.57352" lon="5.26113">
        <ele>214.6</ele>
        <time>2022-06-21T05:27:23Z</time>
      </trkpt>
      <trkpt lat="46.57388" lon="5.26073">
        <ele>215</ele>
        <time>2022-06-21T05:27:31Z</time>
      </trkpt>
      <trkpt lat="46.57428" lon="5.26034">
        <ele>214.4</ele>
        <time>2022-06-21T05:27:39Z</time>
      </trkpt>
      <trkpt lat="46.57451" lon="5.26009">
        <ele>213.8</ele>
        <time>2022-06-21T05:27:45Z</time>
      </trkpt>
      <trkpt lat="46.57451" lon="5.26009">
        <ele>213.6</ele>
        <time>2022-06-21T05:27:47Z</time>
      </trkpt>
      <trkpt lat="46.57455" lon="5.26003">
        <ele>212.8</ele>
        <time>2022-06-21T05:28:03Z</time>
      </trkpt>
      <trkpt lat="46.5746" lon="5.25994">
        <ele>212.8</ele>
        <time>2022-06-21T05:28:05Z</time>
      </trkpt>
      <trkpt lat="46.57466" lon="5.25981">
        <ele>212.4</ele>
        <time>2022-06-21T05:28:07Z</time>
      </trkpt>
      <trkpt lat="46.57472" lon="5.25964">
        <ele>212.2</ele>
        <time>2022-06-21T05:28:09Z</time>
      </trkpt>
      <trkpt lat="46.57477" lon="5.25944">
        <ele>212.2</ele>
        <time>2022-06-21T05:28:11Z</time>
      </trkpt>
      <trkpt lat="46.57481" lon="5.25922">
        <ele>211.6</ele>
        <time>2022-06-21T05:28:13Z</time>
      </trkpt>
      <trkpt lat="46.57484" lon="5.25898">
        <ele>210.6</ele>
        <time>2022-06-21T05:28:15Z</time>
      </trkpt>
      <trkpt lat="46.57486" lon="5.25886">
        <ele>210.2</ele>
        <time>2022-06-21T05:28:16Z</time>
      </trkpt>
      <trkpt lat="46.57493" lon="5.25849">
        <ele>209</ele>
        <time>2022-06-21T05:28:19Z</time>
      </trkpt>
      <trkpt lat="46.57497" lon="5.25825">
        <ele>208.6</ele>
        <time>2022-06-21T05:28:21Z</time>
      </trkpt>
      <trkpt lat="46.57502" lon="5.25801">
        <ele>208.6</ele>
        <time>2022-06-21T05:28:23Z</time>
      </trkpt>
      <trkpt lat="46.57516" lon="5.25758">
        <ele>208</ele>
        <time>2022-06-21T05:28:27Z</time>
      </trkpt>
      <trkpt lat="46.57541" lon="5.25688">
        <ele>207.2</ele>
        <time>2022-06-21T05:28:34Z</time>
      </trkpt>
      <trkpt lat="46.57545" lon="5.25678">
        <ele>207.2</ele>
        <time>2022-06-21T05:28:35Z</time>
      </trkpt>
      <trkpt lat="46.57552" lon="5.25659">
        <ele>207</ele>
        <time>2022-06-21T05:28:37Z</time>
      </trkpt>
      <trkpt lat="46.57568" lon="5.25615">
        <ele>206.4</ele>
        <time>2022-06-21T05:28:42Z</time>
      </trkpt>
      <trkpt lat="46.57579" lon="5.2559">
        <ele>206</ele>
        <time>2022-06-21T05:28:46Z</time>
      </trkpt>
      <trkpt lat="46.57581" lon="5.25574">
        <ele>206</ele>
        <time>2022-06-21T05:28:49Z</time>
      </trkpt>
      <trkpt lat="46.57581" lon="5.25566">
        <ele>205.8</ele>
        <time>2022-06-21T05:28:50Z</time>
      </trkpt>
      <trkpt lat="46.5758" lon="5.25547">
        <ele>205.8</ele>
        <time>2022-06-21T05:28:52Z</time>
      </trkpt>
      <trkpt lat="46.57579" lon="5.25536">
        <ele>205.8</ele>
        <time>2022-06-21T05:28:53Z</time>
      </trkpt>
      <trkpt lat="46.57576" lon="5.25483">
        <ele>204.4</ele>
        <time>2022-06-21T05:28:57Z</time>
      </trkpt>
      <trkpt lat="46.57575" lon="5.25469">
        <ele>204</ele>
        <time>2022-06-21T05:28:58Z</time>
      </trkpt>
      <trkpt lat="46.57574" lon="5.25454">
        <ele>203.2</ele>
        <time>2022-06-21T05:28:59Z</time>
      </trkpt>
      <trkpt lat="46.57572" lon="5.25424">
        <ele>202</ele>
        <time>2022-06-21T05:29:01Z</time>
      </trkpt>
      <trkpt lat="46.57571" lon="5.25393">
        <ele>200.8</ele>
        <time>2022-06-21T05:29:03Z</time>
      </trkpt>
      <trkpt lat="46.57571" lon="5.25378">
        <ele>199.6</ele>
        <time>2022-06-21T05:29:04Z</time>
      </trkpt>
      <trkpt lat="46.57576" lon="5.25349">
        <ele>198.4</ele>
        <time>2022-06-21T05:29:06Z</time>
      </trkpt>
      <trkpt lat="46.57589" lon="5.25328">
        <ele>197</ele>
        <time>2022-06-21T05:29:08Z</time>
      </trkpt>
      <trkpt lat="46.57613" lon="5.25306">
        <ele>195.8</ele>
        <time>2022-06-21T05:29:11Z</time>
      </trkpt>
      <trkpt lat="46.57622" lon="5.25299">
        <ele>195.6</ele>
        <time>2022-06-21T05:29:12Z</time>
      </trkpt>
      <trkpt lat="46.57655" lon="5.25272">
        <ele>194.8</ele>
        <time>2022-06-21T05:29:16Z</time>
      </trkpt>
      <trkpt lat="46.57703" lon="5.25231">
        <ele>194</ele>
        <time>2022-06-21T05:29:22Z</time>
      </trkpt>
      <trkpt lat="46.57711" lon="5.25225">
        <ele>193.8</ele>
        <time>2022-06-21T05:29:23Z</time>
      </trkpt>
      <trkpt lat="46.57763" lon="5.25181">
        <ele>192.8</ele>
        <time>2022-06-21T05:29:30Z</time>
      </trkpt>
      <trkpt lat="46.57771" lon="5.25176">
        <ele>192.6</ele>
        <time>2022-06-21T05:29:31Z</time>
      </trkpt>
      <trkpt lat="46.57799" lon="5.25152">
        <ele>192.2</ele>
        <time>2022-06-21T05:29:35Z</time>
      </trkpt>
      <trkpt lat="46.57821" lon="5.25138">
        <ele>192</ele>
        <time>2022-06-21T05:29:38Z</time>
      </trkpt>
      <trkpt lat="46.57836" lon="5.25133">
        <ele>192</ele>
        <time>2022-06-21T05:29:40Z</time>
      </trkpt>
      <trkpt lat="46.57874" lon="5.25132">
        <ele>192.2</ele>
        <time>2022-06-21T05:29:45Z</time>
      </trkpt>
      <trkpt lat="46.57923" lon="5.25141">
        <ele>192.4</ele>
        <time>2022-06-21T05:29:52Z</time>
      </trkpt>
      <trkpt lat="46.57955" lon="5.25143">
        <ele>192.8</ele>
        <time>2022-06-21T05:29:57Z</time>
      </trkpt>
      <trkpt lat="46.57961" lon="5.2514">
        <ele>192.8</ele>
        <time>2022-06-21T05:29:58Z</time>
      </trkpt>
      <trkpt lat="46.57965" lon="5.25137">
        <ele>193</ele>
        <time>2022-06-21T05:29:59Z</time>
      </trkpt>
      <trkpt lat="46.57972" lon="5.25126">
        <ele>193.2</ele>
        <time>2022-06-21T05:30:01Z</time>
      </trkpt>
      <trkpt lat="46.57975" lon="5.25113">
        <ele>193.2</ele>
        <time>2022-06-21T05:30:03Z</time>
      </trkpt>
      <trkpt lat="46.57976" lon="5.25104">
        <ele>193.6</ele>
        <time>2022-06-21T05:30:05Z</time>
      </trkpt>
      <trkpt lat="46.57975" lon="5.25101">
        <ele>194</ele>
        <time>2022-06-21T05:30:08Z</time>
      </trkpt>
      <trkpt lat="46.57975" lon="5.25101">
        <ele>194</ele>
        <time>2022-06-21T05:30:09Z</time>
      </trkpt>
      <trkpt lat="46.57974" lon="5.25097">
        <ele>193.8</ele>
        <time>2022-06-21T05:30:23Z</time>
      </trkpt>
      <trkpt lat="46.57968" lon="5.25094">
        <ele>193.8</ele>
        <time>2022-06-21T05:30:25Z</time>
      </trkpt>
      <trkpt lat="46.57948" lon="5.25092">
        <ele>194</ele>
        <time>2022-06-21T05:30:29Z</time>
      </trkpt>
      <trkpt lat="46.57911" lon="5.25093">
        <ele>194.6</ele>
        <time>2022-06-21T05:30:35Z</time>
      </trkpt>
      <trkpt lat="46.57905" lon="5.25093">
        <ele>194.8</ele>
        <time>2022-06-21T05:30:36Z</time>
      </trkpt>
      <trkpt lat="46.57868" lon="5.25094">
        <ele>195.6</ele>
        <time>2022-06-21T05:30:42Z</time>
      </trkpt>
      <trkpt lat="46.57849" lon="5.25093">
        <ele>196.2</ele>
        <time>2022-06-21T05:30:45Z</time>
      </trkpt>
      <trkpt lat="46.57831" lon="5.25093">
        <ele>196.8</ele>
        <time>2022-06-21T05:30:48Z</time>
      </trkpt>
      <trkpt lat="46.57795" lon="5.25093">
        <ele>198</ele>
        <time>2022-06-21T05:30:54Z</time>
      </trkpt>
      <trkpt lat="46.57777" lon="5.25092">
        <ele>198.6</ele>
        <time>2022-06-21T05:30:57Z</time>
      </trkpt>
      <trkpt lat="46.57739" lon="5.2509">
        <ele>199.2</ele>
        <time>2022-06-21T05:31:03Z</time>
      </trkpt>
      <trkpt lat="46.57726" lon="5.25091">
        <ele>199.2</ele>
        <time>2022-06-21T05:31:05Z</time>
      </trkpt>
      <trkpt lat="46.57684" lon="5.25098">
        <ele>199</ele>
        <time>2022-06-21T05:31:11Z</time>
      </trkpt>
      <trkpt lat="46.5764" lon="5.25124">
        <ele>198</ele>
        <time>2022-06-21T05:31:17Z</time>
      </trkpt>
      <trkpt lat="46.57616" lon="5.25135">
        <ele>197.2</ele>
        <time>2022-06-21T05:31:20Z</time>
      </trkpt>
      <trkpt lat="46.57599" lon="5.25138">
        <ele>196.8</ele>
        <time>2022-06-21T05:31:22Z</time>
      </trkpt>
      <trkpt lat="46.57572" lon="5.25134">
        <ele>195.8</ele>
        <time>2022-06-21T05:31:25Z</time>
      </trkpt>
      <trkpt lat="46.57564" lon="5.25131">
        <ele>195.6</ele>
        <time>2022-06-21T05:31:26Z</time>
      </trkpt>
      <trkpt lat="46.57547" lon="5.25122">
        <ele>195</ele>
        <time>2022-06-21T05:31:28Z</time>
      </trkpt>
      <trkpt lat="46.57539" lon="5.25116">
        <ele>194.6</ele>
        <time>2022-06-21T05:31:29Z</time>
      </trkpt>
      <trkpt lat="46.57531" lon="5.25108">
        <ele>194.2</ele>
        <time>2022-06-21T05:31:30Z</time>
      </trkpt>
      <trkpt lat="46.57507" lon="5.25071">
        <ele>193.2</ele>
        <time>2022-06-21T05:31:34Z</time>
      </trkpt>
      <trkpt lat="46.57482" lon="5.25019">
        <ele>192.2</ele>
        <time>2022-06-21T05:31:39Z</time>
      </trkpt>
      <trkpt lat="46.57473" lon="5.24998">
        <ele>192</ele>
        <time>2022-06-21T05:31:41Z</time>
      </trkpt>
      <trkpt lat="46.57443" lon="5.24929">
        <ele>191.8</ele>
        <time>2022-06-21T05:31:48Z</time>
      </trkpt>
      <trkpt lat="46.57438" lon="5.2492">
        <ele>191.6</ele>
        <time>2022-06-21T05:31:49Z</time>
      </trkpt>
      <trkpt lat="46.57408" lon="5.24855">
        <ele>191.6</ele>
        <time>2022-06-21T05:31:56Z</time>
      </trkpt>
      <trkpt lat="46.57404" lon="5.24845">
        <ele>191.6</ele>
        <time>2022-06-21T05:31:57Z</time>
      </trkpt>
      <trkpt lat="46.574" lon="5.24836">
        <ele>191.4</ele>
        <time>2022-06-21T05:31:58Z</time>
      </trkpt>
      <trkpt lat="46.57389" lon="5.24809">
        <ele>191.2</ele>
        <time>2022-06-21T05:32:01Z</time>
      </trkpt>
      <trkpt lat="46.57379" lon="5.24792">
        <ele>191.2</ele>
        <time>2022-06-21T05:32:03Z</time>
      </trkpt>
      <trkpt lat="46.57374" lon="5.24784">
        <ele>191.2</ele>
        <time>2022-06-21T05:32:04Z</time>
      </trkpt>
      <trkpt lat="46.57338" lon="5.24748">
        <ele>191.6</ele>
        <time>2022-06-21T05:32:10Z</time>
      </trkpt>
      <trkpt lat="46.57307" lon="5.24717">
        <ele>191.4</ele>
        <time>2022-06-21T05:32:15Z</time>
      </trkpt>
      <trkpt lat="46.57299" lon="5.24699">
        <ele>191.2</ele>
        <time>2022-06-21T05:32:17Z</time>
      </trkpt>
      <trkpt lat="46.57296" lon="5.24689">
        <ele>191.2</ele>
        <time>2022-06-21T05:32:18Z</time>
      </trkpt>
      <trkpt lat="46.57286" lon="5.24661">
        <ele>191.2</ele>
        <time>2022-06-21T05:32:21Z</time>
      </trkpt>
      <trkpt lat="46.57281" lon="5.24654">
        <ele>191.2</ele>
        <time>2022-06-21T05:32:22Z</time>
      </trkpt>
      <trkpt lat="46.57275" lon="5.24648">
        <ele>191.2</ele>
        <time>2022-06-21T05:32:23Z</time>
      </trkpt>
      <trkpt lat="46.57263" lon="5.24647">
        <ele>191.2</ele>
        <time>2022-06-21T05:32:25Z</time>
      </trkpt>
      <trkpt lat="46.5723" lon="5.2466">
        <ele>191</ele>
        <time>2022-06-21T05:32:30Z</time>
      </trkpt>
      <trkpt lat="46.57185" lon="5.24677">
        <ele>191.4</ele>
        <time>2022-06-21T05:32:37Z</time>
      </trkpt>
      <trkpt lat="46.57141" lon="5.2469">
        <ele>192</ele>
        <time>2022-06-21T05:32:44Z</time>
      </trkpt>
      <trkpt lat="46.57135" lon="5.2469">
        <ele>192</ele>
        <time>2022-06-21T05:32:45Z</time>
      </trkpt>
      <trkpt lat="46.57112" lon="5.24686">
        <ele>192.4</ele>
        <time>2022-06-21T05:32:49Z</time>
      </trkpt>
      <trkpt lat="46.57106" lon="5.24684">
        <ele>192.4</ele>
        <time>2022-06-21T05:32:50Z</time>
      </trkpt>
      <trkpt lat="46.57066" lon="5.2467">
        <ele>193.2</ele>
        <time>2022-06-21T05:32:57Z</time>
      </trkpt>
      <trkpt lat="46.57049" lon="5.24665">
        <ele>193.6</ele>
        <time>2022-06-21T05:33:00Z</time>
      </trkpt>
      <trkpt lat="46.57014" lon="5.24653">
        <ele>194.8</ele>
        <time>2022-06-21T05:33:06Z</time>
      </trkpt>
      <trkpt lat="46.57003" lon="5.24649">
        <ele>195.2</ele>
        <time>2022-06-21T05:33:08Z</time>
      </trkpt>
      <trkpt lat="46.56981" lon="5.24642">
        <ele>195.8</ele>
        <time>2022-06-21T05:33:12Z</time>
      </trkpt>
      <trkpt lat="46.56951" lon="5.2463">
        <ele>197</ele>
        <time>2022-06-21T05:33:18Z</time>
      </trkpt>
      <trkpt lat="46.56946" lon="5.24628">
        <ele>197.2</ele>
        <time>2022-06-21T05:33:19Z</time>
      </trkpt>
      <trkpt lat="46.56911" lon="5.24615">
        <ele>198</ele>
        <time>2022-06-21T05:33:26Z</time>
      </trkpt>
      <trkpt lat="46.56901" lon="5.24611">
        <ele>198.2</ele>
        <time>2022-06-21T05:33:28Z</time>
      </trkpt>
      <trkpt lat="46.56875" lon="5.24603">
        <ele>199.2</ele>
        <time>2022-06-21T05:33:33Z</time>
      </trkpt>
      <trkpt lat="46.56854" lon="5.24596">
        <ele>199.8</ele>
        <time>2022-06-21T05:33:37Z</time>
      </trkpt>
      <trkpt lat="46.56823" lon="5.24584">
        <ele>200.2</ele>
        <time>2022-06-21T05:33:43Z</time>
      </trkpt>
      <trkpt lat="46.56801" lon="5.24577">
        <ele>200.4</ele>
        <time>2022-06-21T05:33:47Z</time>
      </trkpt>
      <trkpt lat="46.56769" lon="5.24566">
        <ele>201.2</ele>
        <time>2022-06-21T05:33:53Z</time>
      </trkpt>
      <trkpt lat="46.56748" lon="5.24559">
        <ele>201.6</ele>
        <time>2022-06-21T05:33:57Z</time>
      </trkpt>
      <trkpt lat="46.56714" lon="5.24547">
        <ele>202.4</ele>
        <time>2022-06-21T05:34:04Z</time>
      </trkpt>
      <trkpt lat="46.567" lon="5.24542">
        <ele>202.8</ele>
        <time>2022-06-21T05:34:07Z</time>
      </trkpt>
      <trkpt lat="46.56683" lon="5.24537">
        <ele>203.6</ele>
        <time>2022-06-21T05:34:11Z</time>
      </trkpt>
      <trkpt lat="46.56661" lon="5.24529">
        <ele>204.8</ele>
        <time>2022-06-21T05:34:16Z</time>
      </trkpt>
      <trkpt lat="46.56656" lon="5.24527">
        <ele>205</ele>
        <time>2022-06-21T05:34:17Z</time>
      </trkpt>
      <trkpt lat="46.56629" lon="5.24518">
        <ele>205.8</ele>
        <time>2022-06-21T05:34:23Z</time>
      </trkpt>
      <trkpt lat="46.56619" lon="5.24515">
        <ele>206.4</ele>
        <time>2022-06-21T05:34:25Z</time>
      </trkpt>
      <trkpt lat="46.5661" lon="5.24512">
        <ele>207</ele>
        <time>2022-06-21T05:34:27Z</time>
      </trkpt>
      <trkpt lat="46.56578" lon="5.245">
        <ele>208.2</ele>
        <time>2022-06-21T05:34:34Z</time>
      </trkpt>
      <trkpt lat="46.56563" lon="5.24495">
        <ele>208.6</ele>
        <time>2022-06-21T05:34:37Z</time>
      </trkpt>
      <trkpt lat="46.56538" lon="5.24487">
        <ele>209.2</ele>
        <time>2022-06-21T05:34:42Z</time>
      </trkpt>
      <trkpt lat="46.56508" lon="5.24476">
        <ele>209.8</ele>
        <time>2022-06-21T05:34:48Z</time>
      </trkpt>
      <trkpt lat="46.56473" lon="5.24464">
        <ele>210.2</ele>
        <time>2022-06-21T05:34:55Z</time>
      </trkpt>
      <trkpt lat="46.56453" lon="5.24458">
        <ele>210.6</ele>
        <time>2022-06-21T05:34:59Z</time>
      </trkpt>
      <trkpt lat="46.56434" lon="5.24451">
        <ele>211.2</ele>
        <time>2022-06-21T05:35:03Z</time>
      </trkpt>
      <trkpt lat="46.56416" lon="5.24445">
        <ele>211.6</ele>
        <time>2022-06-21T05:35:07Z</time>
      </trkpt>
      <trkpt lat="46.56392" lon="5.24437">
        <ele>212.2</ele>
        <time>2022-06-21T05:35:12Z</time>
      </trkpt>
      <trkpt lat="46.56373" lon="5.2443">
        <ele>212.6</ele>
        <time>2022-06-21T05:35:16Z</time>
      </trkpt>
      <trkpt lat="46.5635" lon="5.24422">
        <ele>213.2</ele>
        <time>2022-06-21T05:35:21Z</time>
      </trkpt>
      <trkpt lat="46.56345" lon="5.2442">
        <ele>213.4</ele>
        <time>2022-06-21T05:35:22Z</time>
      </trkpt>
      <trkpt lat="46.5632" lon="5.24412">
        <ele>214.2</ele>
        <time>2022-06-21T05:35:27Z</time>
      </trkpt>
      <trkpt lat="46.563" lon="5.24405">
        <ele>214.4</ele>
        <time>2022-06-21T05:35:31Z</time>
      </trkpt>
      <trkpt lat="46.56268" lon="5.24394">
        <ele>215</ele>
        <time>2022-06-21T05:35:37Z</time>
      </trkpt>
      <trkpt lat="46.56217" lon="5.24376">
        <ele>215.4</ele>
        <time>2022-06-21T05:35:46Z</time>
      </trkpt>
      <trkpt lat="46.56211" lon="5.24374">
        <ele>215.4</ele>
        <time>2022-06-21T05:35:47Z</time>
      </trkpt>
      <trkpt lat="46.56153" lon="5.24354">
        <ele>215.4</ele>
        <time>2022-06-21T05:35:57Z</time>
      </trkpt>
      <trkpt lat="46.56099" lon="5.24336">
        <ele>215.2</ele>
        <time>2022-06-21T05:36:06Z</time>
      </trkpt>
      <trkpt lat="46.56093" lon="5.24334">
        <ele>215.2</ele>
        <time>2022-06-21T05:36:07Z</time>
      </trkpt>
      <trkpt lat="46.56045" lon="5.24316">
        <ele>215</ele>
        <time>2022-06-21T05:36:15Z</time>
      </trkpt>
      <trkpt lat="46.55987" lon="5.24301">
        <ele>215.2</ele>
        <time>2022-06-21T05:36:24Z</time>
      </trkpt>
      <trkpt lat="46.55968" lon="5.24297">
        <ele>215.2</ele>
        <time>2022-06-21T05:36:27Z</time>
      </trkpt>
      <trkpt lat="46.55958" lon="5.24286">
        <ele>215</ele>
        <time>2022-06-21T05:36:29Z</time>
      </trkpt>
      <trkpt lat="46.55955" lon="5.24269">
        <ele>215</ele>
        <time>2022-06-21T05:36:31Z</time>
      </trkpt>
      <trkpt lat="46.55954" lon="5.24259">
        <ele>214.8</ele>
        <time>2022-06-21T05:36:32Z</time>
      </trkpt>
      <trkpt lat="46.55951" lon="5.24227">
        <ele>214.2</ele>
        <time>2022-06-21T05:36:35Z</time>
      </trkpt>
      <trkpt lat="46.55949" lon="5.24208">
        <ele>214</ele>
        <time>2022-06-21T05:36:37Z</time>
      </trkpt>
      <trkpt lat="46.55946" lon="5.2419">
        <ele>214</ele>
        <time>2022-06-21T05:36:39Z</time>
      </trkpt>
      <trkpt lat="46.5594" lon="5.24164">
        <ele>214.2</ele>
        <time>2022-06-21T05:36:42Z</time>
      </trkpt>
      <trkpt lat="46.55925" lon="5.24115">
        <ele>215</ele>
        <time>2022-06-21T05:36:47Z</time>
      </trkpt>
      <trkpt lat="46.55919" lon="5.24095">
        <ele>215.4</ele>
        <time>2022-06-21T05:36:49Z</time>
      </trkpt>
      <trkpt lat="46.55916" lon="5.24085">
        <ele>215.6</ele>
        <time>2022-06-21T05:36:50Z</time>
      </trkpt>
      <trkpt lat="46.55908" lon="5.24066">
        <ele>215.8</ele>
        <time>2022-06-21T05:36:52Z</time>
      </trkpt>
      <trkpt lat="46.55889" lon="5.24006">
        <ele>215.8</ele>
        <time>2022-06-21T05:36:58Z</time>
      </trkpt>
      <trkpt lat="46.55879" lon="5.23977">
        <ele>216</ele>
        <time>2022-06-21T05:37:01Z</time>
      </trkpt>
      <trkpt lat="46.55874" lon="5.23958">
        <ele>216</ele>
        <time>2022-06-21T05:37:03Z</time>
      </trkpt>
      <trkpt lat="46.5587" lon="5.23949">
        <ele>216</ele>
        <time>2022-06-21T05:37:04Z</time>
      </trkpt>
      <trkpt lat="46.5586" lon="5.23932">
        <ele>216.2</ele>
        <time>2022-06-21T05:37:06Z</time>
      </trkpt>
      <trkpt lat="46.55855" lon="5.23924">
        <ele>216.2</ele>
        <time>2022-06-21T05:37:07Z</time>
      </trkpt>
      <trkpt lat="46.55831" lon="5.23902">
        <ele>216.2</ele>
        <time>2022-06-21T05:37:11Z</time>
      </trkpt>
      <trkpt lat="46.55817" lon="5.23896">
        <ele>216.2</ele>
        <time>2022-06-21T05:37:13Z</time>
      </trkpt>
      <trkpt lat="46.5577" lon="5.23861">
        <ele>216.4</ele>
        <time>2022-06-21T05:37:20Z</time>
      </trkpt>
      <trkpt lat="46.5574" lon="5.23841">
        <ele>216.4</ele>
        <time>2022-06-21T05:37:25Z</time>
      </trkpt>
      <trkpt lat="46.55734" lon="5.23838">
        <ele>216.4</ele>
        <time>2022-06-21T05:37:26Z</time>
      </trkpt>
      <trkpt lat="46.55709" lon="5.23824">
        <ele>216.4</ele>
        <time>2022-06-21T05:37:30Z</time>
      </trkpt>
      <trkpt lat="46.55703" lon="5.23822">
        <ele>216.6</ele>
        <time>2022-06-21T05:37:31Z</time>
      </trkpt>
      <trkpt lat="46.55659" lon="5.2382">
        <ele>216.4</ele>
        <time>2022-06-21T05:37:37Z</time>
      </trkpt>
      <trkpt lat="46.5565" lon="5.23819">
        <ele>216.2</ele>
        <time>2022-06-21T05:37:38Z</time>
      </trkpt>
      <trkpt lat="46.55623" lon="5.23816">
        <ele>215.6</ele>
        <time>2022-06-21T05:37:41Z</time>
      </trkpt>
      <trkpt lat="46.55613" lon="5.23817">
        <ele>215.2</ele>
        <time>2022-06-21T05:37:42Z</time>
      </trkpt>
      <trkpt lat="46.55583" lon="5.23816">
        <ele>214.2</ele>
        <time>2022-06-21T05:37:45Z</time>
      </trkpt>
      <trkpt lat="46.55572" lon="5.23816">
        <ele>213.8</ele>
        <time>2022-06-21T05:37:46Z</time>
      </trkpt>
      <trkpt lat="46.55561" lon="5.23815">
        <ele>213.2</ele>
        <time>2022-06-21T05:37:47Z</time>
      </trkpt>
      <trkpt lat="46.55551" lon="5.23814">
        <ele>212.8</ele>
        <time>2022-06-21T05:37:48Z</time>
      </trkpt>
      <trkpt lat="46.55541" lon="5.23811">
        <ele>212</ele>
        <time>2022-06-21T05:37:49Z</time>
      </trkpt>
      <trkpt lat="46.55529" lon="5.23805">
        <ele>211.6</ele>
        <time>2022-06-21T05:37:50Z</time>
      </trkpt>
      <trkpt lat="46.55518" lon="5.23799">
        <ele>210.6</ele>
        <time>2022-06-21T05:37:51Z</time>
      </trkpt>
      <trkpt lat="46.55497" lon="5.23784">
        <ele>209.6</ele>
        <time>2022-06-21T05:37:53Z</time>
      </trkpt>
      <trkpt lat="46.55487" lon="5.23776">
        <ele>208.8</ele>
        <time>2022-06-21T05:37:54Z</time>
      </trkpt>
      <trkpt lat="46.55466" lon="5.23761">
        <ele>207.4</ele>
        <time>2022-06-21T05:37:56Z</time>
      </trkpt>
      <trkpt lat="46.55456" lon="5.23755">
        <ele>207.4</ele>
        <time>2022-06-21T05:37:57Z</time>
      </trkpt>
      <trkpt lat="46.55435" lon="5.2374">
        <ele>206.4</ele>
        <time>2022-06-21T05:37:59Z</time>
      </trkpt>
      <trkpt lat="46.55406" lon="5.23719">
        <ele>205.2</ele>
        <time>2022-06-21T05:38:02Z</time>
      </trkpt>
      <trkpt lat="46.55386" lon="5.23705">
        <ele>204.6</ele>
        <time>2022-06-21T05:38:04Z</time>
      </trkpt>
      <trkpt lat="46.55377" lon="5.23699">
        <ele>204.2</ele>
        <time>2022-06-21T05:38:05Z</time>
      </trkpt>
      <trkpt lat="46.55342" lon="5.23674">
        <ele>203.2</ele>
        <time>2022-06-21T05:38:09Z</time>
      </trkpt>
      <trkpt lat="46.55297" lon="5.23639">
        <ele>202.4</ele>
        <time>2022-06-21T05:38:15Z</time>
      </trkpt>
      <trkpt lat="46.55269" lon="5.23616">
        <ele>202.2</ele>
        <time>2022-06-21T05:38:19Z</time>
      </trkpt>
      <trkpt lat="46.55255" lon="5.23605">
        <ele>202</ele>
        <time>2022-06-21T05:38:21Z</time>
      </trkpt>
      <trkpt lat="46.55249" lon="5.23599">
        <ele>202</ele>
        <time>2022-06-21T05:38:22Z</time>
      </trkpt>
      <trkpt lat="46.55198" lon="5.23558">
        <ele>202</ele>
        <time>2022-06-21T05:38:30Z</time>
      </trkpt>
      <trkpt lat="46.55148" lon="5.23518">
        <ele>202</ele>
        <time>2022-06-21T05:38:38Z</time>
      </trkpt>
      <trkpt lat="46.55123" lon="5.23497">
        <ele>201.8</ele>
        <time>2022-06-21T05:38:42Z</time>
      </trkpt>
      <trkpt lat="46.55083" lon="5.23453">
        <ele>201.8</ele>
        <time>2022-06-21T05:38:49Z</time>
      </trkpt>
      <trkpt lat="46.55039" lon="5.23393">
        <ele>201.6</ele>
        <time>2022-06-21T05:38:57Z</time>
      </trkpt>
      <trkpt lat="46.55034" lon="5.23383">
        <ele>201.4</ele>
        <time>2022-06-21T05:38:58Z</time>
      </trkpt>
      <trkpt lat="46.55023" lon="5.23353">
        <ele>201.4</ele>
        <time>2022-06-21T05:39:01Z</time>
      </trkpt>
      <trkpt lat="46.55002" lon="5.23284">
        <ele>201.4</ele>
        <time>2022-06-21T05:39:08Z</time>
      </trkpt>
      <trkpt lat="46.54988" lon="5.23236">
        <ele>202</ele>
        <time>2022-06-21T05:39:14Z</time>
      </trkpt>
      <trkpt lat="46.54986" lon="5.23229">
        <ele>202.2</ele>
        <time>2022-06-21T05:39:15Z</time>
      </trkpt>
      <trkpt lat="46.54979" lon="5.23215">
        <ele>202.8</ele>
        <time>2022-06-21T05:39:17Z</time>
      </trkpt>
      <trkpt lat="46.54973" lon="5.23204">
        <ele>203</ele>
        <time>2022-06-21T05:39:19Z</time>
      </trkpt>
      <trkpt lat="46.54966" lon="5.23194">
        <ele>203.4</ele>
        <time>2022-06-21T05:39:21Z</time>
      </trkpt>
      <trkpt lat="46.54954" lon="5.23183">
        <ele>203.6</ele>
        <time>2022-06-21T05:39:24Z</time>
      </trkpt>
      <trkpt lat="46.54938" lon="5.23168">
        <ele>204.6</ele>
        <time>2022-06-21T05:39:28Z</time>
      </trkpt>
      <trkpt lat="46.54926" lon="5.23158">
        <ele>205.4</ele>
        <time>2022-06-21T05:39:31Z</time>
      </trkpt>
      <trkpt lat="46.54922" lon="5.23154">
        <ele>205.6</ele>
        <time>2022-06-21T05:39:32Z</time>
      </trkpt>
      <trkpt lat="46.54911" lon="5.23144">
        <ele>206.8</ele>
        <time>2022-06-21T05:39:35Z</time>
      </trkpt>
      <trkpt lat="46.54897" lon="5.2313">
        <ele>207.8</ele>
        <time>2022-06-21T05:39:39Z</time>
      </trkpt>
      <trkpt lat="46.54894" lon="5.23126">
        <ele>208</ele>
        <time>2022-06-21T05:39:40Z</time>
      </trkpt>
      <trkpt lat="46.54876" lon="5.23109">
        <ele>209.2</ele>
        <time>2022-06-21T05:39:45Z</time>
      </trkpt>
      <trkpt lat="46.54858" lon="5.23092">
        <ele>210</ele>
        <time>2022-06-21T05:39:50Z</time>
      </trkpt>
      <trkpt lat="46.54855" lon="5.23089">
        <ele>210.4</ele>
        <time>2022-06-21T05:39:51Z</time>
      </trkpt>
      <trkpt lat="46.54851" lon="5.23086">
        <ele>210.8</ele>
        <time>2022-06-21T05:39:52Z</time>
      </trkpt>
      <trkpt lat="46.54838" lon="5.23072">
        <ele>211.6</ele>
        <time>2022-06-21T05:39:56Z</time>
      </trkpt>
      <trkpt lat="46.54835" lon="5.23068">
        <ele>211.8</ele>
        <time>2022-06-21T05:39:57Z</time>
      </trkpt>
      <trkpt lat="46.54831" lon="5.23065">
        <ele>212</ele>
        <time>2022-06-21T05:39:58Z</time>
      </trkpt>
      <trkpt lat="46.54812" lon="5.23046">
        <ele>212.8</ele>
        <time>2022-06-21T05:40:03Z</time>
      </trkpt>
      <trkpt lat="46.5479" lon="5.23026">
        <ele>213.8</ele>
        <time>2022-06-21T05:40:08Z</time>
      </trkpt>
      <trkpt lat="46.54776" lon="5.23012">
        <ele>214</ele>
        <time>2022-06-21T05:40:11Z</time>
      </trkpt>
      <trkpt lat="46.54741" lon="5.22976">
        <ele>214</ele>
        <time>2022-06-21T05:40:18Z</time>
      </trkpt>
      <trkpt lat="46.54696" lon="5.22937">
        <ele>213.6</ele>
        <time>2022-06-21T05:40:27Z</time>
      </trkpt>
      <trkpt lat="46.54691" lon="5.22934">
        <ele>213.6</ele>
        <time>2022-06-21T05:40:28Z</time>
      </trkpt>
      <trkpt lat="46.54648" lon="5.22912">
        <ele>214.6</ele>
        <time>2022-06-21T05:40:36Z</time>
      </trkpt>
      <trkpt lat="46.54623" lon="5.22899">
        <ele>214.8</ele>
        <time>2022-06-21T05:40:41Z</time>
      </trkpt>
      <trkpt lat="46.54598" lon="5.22885">
        <ele>215.4</ele>
        <time>2022-06-21T05:40:46Z</time>
      </trkpt>
      <trkpt lat="46.54551" lon="5.2286">
        <ele>216</ele>
        <time>2022-06-21T05:40:55Z</time>
      </trkpt>
      <trkpt lat="46.54545" lon="5.22856">
        <ele>216</ele>
        <time>2022-06-21T05:40:56Z</time>
      </trkpt>
      <trkpt lat="46.54535" lon="5.22849">
        <ele>216</ele>
        <time>2022-06-21T05:40:58Z</time>
      </trkpt>
      <trkpt lat="46.54524" lon="5.22839">
        <ele>216</ele>
        <time>2022-06-21T05:41:00Z</time>
      </trkpt>
      <trkpt lat="46.54519" lon="5.22833">
        <ele>216</ele>
        <time>2022-06-21T05:41:01Z</time>
      </trkpt>
      <trkpt lat="46.54515" lon="5.22826">
        <ele>216</ele>
        <time>2022-06-21T05:41:02Z</time>
      </trkpt>
      <trkpt lat="46.54496" lon="5.22788">
        <ele>216</ele>
        <time>2022-06-21T05:41:07Z</time>
      </trkpt>
      <trkpt lat="46.54459" lon="5.2272">
        <ele>216</ele>
        <time>2022-06-21T05:41:16Z</time>
      </trkpt>
      <trkpt lat="46.54418" lon="5.22676">
        <ele>215.8</ele>
        <time>2022-06-21T05:41:23Z</time>
      </trkpt>
      <trkpt lat="46.54374" lon="5.22632">
        <ele>215.2</ele>
        <time>2022-06-21T05:41:30Z</time>
      </trkpt>
      <trkpt lat="46.54368" lon="5.22626">
        <ele>215</ele>
        <time>2022-06-21T05:41:31Z</time>
      </trkpt>
      <trkpt lat="46.54322" lon="5.2258">
        <ele>214.6</ele>
        <time>2022-06-21T05:41:39Z</time>
      </trkpt>
      <trkpt lat="46.54316" lon="5.22574">
        <ele>214.6</ele>
        <time>2022-06-21T05:41:40Z</time>
      </trkpt>
      <trkpt lat="46.54282" lon="5.22539">
        <ele>214.6</ele>
        <time>2022-06-21T05:41:46Z</time>
      </trkpt>
      <trkpt lat="46.54274" lon="5.22523">
        <ele>214.6</ele>
        <time>2022-06-21T05:41:48Z</time>
      </trkpt>
      <trkpt lat="46.54269" lon="5.22503">
        <ele>214.4</ele>
        <time>2022-06-21T05:41:50Z</time>
      </trkpt>
      <trkpt lat="46.54268" lon="5.22493">
        <ele>214.4</ele>
        <time>2022-06-21T05:41:51Z</time>
      </trkpt>
      <trkpt lat="46.54268" lon="5.22482">
        <ele>214.4</ele>
        <time>2022-06-21T05:41:52Z</time>
      </trkpt>
      <trkpt lat="46.5427" lon="5.22436">
        <ele>214.4</ele>
        <time>2022-06-21T05:41:56Z</time>
      </trkpt>
      <trkpt lat="46.54272" lon="5.2237">
        <ele>214</ele>
        <time>2022-06-21T05:42:01Z</time>
      </trkpt>
      <trkpt lat="46.54273" lon="5.22357">
        <ele>213.8</ele>
        <time>2022-06-21T05:42:02Z</time>
      </trkpt>
      <trkpt lat="46.54275" lon="5.22313">
        <ele>212.6</ele>
        <time>2022-06-21T05:42:05Z</time>
      </trkpt>
      <trkpt lat="46.54276" lon="5.22268">
        <ele>211</ele>
        <time>2022-06-21T05:42:08Z</time>
      </trkpt>
      <trkpt lat="46.54278" lon="5.22224">
        <ele>209.6</ele>
        <time>2022-06-21T05:42:11Z</time>
      </trkpt>
      <trkpt lat="46.5428" lon="5.22169">
        <ele>208.6</ele>
        <time>2022-06-21T05:42:15Z</time>
      </trkpt>
      <trkpt lat="46.5428" lon="5.22143">
        <ele>208.4</ele>
        <time>2022-06-21T05:42:17Z</time>
      </trkpt>
      <trkpt lat="46.54275" lon="5.22119">
        <ele>208.2</ele>
        <time>2022-06-21T05:42:19Z</time>
      </trkpt>
      <trkpt lat="46.54272" lon="5.22107">
        <ele>208.2</ele>
        <time>2022-06-21T05:42:20Z</time>
      </trkpt>
      <trkpt lat="46.5425" lon="5.22058">
        <ele>208</ele>
        <time>2022-06-21T05:42:25Z</time>
      </trkpt>
      <trkpt lat="46.54226" lon="5.22012">
        <ele>208.4</ele>
        <time>2022-06-21T05:42:31Z</time>
      </trkpt>
      <trkpt lat="46.54205" lon="5.21973">
        <ele>209.2</ele>
        <time>2022-06-21T05:42:37Z</time>
      </trkpt>
      <trkpt lat="46.54201" lon="5.21965">
        <ele>209.6</ele>
        <time>2022-06-21T05:42:38Z</time>
      </trkpt>
      <trkpt lat="46.54198" lon="5.21958">
        <ele>209.8</ele>
        <time>2022-06-21T05:42:39Z</time>
      </trkpt>
      <trkpt lat="46.54187" lon="5.21934">
        <ele>210.4</ele>
        <time>2022-06-21T05:42:42Z</time>
      </trkpt>
      <trkpt lat="46.5418" lon="5.21917">
        <ele>210.6</ele>
        <time>2022-06-21T05:42:44Z</time>
      </trkpt>
      <trkpt lat="46.54166" lon="5.21872">
        <ele>211.6</ele>
        <time>2022-06-21T05:42:49Z</time>
      </trkpt>
      <trkpt lat="46.54163" lon="5.21864">
        <ele>211.8</ele>
        <time>2022-06-21T05:42:50Z</time>
      </trkpt>
      <trkpt lat="46.54145" lon="5.21808">
        <ele>212.6</ele>
        <time>2022-06-21T05:42:57Z</time>
      </trkpt>
      <trkpt lat="46.54128" lon="5.21753">
        <ele>212.4</ele>
        <time>2022-06-21T05:43:03Z</time>
      </trkpt>
      <trkpt lat="46.54108" lon="5.21689">
        <ele>211.8</ele>
        <time>2022-06-21T05:43:10Z</time>
      </trkpt>
      <trkpt lat="46.541" lon="5.21674">
        <ele>211.2</ele>
        <time>2022-06-21T05:43:12Z</time>
      </trkpt>
      <trkpt lat="46.54084" lon="5.21654">
        <ele>211</ele>
        <time>2022-06-21T05:43:15Z</time>
      </trkpt>
      <trkpt lat="46.54078" lon="5.21648">
        <ele>211</ele>
        <time>2022-06-21T05:43:16Z</time>
      </trkpt>
      <trkpt lat="46.54048" lon="5.21619">
        <ele>211.2</ele>
        <time>2022-06-21T05:43:21Z</time>
      </trkpt>
      <trkpt lat="46.54" lon="5.21571">
        <ele>211</ele>
        <time>2022-06-21T05:43:29Z</time>
      </trkpt>
      <trkpt lat="46.53995" lon="5.21565">
        <ele>211</ele>
        <time>2022-06-21T05:43:30Z</time>
      </trkpt>
      <trkpt lat="46.53958" lon="5.21528">
        <ele>211.2</ele>
        <time>2022-06-21T05:43:37Z</time>
      </trkpt>
      <trkpt lat="46.53917" lon="5.21485">
        <ele>211.6</ele>
        <time>2022-06-21T05:43:45Z</time>
      </trkpt>
      <trkpt lat="46.53913" lon="5.2148">
        <ele>211.6</ele>
        <time>2022-06-21T05:43:46Z</time>
      </trkpt>
      <trkpt lat="46.53895" lon="5.21452">
        <ele>211.6</ele>
        <time>2022-06-21T05:43:50Z</time>
      </trkpt>
      <trkpt lat="46.53858" lon="5.21396">
        <ele>211.8</ele>
        <time>2022-06-21T05:43:58Z</time>
      </trkpt>
      <trkpt lat="46.53833" lon="5.21354">
        <ele>212.2</ele>
        <time>2022-06-21T05:44:04Z</time>
      </trkpt>
      <trkpt lat="46.53803" lon="5.21306">
        <ele>212.6</ele>
        <time>2022-06-21T05:44:11Z</time>
      </trkpt>
      <trkpt lat="46.53799" lon="5.21299">
        <ele>212.8</ele>
        <time>2022-06-21T05:44:12Z</time>
      </trkpt>
      <trkpt lat="46.53773" lon="5.21263">
        <ele>213.4</ele>
        <time>2022-06-21T05:44:18Z</time>
      </trkpt>
      <trkpt lat="46.53753" lon="5.21242">
        <ele>213.6</ele>
        <time>2022-06-21T05:44:22Z</time>
      </trkpt>
      <trkpt lat="46.53748" lon="5.21236">
        <ele>213.8</ele>
        <time>2022-06-21T05:44:23Z</time>
      </trkpt>
      <trkpt lat="46.53726" lon="5.21209">
        <ele>213.8</ele>
        <time>2022-06-21T05:44:27Z</time>
      </trkpt>
      <trkpt lat="46.5372" lon="5.21205">
        <ele>213.8</ele>
        <time>2022-06-21T05:44:28Z</time>
      </trkpt>
      <trkpt lat="46.53709" lon="5.21194">
        <ele>213.8</ele>
        <time>2022-06-21T05:44:30Z</time>
      </trkpt>
      <trkpt lat="46.53692" lon="5.21173">
        <ele>213.6</ele>
        <time>2022-06-21T05:44:33Z</time>
      </trkpt>
      <trkpt lat="46.53658" lon="5.21136">
        <ele>213</ele>
        <time>2022-06-21T05:44:39Z</time>
      </trkpt>
      <trkpt lat="46.53623" lon="5.21098">
        <ele>212.8</ele>
        <time>2022-06-21T05:44:45Z</time>
      </trkpt>
      <trkpt lat="46.53613" lon="5.21083">
        <ele>212.6</ele>
        <time>2022-06-21T05:44:47Z</time>
      </trkpt>
      <trkpt lat="46.53601" lon="5.21058">
        <ele>212.2</ele>
        <time>2022-06-21T05:44:50Z</time>
      </trkpt>
      <trkpt lat="46.53591" lon="5.21031">
        <ele>212.2</ele>
        <time>2022-06-21T05:44:53Z</time>
      </trkpt>
      <trkpt lat="46.5359" lon="5.21021">
        <ele>212.2</ele>
        <time>2022-06-21T05:44:54Z</time>
      </trkpt>
      <trkpt lat="46.5359" lon="5.21011">
        <ele>212.2</ele>
        <time>2022-06-21T05:44:55Z</time>
      </trkpt>
      <trkpt lat="46.53593" lon="5.20969">
        <ele>212.2</ele>
        <time>2022-06-21T05:44:59Z</time>
      </trkpt>
      <trkpt lat="46.5359" lon="5.20917">
        <ele>212.4</ele>
        <time>2022-06-21T05:45:04Z</time>
      </trkpt>
      <trkpt lat="46.53579" lon="5.20855">
        <ele>212.4</ele>
        <time>2022-06-21T05:45:10Z</time>
      </trkpt>
      <trkpt lat="46.53572" lon="5.20837">
        <ele>212.4</ele>
        <time>2022-06-21T05:45:12Z</time>
      </trkpt>
      <trkpt lat="46.53562" lon="5.20822">
        <ele>212.4</ele>
        <time>2022-06-21T05:45:14Z</time>
      </trkpt>
      <trkpt lat="46.53555" lon="5.20816">
        <ele>212.2</ele>
        <time>2022-06-21T05:45:15Z</time>
      </trkpt>
      <trkpt lat="46.53537" lon="5.20801">
        <ele>212.2</ele>
        <time>2022-06-21T05:45:18Z</time>
      </trkpt>
      <trkpt lat="46.5351" lon="5.20783">
        <ele>211.8</ele>
        <time>2022-06-21T05:45:22Z</time>
      </trkpt>
      <trkpt lat="46.53486" lon="5.20759">
        <ele>211.6</ele>
        <time>2022-06-21T05:45:26Z</time>
      </trkpt>
      <trkpt lat="46.53469" lon="5.20738">
        <ele>211.4</ele>
        <time>2022-06-21T05:45:29Z</time>
      </trkpt>
      <trkpt lat="46.53446" lon="5.20711">
        <ele>210.4</ele>
        <time>2022-06-21T05:45:33Z</time>
      </trkpt>
      <trkpt lat="46.53435" lon="5.20698">
        <ele>210.2</ele>
        <time>2022-06-21T05:45:35Z</time>
      </trkpt>
      <trkpt lat="46.53409" lon="5.20669">
        <ele>209.6</ele>
        <time>2022-06-21T05:45:40Z</time>
      </trkpt>
      <trkpt lat="46.53405" lon="5.20666">
        <ele>209.4</ele>
        <time>2022-06-21T05:45:41Z</time>
      </trkpt>
      <trkpt lat="46.534" lon="5.20665">
        <ele>209.2</ele>
        <time>2022-06-21T05:45:42Z</time>
      </trkpt>
      <trkpt lat="46.53392" lon="5.20672">
        <ele>208.8</ele>
        <time>2022-06-21T05:45:44Z</time>
      </trkpt>
      <trkpt lat="46.53385" lon="5.20686">
        <ele>208.6</ele>
        <time>2022-06-21T05:45:46Z</time>
      </trkpt>
      <trkpt lat="46.53379" lon="5.20702">
        <ele>208.4</ele>
        <time>2022-06-21T05:45:48Z</time>
      </trkpt>
      <trkpt lat="46.53371" lon="5.20718">
        <ele>208.4</ele>
        <time>2022-06-21T05:45:50Z</time>
      </trkpt>
      <trkpt lat="46.53362" lon="5.20734">
        <ele>208.2</ele>
        <time>2022-06-21T05:45:52Z</time>
      </trkpt>
      <trkpt lat="46.53351" lon="5.20749">
        <ele>208.2</ele>
        <time>2022-06-21T05:45:54Z</time>
      </trkpt>
      <trkpt lat="46.53334" lon="5.20768">
        <ele>208.4</ele>
        <time>2022-06-21T05:45:57Z</time>
      </trkpt>
      <trkpt lat="46.53288" lon="5.20799">
        <ele>208.6</ele>
        <time>2022-06-21T05:46:04Z</time>
      </trkpt>
      <trkpt lat="46.53263" lon="5.20813">
        <ele>208.6</ele>
        <time>2022-06-21T05:46:08Z</time>
      </trkpt>
      <trkpt lat="46.53243" lon="5.20818">
        <ele>208.8</ele>
        <time>2022-06-21T05:46:11Z</time>
      </trkpt>
      <trkpt lat="46.53196" lon="5.20827">
        <ele>209.2</ele>
        <time>2022-06-21T05:46:18Z</time>
      </trkpt>
      <trkpt lat="46.5319" lon="5.20829">
        <ele>209.2</ele>
        <time>2022-06-21T05:46:19Z</time>
      </trkpt>
      <trkpt lat="46.53177" lon="5.20837">
        <ele>209.2</ele>
        <time>2022-06-21T05:46:21Z</time>
      </trkpt>
      <trkpt lat="46.53151" lon="5.20858">
        <ele>209.2</ele>
        <time>2022-06-21T05:46:25Z</time>
      </trkpt>
      <trkpt lat="46.53127" lon="5.20886">
        <ele>208.6</ele>
        <time>2022-06-21T05:46:29Z</time>
      </trkpt>
      <trkpt lat="46.53087" lon="5.20946">
        <ele>207.8</ele>
        <time>2022-06-21T05:46:36Z</time>
      </trkpt>
      <trkpt lat="46.5307" lon="5.20971">
        <ele>207.2</ele>
        <time>2022-06-21T05:46:39Z</time>
      </trkpt>
      <trkpt lat="46.5305" lon="5.20991">
        <ele>207</ele>
        <time>2022-06-21T05:46:42Z</time>
      </trkpt>
      <trkpt lat="46.53044" lon="5.20997">
        <ele>207</ele>
        <time>2022-06-21T05:46:43Z</time>
      </trkpt>
      <trkpt lat="46.53022" lon="5.21009">
        <ele>206.8</ele>
        <time>2022-06-21T05:46:46Z</time>
      </trkpt>
      <trkpt lat="46.52967" lon="5.21036">
        <ele>206.6</ele>
        <time>2022-06-21T05:46:54Z</time>
      </trkpt>
      <trkpt lat="46.52925" lon="5.21061">
        <ele>206.8</ele>
        <time>2022-06-21T05:47:01Z</time>
      </trkpt>
      <trkpt lat="46.52871" lon="5.21087">
        <ele>207</ele>
        <time>2022-06-21T05:47:09Z</time>
      </trkpt>
      <trkpt lat="46.52813" lon="5.21109">
        <ele>206.8</ele>
        <time>2022-06-21T05:47:17Z</time>
      </trkpt>
      <trkpt lat="46.52757" lon="5.21124">
        <ele>206.6</ele>
        <time>2022-06-21T05:47:25Z</time>
      </trkpt>
      <trkpt lat="46.52704" lon="5.21137">
        <ele>206.8</ele>
        <time>2022-06-21T05:47:33Z</time>
      </trkpt>
      <trkpt lat="46.5269" lon="5.21141">
        <ele>207</ele>
        <time>2022-06-21T05:47:35Z</time>
      </trkpt>
      <trkpt lat="46.52634" lon="5.21155">
        <ele>207.2</ele>
        <time>2022-06-21T05:47:44Z</time>
      </trkpt>
      <trkpt lat="46.52607" lon="5.21163">
        <ele>207.6</ele>
        <time>2022-06-21T05:47:49Z</time>
      </trkpt>
      <trkpt lat="46.52603" lon="5.21166">
        <ele>207.6</ele>
        <time>2022-06-21T05:47:50Z</time>
      </trkpt>
      <trkpt lat="46.526" lon="5.21171">
        <ele>207.8</ele>
        <time>2022-06-21T05:47:51Z</time>
      </trkpt>
      <trkpt lat="46.52597" lon="5.21186">
        <ele>207.8</ele>
        <time>2022-06-21T05:47:53Z</time>
      </trkpt>
      <trkpt lat="46.52602" lon="5.21219">
        <ele>208</ele>
        <time>2022-06-21T05:47:57Z</time>
      </trkpt>
      <trkpt lat="46.52609" lon="5.21268">
        <ele>208.8</ele>
        <time>2022-06-21T05:48:03Z</time>
      </trkpt>
      <trkpt lat="46.52613" lon="5.21293">
        <ele>209</ele>
        <time>2022-06-21T05:48:06Z</time>
      </trkpt>
      <trkpt lat="46.5262" lon="5.21333">
        <ele>209.8</ele>
        <time>2022-06-21T05:48:11Z</time>
      </trkpt>
      <trkpt lat="46.52627" lon="5.21374">
        <ele>210.8</ele>
        <time>2022-06-21T05:48:16Z</time>
      </trkpt>
      <trkpt lat="46.52628" lon="5.21382">
        <ele>211</ele>
        <time>2022-06-21T05:48:17Z</time>
      </trkpt>
      <trkpt lat="46.52639" lon="5.21453">
        <ele>211.6</ele>
        <time>2022-06-21T05:48:25Z</time>
      </trkpt>
      <trkpt lat="46.52644" lon="5.2148">
        <ele>212.2</ele>
        <time>2022-06-21T05:48:28Z</time>
      </trkpt>
      <trkpt lat="46.52654" lon="5.21542">
        <ele>212.4</ele>
        <time>2022-06-21T05:48:35Z</time>
      </trkpt>
      <trkpt lat="46.52667" lon="5.21625">
        <ele>212.6</ele>
        <time>2022-06-21T05:48:44Z</time>
      </trkpt>
      <trkpt lat="46.52681" lon="5.21709">
        <ele>212.8</ele>
        <time>2022-06-21T05:48:53Z</time>
      </trkpt>
      <trkpt lat="46.52693" lon="5.21787">
        <ele>213</ele>
        <time>2022-06-21T05:49:01Z</time>
      </trkpt>
      <trkpt lat="46.52696" lon="5.21806">
        <ele>213.2</ele>
        <time>2022-06-21T05:49:03Z</time>
      </trkpt>
      <trkpt lat="46.52697" lon="5.21816">
        <ele>213.2</ele>
        <time>2022-06-21T05:49:04Z</time>
      </trkpt>
      <trkpt lat="46.52709" lon="5.21885">
        <ele>213.2</ele>
        <time>2022-06-21T05:49:11Z</time>
      </trkpt>
      <trkpt lat="46.52723" lon="5.21966">
        <ele>212.8</ele>
        <time>2022-06-21T05:49:19Z</time>
      </trkpt>
      <trkpt lat="46.52724" lon="5.21977">
        <ele>212.8</ele>
        <time>2022-06-21T05:49:20Z</time>
      </trkpt>
      <trkpt lat="46.52729" lon="5.22042">
        <ele>212</ele>
        <time>2022-06-21T05:49:26Z</time>
      </trkpt>
      <trkpt lat="46.52729" lon="5.22054">
        <ele>212</ele>
        <time>2022-06-21T05:49:27Z</time>
      </trkpt>
      <trkpt lat="46.52718" lon="5.22115">
        <ele>211.2</ele>
        <time>2022-06-21T05:49:32Z</time>
      </trkpt>
      <trkpt lat="46.52714" lon="5.22128">
        <ele>210.8</ele>
        <time>2022-06-21T05:49:33Z</time>
      </trkpt>
      <trkpt lat="46.52704" lon="5.22168">
        <ele>209.8</ele>
        <time>2022-06-21T05:49:36Z</time>
      </trkpt>
      <trkpt lat="46.52698" lon="5.22196">
        <ele>208.6</ele>
        <time>2022-06-21T05:49:38Z</time>
      </trkpt>
      <trkpt lat="46.52691" lon="5.22224">
        <ele>207.4</ele>
        <time>2022-06-21T05:49:40Z</time>
      </trkpt>
      <trkpt lat="46.52684" lon="5.22252">
        <ele>206.2</ele>
        <time>2022-06-21T05:49:42Z</time>
      </trkpt>
      <trkpt lat="46.52677" lon="5.2228">
        <ele>205.4</ele>
        <time>2022-06-21T05:49:44Z</time>
      </trkpt>
      <trkpt lat="46.52674" lon="5.22294">
        <ele>205.2</ele>
        <time>2022-06-21T05:49:45Z</time>
      </trkpt>
      <trkpt lat="46.52663" lon="5.22337">
        <ele>203.8</ele>
        <time>2022-06-21T05:49:48Z</time>
      </trkpt>
      <trkpt lat="46.52653" lon="5.22378">
        <ele>202.8</ele>
        <time>2022-06-21T05:49:51Z</time>
      </trkpt>
      <trkpt lat="46.5265" lon="5.22392">
        <ele>202.4</ele>
        <time>2022-06-21T05:49:52Z</time>
      </trkpt>
      <trkpt lat="46.52637" lon="5.22443">
        <ele>201.6</ele>
        <time>2022-06-21T05:49:56Z</time>
      </trkpt>
      <trkpt lat="46.52634" lon="5.22456">
        <ele>201.6</ele>
        <time>2022-06-21T05:49:57Z</time>
      </trkpt>
      <trkpt lat="46.52623" lon="5.22513">
        <ele>201</ele>
        <time>2022-06-21T05:50:02Z</time>
      </trkpt>
      <trkpt lat="46.52619" lon="5.22539">
        <ele>201</ele>
        <time>2022-06-21T05:50:06Z</time>
      </trkpt>
      <trkpt lat="46.52617" lon="5.22543">
        <ele>201</ele>
        <time>2022-06-21T05:50:09Z</time>
      </trkpt>
      <trkpt lat="46.52617" lon="5.22544">
        <ele>201</ele>
        <time>2022-06-21T05:50:10Z</time>
      </trkpt>
      <trkpt lat="46.52617" lon="5.22544">
        <ele>201</ele>
        <time>2022-06-21T05:50:11Z</time>
      </trkpt>
      <trkpt lat="46.52618" lon="5.22546">
        <ele>200.6</ele>
        <time>2022-06-21T05:51:39Z</time>
      </trkpt>
      <trkpt lat="46.52618" lon="5.22555">
        <ele>200.8</ele>
        <time>2022-06-21T05:51:41Z</time>
      </trkpt>
      <trkpt lat="46.52616" lon="5.22583">
        <ele>200.8</ele>
        <time>2022-06-21T05:51:45Z</time>
      </trkpt>
      <trkpt lat="46.52613" lon="5.22621">
        <ele>201</ele>
        <time>2022-06-21T05:51:49Z</time>
      </trkpt>
      <trkpt lat="46.52613" lon="5.22696">
        <ele>201.4</ele>
        <time>2022-06-21T05:51:56Z</time>
      </trkpt>
      <trkpt lat="46.52611" lon="5.22779">
        <ele>201.6</ele>
        <time>2022-06-21T05:52:04Z</time>
      </trkpt>
      <trkpt lat="46.52611" lon="5.22798">
        <ele>201.8</ele>
        <time>2022-06-21T05:52:06Z</time>
      </trkpt>
      <trkpt lat="46.5261" lon="5.22877">
        <ele>202</ele>
        <time>2022-06-21T05:52:14Z</time>
      </trkpt>
      <trkpt lat="46.52609" lon="5.22948">
        <ele>202.8</ele>
        <time>2022-06-21T05:52:22Z</time>
      </trkpt>
      <trkpt lat="46.52609" lon="5.22956">
        <ele>203</ele>
        <time>2022-06-21T05:52:23Z</time>
      </trkpt>
      <trkpt lat="46.52608" lon="5.22987">
        <ele>203.8</ele>
        <time>2022-06-21T05:52:27Z</time>
      </trkpt>
      <trkpt lat="46.52607" lon="5.23017">
        <ele>204.4</ele>
        <time>2022-06-21T05:52:31Z</time>
      </trkpt>
      <trkpt lat="46.52606" lon="5.23038">
        <ele>204.8</ele>
        <time>2022-06-21T05:52:34Z</time>
      </trkpt>
      <trkpt lat="46.52602" lon="5.23058">
        <ele>206</ele>
        <time>2022-06-21T05:52:37Z</time>
      </trkpt>
      <trkpt lat="46.526" lon="5.23064">
        <ele>206</ele>
        <time>2022-06-21T05:52:38Z</time>
      </trkpt>
      <trkpt lat="46.5259" lon="5.2309">
        <ele>207</ele>
        <time>2022-06-21T05:52:42Z</time>
      </trkpt>
      <trkpt lat="46.52581" lon="5.23108">
        <ele>207.6</ele>
        <time>2022-06-21T05:52:45Z</time>
      </trkpt>
      <trkpt lat="46.52575" lon="5.23121">
        <ele>208.2</ele>
        <time>2022-06-21T05:52:47Z</time>
      </trkpt>
      <trkpt lat="46.52563" lon="5.23146">
        <ele>209.2</ele>
        <time>2022-06-21T05:52:51Z</time>
      </trkpt>
      <trkpt lat="46.5256" lon="5.23152">
        <ele>209.4</ele>
        <time>2022-06-21T05:52:52Z</time>
      </trkpt>
      <trkpt lat="46.52547" lon="5.23182">
        <ele>210.6</ele>
        <time>2022-06-21T05:52:57Z</time>
      </trkpt>
      <trkpt lat="46.52532" lon="5.23215">
        <ele>211.8</ele>
        <time>2022-06-21T05:53:03Z</time>
      </trkpt>
      <trkpt lat="46.5253" lon="5.23221">
        <ele>212.2</ele>
        <time>2022-06-21T05:53:04Z</time>
      </trkpt>
      <trkpt lat="46.52516" lon="5.23251">
        <ele>212.8</ele>
        <time>2022-06-21T05:53:09Z</time>
      </trkpt>
      <trkpt lat="46.52509" lon="5.23272">
        <ele>213.2</ele>
        <time>2022-06-21T05:53:12Z</time>
      </trkpt>
      <trkpt lat="46.52492" lon="5.23316">
        <ele>213.8</ele>
        <time>2022-06-21T05:53:18Z</time>
      </trkpt>
      <trkpt lat="46.52483" lon="5.23339">
        <ele>214.2</ele>
        <time>2022-06-21T05:53:21Z</time>
      </trkpt>
      <trkpt lat="46.52454" lon="5.23407">
        <ele>214.4</ele>
        <time>2022-06-21T05:53:30Z</time>
      </trkpt>
      <trkpt lat="46.52451" lon="5.23415">
        <ele>214.4</ele>
        <time>2022-06-21T05:53:31Z</time>
      </trkpt>
      <trkpt lat="46.52424" lon="5.23481">
        <ele>214</ele>
        <time>2022-06-21T05:53:39Z</time>
      </trkpt>
      <trkpt lat="46.52419" lon="5.23499">
        <ele>214</ele>
        <time>2022-06-21T05:53:41Z</time>
      </trkpt>
      <trkpt lat="46.52417" lon="5.23509">
        <ele>214</ele>
        <time>2022-06-21T05:53:42Z</time>
      </trkpt>
      <trkpt lat="46.52416" lon="5.23529">
        <ele>213.8</ele>
        <time>2022-06-21T05:53:44Z</time>
      </trkpt>
      <trkpt lat="46.52417" lon="5.2354">
        <ele>213.8</ele>
        <time>2022-06-21T05:53:45Z</time>
      </trkpt>
      <trkpt lat="46.52427" lon="5.2359">
        <ele>213.8</ele>
        <time>2022-06-21T05:53:50Z</time>
      </trkpt>
      <trkpt lat="46.52448" lon="5.23672">
        <ele>213.4</ele>
        <time>2022-06-21T05:53:58Z</time>
      </trkpt>
      <trkpt lat="46.5245" lon="5.23682">
        <ele>213.2</ele>
        <time>2022-06-21T05:53:59Z</time>
      </trkpt>
      <trkpt lat="46.52469" lon="5.23757">
        <ele>213.4</ele>
        <time>2022-06-21T05:54:07Z</time>
      </trkpt>
      <trkpt lat="46.52471" lon="5.23766">
        <ele>213.4</ele>
        <time>2022-06-21T05:54:08Z</time>
      </trkpt>
      <trkpt lat="46.52488" lon="5.2383">
        <ele>213.8</ele>
        <time>2022-06-21T05:54:15Z</time>
      </trkpt>
      <trkpt lat="46.52499" lon="5.23887">
        <ele>214.2</ele>
        <time>2022-06-21T05:54:21Z</time>
      </trkpt>
      <trkpt lat="46.52499" lon="5.23937">
        <ele>214.6</ele>
        <time>2022-06-21T05:54:26Z</time>
      </trkpt>
      <trkpt lat="46.52494" lon="5.23976">
        <ele>215</ele>
        <time>2022-06-21T05:54:30Z</time>
      </trkpt>
      <trkpt lat="46.52492" lon="5.23995">
        <ele>215.2</ele>
        <time>2022-06-21T05:54:32Z</time>
      </trkpt>
      <trkpt lat="46.5249" lon="5.24004">
        <ele>215.2</ele>
        <time>2022-06-21T05:54:33Z</time>
      </trkpt>
      <trkpt lat="46.52482" lon="5.24059">
        <ele>215.2</ele>
        <time>2022-06-21T05:54:39Z</time>
      </trkpt>
      <trkpt lat="46.52479" lon="5.24084">
        <ele>215.4</ele>
        <time>2022-06-21T05:54:42Z</time>
      </trkpt>
      <trkpt lat="46.52473" lon="5.24107">
        <ele>215.4</ele>
        <time>2022-06-21T05:54:45Z</time>
      </trkpt>
      <trkpt lat="46.52471" lon="5.24112">
        <ele>215.4</ele>
        <time>2022-06-21T05:54:46Z</time>
      </trkpt>
      <trkpt lat="46.52468" lon="5.24117">
        <ele>215.4</ele>
        <time>2022-06-21T05:54:48Z</time>
      </trkpt>
      <trkpt lat="46.52467" lon="5.24118">
        <ele>215.4</ele>
        <time>2022-06-21T05:54:49Z</time>
      </trkpt>
      <trkpt lat="46.52458" lon="5.24117">
        <ele>215.4</ele>
        <time>2022-06-21T05:54:52Z</time>
      </trkpt>
      <trkpt lat="46.52437" lon="5.24112">
        <ele>215.2</ele>
        <time>2022-06-21T05:54:56Z</time>
      </trkpt>
      <trkpt lat="46.52393" lon="5.24102">
        <ele>215.2</ele>
        <time>2022-06-21T05:55:03Z</time>
      </trkpt>
      <trkpt lat="46.52374" lon="5.24096">
        <ele>215.2</ele>
        <time>2022-06-21T05:55:06Z</time>
      </trkpt>
      <trkpt lat="46.52362" lon="5.24087">
        <ele>215.4</ele>
        <time>2022-06-21T05:55:08Z</time>
      </trkpt>
      <trkpt lat="46.52353" lon="5.24061">
        <ele>215.2</ele>
        <time>2022-06-21T05:55:11Z</time>
      </trkpt>
      <trkpt lat="46.52324" lon="5.23987">
        <ele>215</ele>
        <time>2022-06-21T05:55:20Z</time>
      </trkpt>
      <trkpt lat="46.5232" lon="5.23979">
        <ele>215</ele>
        <time>2022-06-21T05:55:21Z</time>
      </trkpt>
      <trkpt lat="46.52288" lon="5.23905">
        <ele>214.8</ele>
        <time>2022-06-21T05:55:30Z</time>
      </trkpt>
      <trkpt lat="46.52284" lon="5.23897">
        <ele>214.8</ele>
        <time>2022-06-21T05:55:31Z</time>
      </trkpt>
      <trkpt lat="46.52244" lon="5.23833">
        <ele>215.4</ele>
        <time>2022-06-21T05:55:40Z</time>
      </trkpt>
      <trkpt lat="46.52235" lon="5.23819">
        <ele>215.4</ele>
        <time>2022-06-21T05:55:42Z</time>
      </trkpt>
      <trkpt lat="46.52196" lon="5.23756">
        <ele>215.4</ele>
        <time>2022-06-21T05:55:50Z</time>
      </trkpt>
      <trkpt lat="46.52158" lon="5.237">
        <ele>215.2</ele>
        <time>2022-06-21T05:55:57Z</time>
      </trkpt>
      <trkpt lat="46.52142" lon="5.23679">
        <ele>215.2</ele>
        <time>2022-06-21T05:56:00Z</time>
      </trkpt>
      <trkpt lat="46.52128" lon="5.23669">
        <ele>215.2</ele>
        <time>2022-06-21T05:56:02Z</time>
      </trkpt>
      <trkpt lat="46.52113" lon="5.23663">
        <ele>215.2</ele>
        <time>2022-06-21T05:56:04Z</time>
      </trkpt>
      <trkpt lat="46.52097" lon="5.23662">
        <ele>215.4</ele>
        <time>2022-06-21T05:56:06Z</time>
      </trkpt>
      <trkpt lat="46.52037" lon="5.23673">
        <ele>215.4</ele>
        <time>2022-06-21T05:56:14Z</time>
      </trkpt>
      <trkpt lat="46.51986" lon="5.23687">
        <ele>215.4</ele>
        <time>2022-06-21T05:56:21Z</time>
      </trkpt>
      <trkpt lat="46.51941" lon="5.23695">
        <ele>215.2</ele>
        <time>2022-06-21T05:56:27Z</time>
      </trkpt>
      <trkpt lat="46.51881" lon="5.237">
        <ele>214.4</ele>
        <time>2022-06-21T05:56:35Z</time>
      </trkpt>
      <trkpt lat="46.51874" lon="5.23701">
        <ele>214.4</ele>
        <time>2022-06-21T05:56:36Z</time>
      </trkpt>
      <trkpt lat="46.51824" lon="5.23709">
        <ele>214.8</ele>
        <time>2022-06-21T05:56:43Z</time>
      </trkpt>
      <trkpt lat="46.51768" lon="5.23718">
        <ele>214.8</ele>
        <time>2022-06-21T05:56:51Z</time>
      </trkpt>
      <trkpt lat="46.51712" lon="5.23728">
        <ele>215.4</ele>
        <time>2022-06-21T05:56:59Z</time>
      </trkpt>
      <trkpt lat="46.51698" lon="5.2373">
        <ele>215.4</ele>
        <time>2022-06-21T05:57:01Z</time>
      </trkpt>
      <trkpt lat="46.51644" lon="5.23734">
        <ele>215.6</ele>
        <time>2022-06-21T05:57:09Z</time>
      </trkpt>
      <trkpt lat="46.51599" lon="5.23723">
        <ele>215.8</ele>
        <time>2022-06-21T05:57:16Z</time>
      </trkpt>
      <trkpt lat="46.51542" lon="5.23704">
        <ele>216</ele>
        <time>2022-06-21T05:57:25Z</time>
      </trkpt>
      <trkpt lat="46.5151" lon="5.23692">
        <ele>216.2</ele>
        <time>2022-06-21T05:57:30Z</time>
      </trkpt>
      <trkpt lat="46.51485" lon="5.23682">
        <ele>216.4</ele>
        <time>2022-06-21T05:57:34Z</time>
      </trkpt>
      <trkpt lat="46.51426" lon="5.23664">
        <ele>216.6</ele>
        <time>2022-06-21T05:57:43Z</time>
      </trkpt>
      <trkpt lat="46.51387" lon="5.23648">
        <ele>217</ele>
        <time>2022-06-21T05:57:49Z</time>
      </trkpt>
      <trkpt lat="46.51375" lon="5.23638">
        <ele>217</ele>
        <time>2022-06-21T05:57:51Z</time>
      </trkpt>
      <trkpt lat="46.51358" lon="5.23621">
        <ele>217.2</ele>
        <time>2022-06-21T05:57:54Z</time>
      </trkpt>
      <trkpt lat="46.51347" lon="5.23607">
        <ele>217.4</ele>
        <time>2022-06-21T05:57:56Z</time>
      </trkpt>
      <trkpt lat="46.51302" lon="5.2355">
        <ele>217.4</ele>
        <time>2022-06-21T05:58:04Z</time>
      </trkpt>
      <trkpt lat="46.51291" lon="5.23536">
        <ele>217.4</ele>
        <time>2022-06-21T05:58:06Z</time>
      </trkpt>
      <trkpt lat="46.51245" lon="5.23479">
        <ele>217.2</ele>
        <time>2022-06-21T05:58:14Z</time>
      </trkpt>
      <trkpt lat="46.51198" lon="5.23421">
        <ele>216.6</ele>
        <time>2022-06-21T05:58:22Z</time>
      </trkpt>
      <trkpt lat="46.51157" lon="5.23369">
        <ele>216.6</ele>
        <time>2022-06-21T05:58:29Z</time>
      </trkpt>
      <trkpt lat="46.51146" lon="5.23355">
        <ele>216.6</ele>
        <time>2022-06-21T05:58:31Z</time>
      </trkpt>
      <trkpt lat="46.51102" lon="5.233">
        <ele>217</ele>
        <time>2022-06-21T05:58:39Z</time>
      </trkpt>
      <trkpt lat="46.51063" lon="5.23261">
        <ele>217.6</ele>
        <time>2022-06-21T05:58:46Z</time>
      </trkpt>
      <trkpt lat="46.51029" lon="5.23234">
        <ele>218</ele>
        <time>2022-06-21T05:58:52Z</time>
      </trkpt>
      <trkpt lat="46.51012" lon="5.2322">
        <ele>218.2</ele>
        <time>2022-06-21T05:58:55Z</time>
      </trkpt>
      <trkpt lat="46.50966" lon="5.23184">
        <ele>219</ele>
        <time>2022-06-21T05:59:03Z</time>
      </trkpt>
      <trkpt lat="46.50955" lon="5.23177">
        <ele>219</ele>
        <time>2022-06-21T05:59:05Z</time>
      </trkpt>
      <trkpt lat="46.50922" lon="5.23163">
        <ele>219.4</ele>
        <time>2022-06-21T05:59:10Z</time>
      </trkpt>
      <trkpt lat="46.50865" lon="5.23142">
        <ele>219.4</ele>
        <time>2022-06-21T05:59:18Z</time>
      </trkpt>
      <trkpt lat="46.50823" lon="5.23117">
        <ele>219.6</ele>
        <time>2022-06-21T05:59:24Z</time>
      </trkpt>
      <trkpt lat="46.50787" lon="5.23081">
        <ele>219.4</ele>
        <time>2022-06-21T05:59:30Z</time>
      </trkpt>
      <trkpt lat="46.50747" lon="5.23022">
        <ele>219.6</ele>
        <time>2022-06-21T05:59:38Z</time>
      </trkpt>
      <trkpt lat="46.50742" lon="5.23015">
        <ele>219.6</ele>
        <time>2022-06-21T05:59:39Z</time>
      </trkpt>
      <trkpt lat="46.507" lon="5.22952">
        <ele>219.8</ele>
        <time>2022-06-21T05:59:47Z</time>
      </trkpt>
      <trkpt lat="46.50659" lon="5.22894">
        <ele>220</ele>
        <time>2022-06-21T05:59:55Z</time>
      </trkpt>
      <trkpt lat="46.50647" lon="5.22877">
        <ele>220.2</ele>
        <time>2022-06-21T05:59:57Z</time>
      </trkpt>
      <trkpt lat="46.50643" lon="5.22871">
        <ele>220.2</ele>
        <time>2022-06-21T05:59:58Z</time>
      </trkpt>
      <trkpt lat="46.50613" lon="5.22838">
        <ele>220.2</ele>
        <time>2022-06-21T06:00:03Z</time>
      </trkpt>
      <trkpt lat="46.50568" lon="5.22797">
        <ele>220.2</ele>
        <time>2022-06-21T06:00:10Z</time>
      </trkpt>
      <trkpt lat="46.50525" lon="5.22774">
        <ele>220</ele>
        <time>2022-06-21T06:00:16Z</time>
      </trkpt>
      <trkpt lat="46.50471" lon="5.22762">
        <ele>219.4</ele>
        <time>2022-06-21T06:00:23Z</time>
      </trkpt>
      <trkpt lat="46.50417" lon="5.22753">
        <ele>219.2</ele>
        <time>2022-06-21T06:00:31Z</time>
      </trkpt>
      <trkpt lat="46.50376" lon="5.22746">
        <ele>219.2</ele>
        <time>2022-06-21T06:00:37Z</time>
      </trkpt>
      <trkpt lat="46.50355" lon="5.22743">
        <ele>219.2</ele>
        <time>2022-06-21T06:00:40Z</time>
      </trkpt>
      <trkpt lat="46.50295" lon="5.22742">
        <ele>220</ele>
        <time>2022-06-21T06:00:49Z</time>
      </trkpt>
      <trkpt lat="46.50282" lon="5.22743">
        <ele>220.2</ele>
        <time>2022-06-21T06:00:51Z</time>
      </trkpt>
      <trkpt lat="46.50237" lon="5.2275">
        <ele>220.6</ele>
        <time>2022-06-21T06:00:58Z</time>
      </trkpt>
      <trkpt lat="46.50198" lon="5.22752">
        <ele>220.8</ele>
        <time>2022-06-21T06:01:04Z</time>
      </trkpt>
      <trkpt lat="46.5016" lon="5.22736">
        <ele>220.8</ele>
        <time>2022-06-21T06:01:10Z</time>
      </trkpt>
      <trkpt lat="46.50105" lon="5.22706">
        <ele>220.2</ele>
        <time>2022-06-21T06:01:19Z</time>
      </trkpt>
      <trkpt lat="46.50098" lon="5.22704">
        <ele>220.2</ele>
        <time>2022-06-21T06:01:20Z</time>
      </trkpt>
      <trkpt lat="46.50071" lon="5.22698">
        <ele>219.8</ele>
        <time>2022-06-21T06:01:24Z</time>
      </trkpt>
      <trkpt lat="46.50032" lon="5.22705">
        <ele>219.2</ele>
        <time>2022-06-21T06:01:29Z</time>
      </trkpt>
      <trkpt lat="46.50024" lon="5.22707">
        <ele>219</ele>
        <time>2022-06-21T06:01:30Z</time>
      </trkpt>
      <trkpt lat="46.49981" lon="5.22717">
        <ele>218.2</ele>
        <time>2022-06-21T06:01:35Z</time>
      </trkpt>
      <trkpt lat="46.49972" lon="5.22719">
        <ele>217.8</ele>
        <time>2022-06-21T06:01:36Z</time>
      </trkpt>
      <trkpt lat="46.49943" lon="5.22724">
        <ele>216.6</ele>
        <time>2022-06-21T06:01:39Z</time>
      </trkpt>
      <trkpt lat="46.49915" lon="5.22728">
        <ele>215.8</ele>
        <time>2022-06-21T06:01:42Z</time>
      </trkpt>
      <trkpt lat="46.49896" lon="5.2273">
        <ele>215.4</ele>
        <time>2022-06-21T06:01:44Z</time>
      </trkpt>
      <trkpt lat="46.49859" lon="5.22734">
        <ele>214.4</ele>
        <time>2022-06-21T06:01:48Z</time>
      </trkpt>
      <trkpt lat="46.49814" lon="5.22739">
        <ele>213.6</ele>
        <time>2022-06-21T06:01:53Z</time>
      </trkpt>
      <trkpt lat="46.49797" lon="5.22741">
        <ele>213.2</ele>
        <time>2022-06-21T06:01:55Z</time>
      </trkpt>
      <trkpt lat="46.49761" lon="5.22746">
        <ele>212.2</ele>
        <time>2022-06-21T06:01:59Z</time>
      </trkpt>
      <trkpt lat="46.49736" lon="5.22749">
        <ele>211.2</ele>
        <time>2022-06-21T06:02:02Z</time>
      </trkpt>
      <trkpt lat="46.49727" lon="5.2275">
        <ele>211.2</ele>
        <time>2022-06-21T06:02:03Z</time>
      </trkpt>
      <trkpt lat="46.49689" lon="5.22754">
        <ele>209.8</ele>
        <time>2022-06-21T06:02:07Z</time>
      </trkpt>
      <trkpt lat="46.49652" lon="5.22758">
        <ele>208.8</ele>
        <time>2022-06-21T06:02:11Z</time>
      </trkpt>
      <trkpt lat="46.49621" lon="5.2276">
        <ele>207.8</ele>
        <time>2022-06-21T06:02:14Z</time>
      </trkpt>
      <trkpt lat="46.49578" lon="5.22764">
        <ele>206.2</ele>
        <time>2022-06-21T06:02:18Z</time>
      </trkpt>
      <trkpt lat="46.49556" lon="5.22766">
        <ele>205.2</ele>
        <time>2022-06-21T06:02:20Z</time>
      </trkpt>
      <trkpt lat="46.49536" lon="5.22767">
        <ele>204</ele>
        <time>2022-06-21T06:02:22Z</time>
      </trkpt>
      <trkpt lat="46.49507" lon="5.22769">
        <ele>203</ele>
        <time>2022-06-21T06:02:25Z</time>
      </trkpt>
      <trkpt lat="46.49498" lon="5.2277">
        <ele>203</ele>
        <time>2022-06-21T06:02:26Z</time>
      </trkpt>
      <trkpt lat="46.4946" lon="5.22773">
        <ele>203</ele>
        <time>2022-06-21T06:02:31Z</time>
      </trkpt>
      <trkpt lat="46.49428" lon="5.22776">
        <ele>204.4</ele>
        <time>2022-06-21T06:02:36Z</time>
      </trkpt>
      <trkpt lat="46.49422" lon="5.22777">
        <ele>204.6</ele>
        <time>2022-06-21T06:02:37Z</time>
      </trkpt>
      <trkpt lat="46.49404" lon="5.22779">
        <ele>205.4</ele>
        <time>2022-06-21T06:02:40Z</time>
      </trkpt>
      <trkpt lat="46.49386" lon="5.2278">
        <ele>206.2</ele>
        <time>2022-06-21T06:02:43Z</time>
      </trkpt>
      <trkpt lat="46.49369" lon="5.22781">
        <ele>206.8</ele>
        <time>2022-06-21T06:02:46Z</time>
      </trkpt>
      <trkpt lat="46.49341" lon="5.22781">
        <ele>207.8</ele>
        <time>2022-06-21T06:02:51Z</time>
      </trkpt>
      <trkpt lat="46.49309" lon="5.22785">
        <ele>208.8</ele>
        <time>2022-06-21T06:02:57Z</time>
      </trkpt>
      <trkpt lat="46.49304" lon="5.22785">
        <ele>209.2</ele>
        <time>2022-06-21T06:02:58Z</time>
      </trkpt>
      <trkpt lat="46.4928" lon="5.22789">
        <ele>210.4</ele>
        <time>2022-06-21T06:03:03Z</time>
      </trkpt>
      <trkpt lat="46.49271" lon="5.2279">
        <ele>211</ele>
        <time>2022-06-21T06:03:05Z</time>
      </trkpt>
      <trkpt lat="46.49261" lon="5.22791">
        <ele>211.4</ele>
        <time>2022-06-21T06:03:07Z</time>
      </trkpt>
      <trkpt lat="46.49242" lon="5.22792">
        <ele>212.6</ele>
        <time>2022-06-21T06:03:11Z</time>
      </trkpt>
      <trkpt lat="46.49228" lon="5.22793">
        <ele>213.6</ele>
        <time>2022-06-21T06:03:14Z</time>
      </trkpt>
      <trkpt lat="46.49223" lon="5.22793">
        <ele>213.8</ele>
        <time>2022-06-21T06:03:15Z</time>
      </trkpt>
      <trkpt lat="46.49209" lon="5.22793">
        <ele>214.8</ele>
        <time>2022-06-21T06:03:18Z</time>
      </trkpt>
      <trkpt lat="46.49184" lon="5.22793">
        <ele>216</ele>
        <time>2022-06-21T06:03:23Z</time>
      </trkpt>
      <trkpt lat="46.49173" lon="5.22791">
        <ele>216.4</ele>
        <time>2022-06-21T06:03:25Z</time>
      </trkpt>
      <trkpt lat="46.49143" lon="5.22778">
        <ele>216.8</ele>
        <time>2022-06-21T06:03:30Z</time>
      </trkpt>
      <trkpt lat="46.49091" lon="5.2275">
        <ele>216.4</ele>
        <time>2022-06-21T06:03:38Z</time>
      </trkpt>
      <trkpt lat="46.49034" lon="5.2272">
        <ele>216.2</ele>
        <time>2022-06-21T06:03:47Z</time>
      </trkpt>
      <trkpt lat="46.48982" lon="5.22692">
        <ele>216.2</ele>
        <time>2022-06-21T06:03:55Z</time>
      </trkpt>
      <trkpt lat="46.48931" lon="5.22665">
        <ele>215.6</ele>
        <time>2022-06-21T06:04:02Z</time>
      </trkpt>
      <trkpt lat="46.48924" lon="5.22661">
        <ele>215.4</ele>
        <time>2022-06-21T06:04:03Z</time>
      </trkpt>
      <trkpt lat="46.48876" lon="5.22639">
        <ele>215</ele>
        <time>2022-06-21T06:04:09Z</time>
      </trkpt>
      <trkpt lat="46.48853" lon="5.22626">
        <ele>214.8</ele>
        <time>2022-06-21T06:04:12Z</time>
      </trkpt>
      <trkpt lat="46.48807" lon="5.226">
        <ele>214.2</ele>
        <time>2022-06-21T06:04:18Z</time>
      </trkpt>
      <trkpt lat="46.48787" lon="5.22589">
        <ele>213.6</ele>
        <time>2022-06-21T06:04:21Z</time>
      </trkpt>
      <trkpt lat="46.48734" lon="5.22559">
        <ele>213.4</ele>
        <time>2022-06-21T06:04:28Z</time>
      </trkpt>
      <trkpt lat="46.48682" lon="5.22525">
        <ele>213.4</ele>
        <time>2022-06-21T06:04:36Z</time>
      </trkpt>
      <trkpt lat="46.48647" lon="5.22481">
        <ele>214.4</ele>
        <time>2022-06-21T06:04:43Z</time>
      </trkpt>
      <trkpt lat="46.48611" lon="5.22447">
        <ele>215</ele>
        <time>2022-06-21T06:04:50Z</time>
      </trkpt>
      <trkpt lat="46.48573" lon="5.22412">
        <ele>215.8</ele>
        <time>2022-06-21T06:04:57Z</time>
      </trkpt>
      <trkpt lat="46.48531" lon="5.22381">
        <ele>215.8</ele>
        <time>2022-06-21T06:05:04Z</time>
      </trkpt>
      <trkpt lat="46.48525" lon="5.22377">
        <ele>215.8</ele>
        <time>2022-06-21T06:05:05Z</time>
      </trkpt>
      <trkpt lat="46.4848" lon="5.22345">
        <ele>215.8</ele>
        <time>2022-06-21T06:05:12Z</time>
      </trkpt>
      <trkpt lat="46.48474" lon="5.22338">
        <ele>216</ele>
        <time>2022-06-21T06:05:13Z</time>
      </trkpt>
      <trkpt lat="46.48431" lon="5.22279">
        <ele>216.2</ele>
        <time>2022-06-21T06:05:21Z</time>
      </trkpt>
      <trkpt lat="46.48392" lon="5.22241">
        <ele>215.8</ele>
        <time>2022-06-21T06:05:27Z</time>
      </trkpt>
      <trkpt lat="46.48347" lon="5.22219">
        <ele>215</ele>
        <time>2022-06-21T06:05:33Z</time>
      </trkpt>
      <trkpt lat="46.48324" lon="5.22215">
        <ele>214.6</ele>
        <time>2022-06-21T06:05:36Z</time>
      </trkpt>
      <trkpt lat="46.48317" lon="5.22215">
        <ele>214.4</ele>
        <time>2022-06-21T06:05:37Z</time>
      </trkpt>
      <trkpt lat="46.4826" lon="5.22212">
        <ele>214</ele>
        <time>2022-06-21T06:05:44Z</time>
      </trkpt>
      <trkpt lat="46.48252" lon="5.2221">
        <ele>214</ele>
        <time>2022-06-21T06:05:45Z</time>
      </trkpt>
      <trkpt lat="46.48231" lon="5.22203">
        <ele>213.6</ele>
        <time>2022-06-21T06:05:48Z</time>
      </trkpt>
      <trkpt lat="46.48216" lon="5.22202">
        <ele>213.2</ele>
        <time>2022-06-21T06:05:50Z</time>
      </trkpt>
      <trkpt lat="46.48208" lon="5.22203">
        <ele>213</ele>
        <time>2022-06-21T06:05:51Z</time>
      </trkpt>
      <trkpt lat="46.48155" lon="5.22217">
        <ele>212.8</ele>
        <time>2022-06-21T06:05:58Z</time>
      </trkpt>
      <trkpt lat="46.48104" lon="5.22229">
        <ele>212.6</ele>
        <time>2022-06-21T06:06:05Z</time>
      </trkpt>
      <trkpt lat="46.48097" lon="5.22232">
        <ele>212.6</ele>
        <time>2022-06-21T06:06:06Z</time>
      </trkpt>
      <trkpt lat="46.48078" lon="5.22248">
        <ele>212.8</ele>
        <time>2022-06-21T06:06:09Z</time>
      </trkpt>
      <trkpt lat="46.4804" lon="5.22278">
        <ele>212.8</ele>
        <time>2022-06-21T06:06:15Z</time>
      </trkpt>
      <trkpt lat="46.48033" lon="5.22281">
        <ele>212.8</ele>
        <time>2022-06-21T06:06:16Z</time>
      </trkpt>
      <trkpt lat="46.48012" lon="5.22283">
        <ele>213</ele>
        <time>2022-06-21T06:06:19Z</time>
      </trkpt>
      <trkpt lat="46.47954" lon="5.22286">
        <ele>213.2</ele>
        <time>2022-06-21T06:06:27Z</time>
      </trkpt>
      <trkpt lat="46.47895" lon="5.22295">
        <ele>214</ele>
        <time>2022-06-21T06:06:36Z</time>
      </trkpt>
      <trkpt lat="46.47847" lon="5.22302">
        <ele>214.8</ele>
        <time>2022-06-21T06:06:44Z</time>
      </trkpt>
      <trkpt lat="46.478" lon="5.22309">
        <ele>215.8</ele>
        <time>2022-06-21T06:06:52Z</time>
      </trkpt>
      <trkpt lat="46.4777" lon="5.22313">
        <ele>215.8</ele>
        <time>2022-06-21T06:06:58Z</time>
      </trkpt>
      <trkpt lat="46.47763" lon="5.22322">
        <ele>215.6</ele>
        <time>2022-06-21T06:07:01Z</time>
      </trkpt>
      <trkpt lat="46.47763" lon="5.22334">
        <ele>215.4</ele>
        <time>2022-06-21T06:07:03Z</time>
      </trkpt>
      <trkpt lat="46.47764" lon="5.22341">
        <ele>215.4</ele>
        <time>2022-06-21T06:07:04Z</time>
      </trkpt>
      <trkpt lat="46.47771" lon="5.22384">
        <ele>215.2</ele>
        <time>2022-06-21T06:07:09Z</time>
      </trkpt>
      <trkpt lat="46.47782" lon="5.22439">
        <ele>215.8</ele>
        <time>2022-06-21T06:07:15Z</time>
      </trkpt>
      <trkpt lat="46.47783" lon="5.22448">
        <ele>216</ele>
        <time>2022-06-21T06:07:16Z</time>
      </trkpt>
      <trkpt lat="46.478" lon="5.22524">
        <ele>216.6</ele>
        <time>2022-06-21T06:07:24Z</time>
      </trkpt>
      <trkpt lat="46.47802" lon="5.22533">
        <ele>216.6</ele>
        <time>2022-06-21T06:07:25Z</time>
      </trkpt>
      <trkpt lat="46.47808" lon="5.22552">
        <ele>216.6</ele>
        <time>2022-06-21T06:07:27Z</time>
      </trkpt>
      <trkpt lat="46.47821" lon="5.22578">
        <ele>216.4</ele>
        <time>2022-06-21T06:07:30Z</time>
      </trkpt>
      <trkpt lat="46.47855" lon="5.22617">
        <ele>216.2</ele>
        <time>2022-06-21T06:07:35Z</time>
      </trkpt>
      <trkpt lat="46.47886" lon="5.2265">
        <ele>214.8</ele>
        <time>2022-06-21T06:07:39Z</time>
      </trkpt>
      <trkpt lat="46.47911" lon="5.22676">
        <ele>213.4</ele>
        <time>2022-06-21T06:07:42Z</time>
      </trkpt>
      <trkpt lat="46.47936" lon="5.22701">
        <ele>212</ele>
        <time>2022-06-21T06:07:45Z</time>
      </trkpt>
      <trkpt lat="46.47952" lon="5.2272">
        <ele>211</ele>
        <time>2022-06-21T06:07:47Z</time>
      </trkpt>
      <trkpt lat="46.4796" lon="5.2273">
        <ele>210.6</ele>
        <time>2022-06-21T06:07:48Z</time>
      </trkpt>
      <trkpt lat="46.47968" lon="5.22741">
        <ele>209.8</ele>
        <time>2022-06-21T06:07:49Z</time>
      </trkpt>
      <trkpt lat="46.47975" lon="5.22753">
        <ele>209</ele>
        <time>2022-06-21T06:07:50Z</time>
      </trkpt>
      <trkpt lat="46.47981" lon="5.22766">
        <ele>208.8</ele>
        <time>2022-06-21T06:07:51Z</time>
      </trkpt>
      <trkpt lat="46.47987" lon="5.22782">
        <ele>208</ele>
        <time>2022-06-21T06:07:52Z</time>
      </trkpt>
      <trkpt lat="46.47996" lon="5.22807">
        <ele>207.6</ele>
        <time>2022-06-21T06:07:54Z</time>
      </trkpt>
      <trkpt lat="46.4802" lon="5.22874">
        <ele>206.4</ele>
        <time>2022-06-21T06:07:59Z</time>
      </trkpt>
      <trkpt lat="46.48034" lon="5.22914">
        <ele>205.6</ele>
        <time>2022-06-21T06:08:02Z</time>
      </trkpt>
      <trkpt lat="46.48038" lon="5.22928">
        <ele>205.2</ele>
        <time>2022-06-21T06:08:03Z</time>
      </trkpt>
      <trkpt lat="46.48041" lon="5.22943">
        <ele>205</ele>
        <time>2022-06-21T06:08:04Z</time>
      </trkpt>
      <trkpt lat="46.48045" lon="5.22972">
        <ele>204.4</ele>
        <time>2022-06-21T06:08:06Z</time>
      </trkpt>
      <trkpt lat="46.48046" lon="5.23003">
        <ele>204</ele>
        <time>2022-06-21T06:08:08Z</time>
      </trkpt>
      <trkpt lat="46.48047" lon="5.23047">
        <ele>202.8</ele>
        <time>2022-06-21T06:08:11Z</time>
      </trkpt>
      <trkpt lat="46.48047" lon="5.23062">
        <ele>202.4</ele>
        <time>2022-06-21T06:08:12Z</time>
      </trkpt>
      <trkpt lat="46.48048" lon="5.23107">
        <ele>201.6</ele>
        <time>2022-06-21T06:08:15Z</time>
      </trkpt>
      <trkpt lat="46.4805" lon="5.23169">
        <ele>200.6</ele>
        <time>2022-06-21T06:08:19Z</time>
      </trkpt>
      <trkpt lat="46.4805" lon="5.23185">
        <ele>200</ele>
        <time>2022-06-21T06:08:20Z</time>
      </trkpt>
      <trkpt lat="46.48051" lon="5.23216">
        <ele>199.4</ele>
        <time>2022-06-21T06:08:22Z</time>
      </trkpt>
      <trkpt lat="46.48052" lon="5.23276">
        <ele>198.2</ele>
        <time>2022-06-21T06:08:26Z</time>
      </trkpt>
      <trkpt lat="46.48053" lon="5.23294">
        <ele>197.6</ele>
        <time>2022-06-21T06:08:27Z</time>
      </trkpt>
      <trkpt lat="46.48054" lon="5.23334">
        <ele>197.2</ele>
        <time>2022-06-21T06:08:30Z</time>
      </trkpt>
      <trkpt lat="46.48055" lon="5.23402">
        <ele>196.4</ele>
        <time>2022-06-21T06:08:35Z</time>
      </trkpt>
      <trkpt lat="46.48057" lon="5.23479">
        <ele>196</ele>
        <time>2022-06-21T06:08:41Z</time>
      </trkpt>
      <trkpt lat="46.48058" lon="5.23517">
        <ele>196</ele>
        <time>2022-06-21T06:08:44Z</time>
      </trkpt>
      <trkpt lat="46.4806" lon="5.23602">
        <ele>195.6</ele>
        <time>2022-06-21T06:08:51Z</time>
      </trkpt>
      <trkpt lat="46.48062" lon="5.23628">
        <ele>195.4</ele>
        <time>2022-06-21T06:08:53Z</time>
      </trkpt>
      <trkpt lat="46.48072" lon="5.23679">
        <ele>195.4</ele>
        <time>2022-06-21T06:08:58Z</time>
      </trkpt>
      <trkpt lat="46.48093" lon="5.23736">
        <ele>195.8</ele>
        <time>2022-06-21T06:09:04Z</time>
      </trkpt>
      <trkpt lat="46.48112" lon="5.2377">
        <ele>195.8</ele>
        <time>2022-06-21T06:09:08Z</time>
      </trkpt>
      <trkpt lat="46.48117" lon="5.23777">
        <ele>196</ele>
        <time>2022-06-21T06:09:09Z</time>
      </trkpt>
      <trkpt lat="46.48151" lon="5.23817">
        <ele>196.2</ele>
        <time>2022-06-21T06:09:15Z</time>
      </trkpt>
      <trkpt lat="46.48173" lon="5.23845">
        <ele>196.2</ele>
        <time>2022-06-21T06:09:19Z</time>
      </trkpt>
      <trkpt lat="46.48181" lon="5.23862">
        <ele>196.2</ele>
        <time>2022-06-21T06:09:21Z</time>
      </trkpt>
      <trkpt lat="46.48184" lon="5.23871">
        <ele>196.4</ele>
        <time>2022-06-21T06:09:22Z</time>
      </trkpt>
      <trkpt lat="46.4819" lon="5.23901">
        <ele>196.4</ele>
        <time>2022-06-21T06:09:25Z</time>
      </trkpt>
      <trkpt lat="46.4819" lon="5.2391">
        <ele>196.6</ele>
        <time>2022-06-21T06:09:26Z</time>
      </trkpt>
      <trkpt lat="46.48189" lon="5.2393">
        <ele>196.8</ele>
        <time>2022-06-21T06:09:28Z</time>
      </trkpt>
      <trkpt lat="46.48185" lon="5.23948">
        <ele>196.8</ele>
        <time>2022-06-21T06:09:30Z</time>
      </trkpt>
      <trkpt lat="46.48177" lon="5.23972">
        <ele>197.2</ele>
        <time>2022-06-21T06:09:33Z</time>
      </trkpt>
      <trkpt lat="46.48169" lon="5.23993">
        <ele>197.6</ele>
        <time>2022-06-21T06:09:36Z</time>
      </trkpt>
      <trkpt lat="46.48162" lon="5.24012">
        <ele>198.2</ele>
        <time>2022-06-21T06:09:39Z</time>
      </trkpt>
      <trkpt lat="46.48152" lon="5.24036">
        <ele>199.4</ele>
        <time>2022-06-21T06:09:43Z</time>
      </trkpt>
      <trkpt lat="46.4815" lon="5.24041">
        <ele>199.4</ele>
        <time>2022-06-21T06:09:44Z</time>
      </trkpt>
      <trkpt lat="46.48142" lon="5.24064">
        <ele>200.4</ele>
        <time>2022-06-21T06:09:48Z</time>
      </trkpt>
      <trkpt lat="46.48139" lon="5.24069">
        <ele>200.6</ele>
        <time>2022-06-21T06:09:49Z</time>
      </trkpt>
      <trkpt lat="46.48133" lon="5.24086">
        <ele>201.4</ele>
        <time>2022-06-21T06:09:52Z</time>
      </trkpt>
      <trkpt lat="46.48131" lon="5.24092">
        <ele>201.8</ele>
        <time>2022-06-21T06:09:53Z</time>
      </trkpt>
      <trkpt lat="46.4812" lon="5.24119">
        <ele>202.8</ele>
        <time>2022-06-21T06:09:58Z</time>
      </trkpt>
      <trkpt lat="46.48113" lon="5.24136">
        <ele>203.6</ele>
        <time>2022-06-21T06:10:01Z</time>
      </trkpt>
      <trkpt lat="46.48111" lon="5.24141">
        <ele>203.8</ele>
        <time>2022-06-21T06:10:02Z</time>
      </trkpt>
      <trkpt lat="46.48102" lon="5.24162">
        <ele>204.8</ele>
        <time>2022-06-21T06:10:06Z</time>
      </trkpt>
      <trkpt lat="46.48093" lon="5.24188">
        <ele>206</ele>
        <time>2022-06-21T06:10:11Z</time>
      </trkpt>
      <trkpt lat="46.48091" lon="5.24193">
        <ele>206.2</ele>
        <time>2022-06-21T06:10:12Z</time>
      </trkpt>
      <trkpt lat="46.48085" lon="5.24208">
        <ele>207</ele>
        <time>2022-06-21T06:10:15Z</time>
      </trkpt>
      <trkpt lat="46.48076" lon="5.24234">
        <ele>208</ele>
        <time>2022-06-21T06:10:20Z</time>
      </trkpt>
      <trkpt lat="46.48075" lon="5.2424">
        <ele>208.2</ele>
        <time>2022-06-21T06:10:21Z</time>
      </trkpt>
      <trkpt lat="46.48072" lon="5.24257">
        <ele>209.2</ele>
        <time>2022-06-21T06:10:24Z</time>
      </trkpt>
      <trkpt lat="46.48072" lon="5.24281">
        <ele>210</ele>
        <time>2022-06-21T06:10:28Z</time>
      </trkpt>
      <trkpt lat="46.48073" lon="5.24287">
        <ele>210.2</ele>
        <time>2022-06-21T06:10:29Z</time>
      </trkpt>
      <trkpt lat="46.48075" lon="5.24292">
        <ele>210.4</ele>
        <time>2022-06-21T06:10:30Z</time>
      </trkpt>
      <trkpt lat="46.4808" lon="5.24307">
        <ele>211.2</ele>
        <time>2022-06-21T06:10:33Z</time>
      </trkpt>
      <trkpt lat="46.48083" lon="5.24312">
        <ele>211.4</ele>
        <time>2022-06-21T06:10:34Z</time>
      </trkpt>
      <trkpt lat="46.48097" lon="5.24329">
        <ele>212.6</ele>
        <time>2022-06-21T06:10:39Z</time>
      </trkpt>
      <trkpt lat="46.48107" lon="5.2435">
        <ele>213.4</ele>
        <time>2022-06-21T06:10:44Z</time>
      </trkpt>
      <trkpt lat="46.48105" lon="5.2436">
        <ele>213.8</ele>
        <time>2022-06-21T06:10:46Z</time>
      </trkpt>
      <trkpt lat="46.48099" lon="5.24368">
        <ele>214.2</ele>
        <time>2022-06-21T06:10:48Z</time>
      </trkpt>
      <trkpt lat="46.48087" lon="5.24381">
        <ele>215</ele>
        <time>2022-06-21T06:10:51Z</time>
      </trkpt>
      <trkpt lat="46.48082" lon="5.24386">
        <ele>215</ele>
        <time>2022-06-21T06:10:52Z</time>
      </trkpt>
      <trkpt lat="46.48046" lon="5.24414">
        <ele>215.6</ele>
        <time>2022-06-21T06:10:59Z</time>
      </trkpt>
      <trkpt lat="46.47993" lon="5.24449">
        <ele>215.8</ele>
        <time>2022-06-21T06:11:08Z</time>
      </trkpt>
      <trkpt lat="46.47957" lon="5.24474">
        <ele>216</ele>
        <time>2022-06-21T06:11:14Z</time>
      </trkpt>
      <trkpt lat="46.47939" lon="5.24485">
        <ele>216.4</ele>
        <time>2022-06-21T06:11:17Z</time>
      </trkpt>
      <trkpt lat="46.47901" lon="5.24497">
        <ele>216.8</ele>
        <time>2022-06-21T06:11:23Z</time>
      </trkpt>
      <trkpt lat="46.47888" lon="5.24498">
        <ele>216.8</ele>
        <time>2022-06-21T06:11:25Z</time>
      </trkpt>
      <trkpt lat="46.47851" lon="5.24496">
        <ele>217</ele>
        <time>2022-06-21T06:11:30Z</time>
      </trkpt>
      <trkpt lat="46.47794" lon="5.24498">
        <ele>216.6</ele>
        <time>2022-06-21T06:11:37Z</time>
      </trkpt>
      <trkpt lat="46.47751" lon="5.24506">
        <ele>215.8</ele>
        <time>2022-06-21T06:11:42Z</time>
      </trkpt>
      <trkpt lat="46.47733" lon="5.24511">
        <ele>215.6</ele>
        <time>2022-06-21T06:11:44Z</time>
      </trkpt>
      <trkpt lat="46.47676" lon="5.24534">
        <ele>215.2</ele>
        <time>2022-06-21T06:11:51Z</time>
      </trkpt>
      <trkpt lat="46.47621" lon="5.24564">
        <ele>215</ele>
        <time>2022-06-21T06:11:58Z</time>
      </trkpt>
      <trkpt lat="46.47597" lon="5.24579">
        <ele>215</ele>
        <time>2022-06-21T06:12:01Z</time>
      </trkpt>
      <trkpt lat="46.47555" lon="5.24601">
        <ele>214.8</ele>
        <time>2022-06-21T06:12:06Z</time>
      </trkpt>
      <trkpt lat="46.47547" lon="5.24606">
        <ele>214.6</ele>
        <time>2022-06-21T06:12:07Z</time>
      </trkpt>
      <trkpt lat="46.47505" lon="5.24628">
        <ele>213.6</ele>
        <time>2022-06-21T06:12:12Z</time>
      </trkpt>
      <trkpt lat="46.47488" lon="5.24634">
        <ele>213.4</ele>
        <time>2022-06-21T06:12:14Z</time>
      </trkpt>
      <trkpt lat="46.47436" lon="5.2464">
        <ele>213</ele>
        <time>2022-06-21T06:12:20Z</time>
      </trkpt>
      <trkpt lat="46.47376" lon="5.24646">
        <ele>212.8</ele>
        <time>2022-06-21T06:12:27Z</time>
      </trkpt>
      <trkpt lat="46.47349" lon="5.24649">
        <ele>212.6</ele>
        <time>2022-06-21T06:12:30Z</time>
      </trkpt>
      <trkpt lat="46.4732" lon="5.24651">
        <ele>212.4</ele>
        <time>2022-06-21T06:12:33Z</time>
      </trkpt>
      <trkpt lat="46.47281" lon="5.24653">
        <ele>211.2</ele>
        <time>2022-06-21T06:12:37Z</time>
      </trkpt>
      <trkpt lat="46.47251" lon="5.24655">
        <ele>210.6</ele>
        <time>2022-06-21T06:12:40Z</time>
      </trkpt>
      <trkpt lat="46.47231" lon="5.24655">
        <ele>210</ele>
        <time>2022-06-21T06:12:42Z</time>
      </trkpt>
      <trkpt lat="46.47192" lon="5.24652">
        <ele>208.8</ele>
        <time>2022-06-21T06:12:46Z</time>
      </trkpt>
      <trkpt lat="46.47172" lon="5.24649">
        <ele>208.4</ele>
        <time>2022-06-21T06:12:48Z</time>
      </trkpt>
      <trkpt lat="46.47153" lon="5.24644">
        <ele>207.8</ele>
        <time>2022-06-21T06:12:50Z</time>
      </trkpt>
      <trkpt lat="46.47126" lon="5.24633">
        <ele>206.4</ele>
        <time>2022-06-21T06:12:53Z</time>
      </trkpt>
      <trkpt lat="46.4711" lon="5.24627">
        <ele>205.6</ele>
        <time>2022-06-21T06:12:55Z</time>
      </trkpt>
      <trkpt lat="46.47102" lon="5.24628">
        <ele>205.4</ele>
        <time>2022-06-21T06:12:56Z</time>
      </trkpt>
      <trkpt lat="46.47095" lon="5.2463">
        <ele>205.2</ele>
        <time>2022-06-21T06:12:57Z</time>
      </trkpt>
      <trkpt lat="46.47089" lon="5.24637">
        <ele>204.6</ele>
        <time>2022-06-21T06:12:58Z</time>
      </trkpt>
      <trkpt lat="46.47084" lon="5.24648">
        <ele>204.2</ele>
        <time>2022-06-21T06:12:59Z</time>
      </trkpt>
      <trkpt lat="46.47077" lon="5.24671">
        <ele>203.8</ele>
        <time>2022-06-21T06:13:01Z</time>
      </trkpt>
      <trkpt lat="46.4707" lon="5.24695">
        <ele>203.4</ele>
        <time>2022-06-21T06:13:03Z</time>
      </trkpt>
      <trkpt lat="46.47066" lon="5.24707">
        <ele>203.2</ele>
        <time>2022-06-21T06:13:04Z</time>
      </trkpt>
      <trkpt lat="46.47054" lon="5.24729">
        <ele>203</ele>
        <time>2022-06-21T06:13:06Z</time>
      </trkpt>
      <trkpt lat="46.47034" lon="5.24762">
        <ele>202.2</ele>
        <time>2022-06-21T06:13:09Z</time>
      </trkpt>
      <trkpt lat="46.47026" lon="5.24772">
        <ele>202</ele>
        <time>2022-06-21T06:13:10Z</time>
      </trkpt>
      <trkpt lat="46.46999" lon="5.24802">
        <ele>200.8</ele>
        <time>2022-06-21T06:13:13Z</time>
      </trkpt>
      <trkpt lat="46.46979" lon="5.2482">
        <ele>200</ele>
        <time>2022-06-21T06:13:15Z</time>
      </trkpt>
      <trkpt lat="46.4697" lon="5.24828">
        <ele>199.6</ele>
        <time>2022-06-21T06:13:16Z</time>
      </trkpt>
      <trkpt lat="46.46943" lon="5.24852">
        <ele>198.2</ele>
        <time>2022-06-21T06:13:19Z</time>
      </trkpt>
      <trkpt lat="46.46919" lon="5.24874">
        <ele>198</ele>
        <time>2022-06-21T06:13:22Z</time>
      </trkpt>
      <trkpt lat="46.46882" lon="5.24903">
        <ele>198.4</ele>
        <time>2022-06-21T06:13:27Z</time>
      </trkpt>
      <trkpt lat="46.46848" lon="5.2493">
        <ele>199.4</ele>
        <time>2022-06-21T06:13:32Z</time>
      </trkpt>
      <trkpt lat="46.46841" lon="5.24935">
        <ele>199.4</ele>
        <time>2022-06-21T06:13:33Z</time>
      </trkpt>
      <trkpt lat="46.4681" lon="5.24961">
        <ele>200.2</ele>
        <time>2022-06-21T06:13:38Z</time>
      </trkpt>
      <trkpt lat="46.46804" lon="5.24965">
        <ele>200.4</ele>
        <time>2022-06-21T06:13:39Z</time>
      </trkpt>
      <trkpt lat="46.4677" lon="5.24991">
        <ele>201.4</ele>
        <time>2022-06-21T06:13:45Z</time>
      </trkpt>
      <trkpt lat="46.46765" lon="5.24995">
        <ele>201.6</ele>
        <time>2022-06-21T06:13:46Z</time>
      </trkpt>
      <trkpt lat="46.46743" lon="5.25013">
        <ele>202.4</ele>
        <time>2022-06-21T06:13:50Z</time>
      </trkpt>
      <trkpt lat="46.46737" lon="5.25017">
        <ele>202.6</ele>
        <time>2022-06-21T06:13:51Z</time>
      </trkpt>
      <trkpt lat="46.46731" lon="5.25023">
        <ele>202.6</ele>
        <time>2022-06-21T06:13:52Z</time>
      </trkpt>
      <trkpt lat="46.46711" lon="5.25037">
        <ele>203</ele>
        <time>2022-06-21T06:13:55Z</time>
      </trkpt>
      <trkpt lat="46.46694" lon="5.25053">
        <ele>203.2</ele>
        <time>2022-06-21T06:13:58Z</time>
      </trkpt>
      <trkpt lat="46.46646" lon="5.25092">
        <ele>203</ele>
        <time>2022-06-21T06:14:06Z</time>
      </trkpt>
      <trkpt lat="46.46617" lon="5.25115">
        <ele>203.4</ele>
        <time>2022-06-21T06:14:11Z</time>
      </trkpt>
      <trkpt lat="46.46611" lon="5.2512">
        <ele>203.6</ele>
        <time>2022-06-21T06:14:12Z</time>
      </trkpt>
      <trkpt lat="46.46578" lon="5.25148">
        <ele>204.4</ele>
        <time>2022-06-21T06:14:18Z</time>
      </trkpt>
      <trkpt lat="46.4654" lon="5.25179">
        <ele>204.8</ele>
        <time>2022-06-21T06:14:24Z</time>
      </trkpt>
      <trkpt lat="46.46491" lon="5.25218">
        <ele>205.2</ele>
        <time>2022-06-21T06:14:32Z</time>
      </trkpt>
      <trkpt lat="46.46474" lon="5.25231">
        <ele>205.6</ele>
        <time>2022-06-21T06:14:35Z</time>
      </trkpt>
      <trkpt lat="46.46458" lon="5.25245">
        <ele>206</ele>
        <time>2022-06-21T06:14:38Z</time>
      </trkpt>
      <trkpt lat="46.46437" lon="5.25262">
        <ele>206.6</ele>
        <time>2022-06-21T06:14:42Z</time>
      </trkpt>
      <trkpt lat="46.46415" lon="5.25281">
        <ele>207.2</ele>
        <time>2022-06-21T06:14:46Z</time>
      </trkpt>
      <trkpt lat="46.464" lon="5.25295">
        <ele>207.8</ele>
        <time>2022-06-21T06:14:49Z</time>
      </trkpt>
      <trkpt lat="46.46385" lon="5.25312">
        <ele>208.2</ele>
        <time>2022-06-21T06:14:52Z</time>
      </trkpt>
      <trkpt lat="46.46381" lon="5.25319">
        <ele>208.6</ele>
        <time>2022-06-21T06:14:53Z</time>
      </trkpt>
      <trkpt lat="46.46373" lon="5.25333">
        <ele>209</ele>
        <time>2022-06-21T06:14:55Z</time>
      </trkpt>
      <trkpt lat="46.46365" lon="5.25348">
        <ele>209.4</ele>
        <time>2022-06-21T06:14:57Z</time>
      </trkpt>
      <trkpt lat="46.46343" lon="5.25384">
        <ele>210.2</ele>
        <time>2022-06-21T06:15:02Z</time>
      </trkpt>
      <trkpt lat="46.46326" lon="5.25413">
        <ele>211</ele>
        <time>2022-06-21T06:15:06Z</time>
      </trkpt>
      <trkpt lat="46.46318" lon="5.25428">
        <ele>211.4</ele>
        <time>2022-06-21T06:15:08Z</time>
      </trkpt>
      <trkpt lat="46.46282" lon="5.2549">
        <ele>212.2</ele>
        <time>2022-06-21T06:15:17Z</time>
      </trkpt>
      <trkpt lat="46.46274" lon="5.25503">
        <ele>212.6</ele>
        <time>2022-06-21T06:15:19Z</time>
      </trkpt>
      <trkpt lat="46.46256" lon="5.25541">
        <ele>213.2</ele>
        <time>2022-06-21T06:15:24Z</time>
      </trkpt>
      <trkpt lat="46.46238" lon="5.25602">
        <ele>213.6</ele>
        <time>2022-06-21T06:15:31Z</time>
      </trkpt>
      <trkpt lat="46.46226" lon="5.25669">
        <ele>214.4</ele>
        <time>2022-06-21T06:15:38Z</time>
      </trkpt>
      <trkpt lat="46.46225" lon="5.25691">
        <ele>214.4</ele>
        <time>2022-06-21T06:15:40Z</time>
      </trkpt>
      <trkpt lat="46.46227" lon="5.25717">
        <ele>214</ele>
        <time>2022-06-21T06:15:42Z</time>
      </trkpt>
      <trkpt lat="46.46239" lon="5.25783">
        <ele>212.8</ele>
        <time>2022-06-21T06:15:47Z</time>
      </trkpt>
      <trkpt lat="46.46244" lon="5.25807">
        <ele>212.4</ele>
        <time>2022-06-21T06:15:49Z</time>
      </trkpt>
      <trkpt lat="46.46249" lon="5.2584">
        <ele>212.2</ele>
        <time>2022-06-21T06:15:52Z</time>
      </trkpt>
      <trkpt lat="46.46248" lon="5.25878">
        <ele>212.6</ele>
        <time>2022-06-21T06:15:56Z</time>
      </trkpt>
      <trkpt lat="46.46241" lon="5.25908">
        <ele>213.8</ele>
        <time>2022-06-21T06:16:00Z</time>
      </trkpt>
      <trkpt lat="46.46238" lon="5.25915">
        <ele>214.2</ele>
        <time>2022-06-21T06:16:01Z</time>
      </trkpt>
      <trkpt lat="46.4623" lon="5.25936">
        <ele>214.8</ele>
        <time>2022-06-21T06:16:04Z</time>
      </trkpt>
      <trkpt lat="46.46221" lon="5.25963">
        <ele>216.2</ele>
        <time>2022-06-21T06:16:08Z</time>
      </trkpt>
      <trkpt lat="46.46219" lon="5.2597">
        <ele>216.6</ele>
        <time>2022-06-21T06:16:09Z</time>
      </trkpt>
      <trkpt lat="46.46215" lon="5.25991">
        <ele>217.6</ele>
        <time>2022-06-21T06:16:12Z</time>
      </trkpt>
      <trkpt lat="46.46211" lon="5.26012">
        <ele>218.8</ele>
        <time>2022-06-21T06:16:15Z</time>
      </trkpt>
      <trkpt lat="46.46208" lon="5.26028">
        <ele>219.2</ele>
        <time>2022-06-21T06:16:17Z</time>
      </trkpt>
      <trkpt lat="46.46205" lon="5.26053">
        <ele>219.8</ele>
        <time>2022-06-21T06:16:20Z</time>
      </trkpt>
      <trkpt lat="46.46202" lon="5.26081">
        <ele>220.4</ele>
        <time>2022-06-21T06:16:23Z</time>
      </trkpt>
      <trkpt lat="46.46196" lon="5.26149">
        <ele>220.8</ele>
        <time>2022-06-21T06:16:30Z</time>
      </trkpt>
      <trkpt lat="46.46189" lon="5.26227">
        <ele>220.2</ele>
        <time>2022-06-21T06:16:37Z</time>
      </trkpt>
      <trkpt lat="46.4618" lon="5.26313">
        <ele>218.6</ele>
        <time>2022-06-21T06:16:44Z</time>
      </trkpt>
      <trkpt lat="46.46179" lon="5.26326">
        <ele>218.4</ele>
        <time>2022-06-21T06:16:45Z</time>
      </trkpt>
      <trkpt lat="46.46177" lon="5.26354">
        <ele>217.2</ele>
        <time>2022-06-21T06:16:47Z</time>
      </trkpt>
      <trkpt lat="46.46174" lon="5.26398">
        <ele>215.8</ele>
        <time>2022-06-21T06:16:50Z</time>
      </trkpt>
      <trkpt lat="46.46172" lon="5.26414">
        <ele>215.4</ele>
        <time>2022-06-21T06:16:51Z</time>
      </trkpt>
      <trkpt lat="46.46169" lon="5.26446">
        <ele>214.8</ele>
        <time>2022-06-21T06:16:53Z</time>
      </trkpt>
      <trkpt lat="46.46164" lon="5.26495">
        <ele>213.4</ele>
        <time>2022-06-21T06:16:56Z</time>
      </trkpt>
      <trkpt lat="46.46161" lon="5.26528">
        <ele>212.4</ele>
        <time>2022-06-21T06:16:58Z</time>
      </trkpt>
      <trkpt lat="46.46159" lon="5.26545">
        <ele>211.8</ele>
        <time>2022-06-21T06:16:59Z</time>
      </trkpt>
      <trkpt lat="46.46156" lon="5.26579">
        <ele>210.6</ele>
        <time>2022-06-21T06:17:01Z</time>
      </trkpt>
      <trkpt lat="46.46151" lon="5.26631">
        <ele>209</ele>
        <time>2022-06-21T06:17:04Z</time>
      </trkpt>
      <trkpt lat="46.46149" lon="5.26668">
        <ele>207.8</ele>
        <time>2022-06-21T06:17:06Z</time>
      </trkpt>
      <trkpt lat="46.46148" lon="5.26704">
        <ele>206.6</ele>
        <time>2022-06-21T06:17:08Z</time>
      </trkpt>
      <trkpt lat="46.46147" lon="5.26741">
        <ele>204.4</ele>
        <time>2022-06-21T06:17:10Z</time>
      </trkpt>
      <trkpt lat="46.46146" lon="5.26777">
        <ele>203.4</ele>
        <time>2022-06-21T06:17:12Z</time>
      </trkpt>
      <trkpt lat="46.46146" lon="5.26794">
        <ele>203.2</ele>
        <time>2022-06-21T06:17:13Z</time>
      </trkpt>
      <trkpt lat="46.46146" lon="5.26812">
        <ele>202</ele>
        <time>2022-06-21T06:17:14Z</time>
      </trkpt>
      <trkpt lat="46.46144" lon="5.26863">
        <ele>200.8</ele>
        <time>2022-06-21T06:17:17Z</time>
      </trkpt>
      <trkpt lat="46.46143" lon="5.26896">
        <ele>200.2</ele>
        <time>2022-06-21T06:17:19Z</time>
      </trkpt>
      <trkpt lat="46.46142" lon="5.26929">
        <ele>199.6</ele>
        <time>2022-06-21T06:17:21Z</time>
      </trkpt>
      <trkpt lat="46.46141" lon="5.26989">
        <ele>198.8</ele>
        <time>2022-06-21T06:17:25Z</time>
      </trkpt>
      <trkpt lat="46.4614" lon="5.27003">
        <ele>198.6</ele>
        <time>2022-06-21T06:17:26Z</time>
      </trkpt>
      <trkpt lat="46.46138" lon="5.27084">
        <ele>198.4</ele>
        <time>2022-06-21T06:17:32Z</time>
      </trkpt>
      <trkpt lat="46.46136" lon="5.27166">
        <ele>198.4</ele>
        <time>2022-06-21T06:17:38Z</time>
      </trkpt>
      <trkpt lat="46.46135" lon="5.27207">
        <ele>198.4</ele>
        <time>2022-06-21T06:17:41Z</time>
      </trkpt>
      <trkpt lat="46.46132" lon="5.27287">
        <ele>197.4</ele>
        <time>2022-06-21T06:17:47Z</time>
      </trkpt>
      <trkpt lat="46.46131" lon="5.27313">
        <ele>197.2</ele>
        <time>2022-06-21T06:17:49Z</time>
      </trkpt>
      <trkpt lat="46.46129" lon="5.27399">
        <ele>197.2</ele>
        <time>2022-06-21T06:17:56Z</time>
      </trkpt>
      <trkpt lat="46.46127" lon="5.27482">
        <ele>197.4</ele>
        <time>2022-06-21T06:18:03Z</time>
      </trkpt>
      <trkpt lat="46.46127" lon="5.27506">
        <ele>197.4</ele>
        <time>2022-06-21T06:18:05Z</time>
      </trkpt>
      <trkpt lat="46.46125" lon="5.27588">
        <ele>197</ele>
        <time>2022-06-21T06:18:12Z</time>
      </trkpt>
      <trkpt lat="46.46123" lon="5.27633">
        <ele>196.8</ele>
        <time>2022-06-21T06:18:16Z</time>
      </trkpt>
      <trkpt lat="46.46121" lon="5.27719">
        <ele>197.2</ele>
        <time>2022-06-21T06:18:24Z</time>
      </trkpt>
      <trkpt lat="46.46119" lon="5.27793">
        <ele>198.2</ele>
        <time>2022-06-21T06:18:32Z</time>
      </trkpt>
      <trkpt lat="46.46119" lon="5.2781">
        <ele>198.6</ele>
        <time>2022-06-21T06:18:34Z</time>
      </trkpt>
      <trkpt lat="46.4612" lon="5.27852">
        <ele>199.4</ele>
        <time>2022-06-21T06:18:39Z</time>
      </trkpt>
      <trkpt lat="46.4612" lon="5.27869">
        <ele>200</ele>
        <time>2022-06-21T06:18:41Z</time>
      </trkpt>
      <trkpt lat="46.46123" lon="5.27916">
        <ele>201</ele>
        <time>2022-06-21T06:18:47Z</time>
      </trkpt>
      <trkpt lat="46.46123" lon="5.27924">
        <ele>201.2</ele>
        <time>2022-06-21T06:18:48Z</time>
      </trkpt>
      <trkpt lat="46.46123" lon="5.27931">
        <ele>201.2</ele>
        <time>2022-06-21T06:18:49Z</time>
      </trkpt>
      <trkpt lat="46.46126" lon="5.27944">
        <ele>201.8</ele>
        <time>2022-06-21T06:18:51Z</time>
      </trkpt>
      <trkpt lat="46.46128" lon="5.2795">
        <ele>202.4</ele>
        <time>2022-06-21T06:18:52Z</time>
      </trkpt>
      <trkpt lat="46.4613" lon="5.27956">
        <ele>203</ele>
        <time>2022-06-21T06:18:53Z</time>
      </trkpt>
      <trkpt lat="46.46132" lon="5.27961">
        <ele>203.4</ele>
        <time>2022-06-21T06:18:54Z</time>
      </trkpt>
      <trkpt lat="46.46135" lon="5.27966">
        <ele>204</ele>
        <time>2022-06-21T06:18:55Z</time>
      </trkpt>
      <trkpt lat="46.46139" lon="5.2797">
        <ele>204.4</ele>
        <time>2022-06-21T06:18:56Z</time>
      </trkpt>
      <trkpt lat="46.46142" lon="5.27974">
        <ele>205</ele>
        <time>2022-06-21T06:18:57Z</time>
      </trkpt>
      <trkpt lat="46.46155" lon="5.27984">
        <ele>206</ele>
        <time>2022-06-21T06:19:00Z</time>
      </trkpt>
      <trkpt lat="46.46163" lon="5.27991">
        <ele>207.2</ele>
        <time>2022-06-21T06:19:02Z</time>
      </trkpt>
      <trkpt lat="46.46167" lon="5.27993">
        <ele>207.4</ele>
        <time>2022-06-21T06:19:03Z</time>
      </trkpt>
      <trkpt lat="46.46175" lon="5.27999">
        <ele>208.4</ele>
        <time>2022-06-21T06:19:05Z</time>
      </trkpt>
      <trkpt lat="46.46188" lon="5.28007">
        <ele>209.8</ele>
        <time>2022-06-21T06:19:08Z</time>
      </trkpt>
      <trkpt lat="46.46195" lon="5.28015">
        <ele>210.4</ele>
        <time>2022-06-21T06:19:10Z</time>
      </trkpt>
      <trkpt lat="46.46195" lon="5.28022">
        <ele>210.8</ele>
        <time>2022-06-21T06:19:11Z</time>
      </trkpt>
      <trkpt lat="46.46193" lon="5.28062">
        <ele>211.8</ele>
        <time>2022-06-21T06:19:15Z</time>
      </trkpt>
      <trkpt lat="46.46192" lon="5.28074">
        <ele>212</ele>
        <time>2022-06-21T06:19:16Z</time>
      </trkpt>
      <trkpt lat="46.46191" lon="5.28086">
        <ele>212</ele>
        <time>2022-06-21T06:19:17Z</time>
      </trkpt>
      <trkpt lat="46.46187" lon="5.2812">
        <ele>212</ele>
        <time>2022-06-21T06:19:20Z</time>
      </trkpt>
      <trkpt lat="46.46177" lon="5.28181">
        <ele>212.2</ele>
        <time>2022-06-21T06:19:26Z</time>
      </trkpt>
      <trkpt lat="46.46167" lon="5.28243">
        <ele>212.4</ele>
        <time>2022-06-21T06:19:32Z</time>
      </trkpt>
      <trkpt lat="46.46165" lon="5.28267">
        <ele>212</ele>
        <time>2022-06-21T06:19:34Z</time>
      </trkpt>
      <trkpt lat="46.46166" lon="5.28292">
        <ele>211.6</ele>
        <time>2022-06-21T06:19:36Z</time>
      </trkpt>
      <trkpt lat="46.46168" lon="5.28305">
        <ele>211.4</ele>
        <time>2022-06-21T06:19:37Z</time>
      </trkpt>
      <trkpt lat="46.46172" lon="5.28331">
        <ele>210.6</ele>
        <time>2022-06-21T06:19:39Z</time>
      </trkpt>
      <trkpt lat="46.46176" lon="5.28358">
        <ele>209.8</ele>
        <time>2022-06-21T06:19:41Z</time>
      </trkpt>
      <trkpt lat="46.46178" lon="5.28372">
        <ele>209.6</ele>
        <time>2022-06-21T06:19:42Z</time>
      </trkpt>
      <trkpt lat="46.46183" lon="5.28412">
        <ele>208.6</ele>
        <time>2022-06-21T06:19:45Z</time>
      </trkpt>
      <trkpt lat="46.46189" lon="5.28449">
        <ele>208</ele>
        <time>2022-06-21T06:19:48Z</time>
      </trkpt>
      <trkpt lat="46.46196" lon="5.28502">
        <ele>207.8</ele>
        <time>2022-06-21T06:19:53Z</time>
      </trkpt>
      <trkpt lat="46.46203" lon="5.28551">
        <ele>209.4</ele>
        <time>2022-06-21T06:19:59Z</time>
      </trkpt>
      <trkpt lat="46.46204" lon="5.28558">
        <ele>209.8</ele>
        <time>2022-06-21T06:20:00Z</time>
      </trkpt>
      <trkpt lat="46.46209" lon="5.28587">
        <ele>210.8</ele>
        <time>2022-06-21T06:20:04Z</time>
      </trkpt>
      <trkpt lat="46.46211" lon="5.28601">
        <ele>211.4</ele>
        <time>2022-06-21T06:20:06Z</time>
      </trkpt>
      <trkpt lat="46.46213" lon="5.28615">
        <ele>211.8</ele>
        <time>2022-06-21T06:20:08Z</time>
      </trkpt>
      <trkpt lat="46.46213" lon="5.28622">
        <ele>212.2</ele>
        <time>2022-06-21T06:20:09Z</time>
      </trkpt>
      <trkpt lat="46.46214" lon="5.28629">
        <ele>212.6</ele>
        <time>2022-06-21T06:20:10Z</time>
      </trkpt>
      <trkpt lat="46.46214" lon="5.28635">
        <ele>213</ele>
        <time>2022-06-21T06:20:11Z</time>
      </trkpt>
      <trkpt lat="46.46215" lon="5.28641">
        <ele>213.2</ele>
        <time>2022-06-21T06:20:12Z</time>
      </trkpt>
      <trkpt lat="46.46216" lon="5.28653">
        <ele>214</ele>
        <time>2022-06-21T06:20:14Z</time>
      </trkpt>
      <trkpt lat="46.46217" lon="5.28659">
        <ele>214.2</ele>
        <time>2022-06-21T06:20:15Z</time>
      </trkpt>
      <trkpt lat="46.46219" lon="5.28672">
        <ele>215.2</ele>
        <time>2022-06-21T06:20:17Z</time>
      </trkpt>
      <trkpt lat="46.4622" lon="5.28678">
        <ele>215.6</ele>
        <time>2022-06-21T06:20:18Z</time>
      </trkpt>
      <trkpt lat="46.46225" lon="5.28688">
        <ele>216</ele>
        <time>2022-06-21T06:20:20Z</time>
      </trkpt>
      <trkpt lat="46.46229" lon="5.28693">
        <ele>216.2</ele>
        <time>2022-06-21T06:20:21Z</time>
      </trkpt>
      <trkpt lat="46.46233" lon="5.28698">
        <ele>216.2</ele>
        <time>2022-06-21T06:20:22Z</time>
      </trkpt>
      <trkpt lat="46.46238" lon="5.28701">
        <ele>216.6</ele>
        <time>2022-06-21T06:20:23Z</time>
      </trkpt>
      <trkpt lat="46.46251" lon="5.28712">
        <ele>217.4</ele>
        <time>2022-06-21T06:20:26Z</time>
      </trkpt>
      <trkpt lat="46.46256" lon="5.28716">
        <ele>217.8</ele>
        <time>2022-06-21T06:20:27Z</time>
      </trkpt>
      <trkpt lat="46.46273" lon="5.2873">
        <ele>219</ele>
        <time>2022-06-21T06:20:31Z</time>
      </trkpt>
      <trkpt lat="46.46293" lon="5.28743">
        <ele>219.8</ele>
        <time>2022-06-21T06:20:35Z</time>
      </trkpt>
      <trkpt lat="46.46298" lon="5.28746">
        <ele>220</ele>
        <time>2022-06-21T06:20:36Z</time>
      </trkpt>
      <trkpt lat="46.46328" lon="5.28765">
        <ele>221.2</ele>
        <time>2022-06-21T06:20:42Z</time>
      </trkpt>
      <trkpt lat="46.46333" lon="5.28768">
        <ele>221.4</ele>
        <time>2022-06-21T06:20:43Z</time>
      </trkpt>
      <trkpt lat="46.46347" lon="5.28778">
        <ele>222.4</ele>
        <time>2022-06-21T06:20:46Z</time>
      </trkpt>
      <trkpt lat="46.4637" lon="5.28797">
        <ele>223.6</ele>
        <time>2022-06-21T06:20:51Z</time>
      </trkpt>
      <trkpt lat="46.46375" lon="5.28801">
        <ele>223.6</ele>
        <time>2022-06-21T06:20:52Z</time>
      </trkpt>
      <trkpt lat="46.46393" lon="5.28823">
        <ele>224.2</ele>
        <time>2022-06-21T06:20:56Z</time>
      </trkpt>
      <trkpt lat="46.464" lon="5.28838">
        <ele>224.4</ele>
        <time>2022-06-21T06:20:58Z</time>
      </trkpt>
      <trkpt lat="46.4641" lon="5.28862">
        <ele>224.6</ele>
        <time>2022-06-21T06:21:01Z</time>
      </trkpt>
      <trkpt lat="46.46415" lon="5.28879">
        <ele>225</ele>
        <time>2022-06-21T06:21:03Z</time>
      </trkpt>
      <trkpt lat="46.46426" lon="5.28925">
        <ele>225.4</ele>
        <time>2022-06-21T06:21:08Z</time>
      </trkpt>
      <trkpt lat="46.46432" lon="5.28952">
        <ele>225.8</ele>
        <time>2022-06-21T06:21:11Z</time>
      </trkpt>
      <trkpt lat="46.46448" lon="5.29025">
        <ele>226.6</ele>
        <time>2022-06-21T06:21:19Z</time>
      </trkpt>
      <trkpt lat="46.46461" lon="5.29091">
        <ele>227</ele>
        <time>2022-06-21T06:21:26Z</time>
      </trkpt>
      <trkpt lat="46.46479" lon="5.29173">
        <ele>227.2</ele>
        <time>2022-06-21T06:21:34Z</time>
      </trkpt>
      <trkpt lat="46.46481" lon="5.29184">
        <ele>227.2</ele>
        <time>2022-06-21T06:21:35Z</time>
      </trkpt>
      <trkpt lat="46.46498" lon="5.29265">
        <ele>227.2</ele>
        <time>2022-06-21T06:21:42Z</time>
      </trkpt>
      <trkpt lat="46.465" lon="5.29277">
        <ele>227.2</ele>
        <time>2022-06-21T06:21:43Z</time>
      </trkpt>
      <trkpt lat="46.46519" lon="5.29362">
        <ele>226</ele>
        <time>2022-06-21T06:21:50Z</time>
      </trkpt>
      <trkpt lat="46.46533" lon="5.29432">
        <ele>225.8</ele>
        <time>2022-06-21T06:21:56Z</time>
      </trkpt>
      <trkpt lat="46.46553" lon="5.29512">
        <ele>225.6</ele>
        <time>2022-06-21T06:22:03Z</time>
      </trkpt>
      <trkpt lat="46.46556" lon="5.29524">
        <ele>225.6</ele>
        <time>2022-06-21T06:22:04Z</time>
      </trkpt>
      <trkpt lat="46.4656" lon="5.29536">
        <ele>225.4</ele>
        <time>2022-06-21T06:22:05Z</time>
      </trkpt>
      <trkpt lat="46.46573" lon="5.29577">
        <ele>225</ele>
        <time>2022-06-21T06:22:09Z</time>
      </trkpt>
      <trkpt lat="46.46583" lon="5.29616">
        <ele>225.2</ele>
        <time>2022-06-21T06:22:13Z</time>
      </trkpt>
      <trkpt lat="46.46597" lon="5.29676">
        <ele>226</ele>
        <time>2022-06-21T06:22:19Z</time>
      </trkpt>
      <trkpt lat="46.4661" lon="5.29726">
        <ele>226.4</ele>
        <time>2022-06-21T06:22:24Z</time>
      </trkpt>
      <trkpt lat="46.46619" lon="5.29756">
        <ele>226.8</ele>
        <time>2022-06-21T06:22:27Z</time>
      </trkpt>
      <trkpt lat="46.46625" lon="5.29784">
        <ele>227</ele>
        <time>2022-06-21T06:22:30Z</time>
      </trkpt>
      <trkpt lat="46.46628" lon="5.29794">
        <ele>227</ele>
        <time>2022-06-21T06:22:31Z</time>
      </trkpt>
      <trkpt lat="46.4663" lon="5.29803">
        <ele>227.2</ele>
        <time>2022-06-21T06:22:32Z</time>
      </trkpt>
      <trkpt lat="46.46638" lon="5.29832">
        <ele>227.4</ele>
        <time>2022-06-21T06:22:35Z</time>
      </trkpt>
      <trkpt lat="46.46641" lon="5.29842">
        <ele>227.6</ele>
        <time>2022-06-21T06:22:36Z</time>
      </trkpt>
      <trkpt lat="46.46647" lon="5.29864">
        <ele>227.8</ele>
        <time>2022-06-21T06:22:38Z</time>
      </trkpt>
      <trkpt lat="46.46654" lon="5.29884">
        <ele>228</ele>
        <time>2022-06-21T06:22:40Z</time>
      </trkpt>
      <trkpt lat="46.46669" lon="5.29943">
        <ele>228.2</ele>
        <time>2022-06-21T06:22:45Z</time>
      </trkpt>
      <trkpt lat="46.46672" lon="5.29954">
        <ele>228.2</ele>
        <time>2022-06-21T06:22:46Z</time>
      </trkpt>
      <trkpt lat="46.46676" lon="5.29966">
        <ele>228.2</ele>
        <time>2022-06-21T06:22:47Z</time>
      </trkpt>
      <trkpt lat="46.46684" lon="5.30001">
        <ele>228</ele>
        <time>2022-06-21T06:22:50Z</time>
      </trkpt>
      <trkpt lat="46.46706" lon="5.30083">
        <ele>227</ele>
        <time>2022-06-21T06:22:57Z</time>
      </trkpt>
      <trkpt lat="46.46711" lon="5.30106">
        <ele>226.8</ele>
        <time>2022-06-21T06:22:59Z</time>
      </trkpt>
      <trkpt lat="46.46729" lon="5.30183">
        <ele>226.8</ele>
        <time>2022-06-21T06:23:06Z</time>
      </trkpt>
      <trkpt lat="46.46739" lon="5.30213">
        <ele>227</ele>
        <time>2022-06-21T06:23:09Z</time>
      </trkpt>
      <trkpt lat="46.46744" lon="5.30222">
        <ele>227.2</ele>
        <time>2022-06-21T06:23:10Z</time>
      </trkpt>
      <trkpt lat="46.46749" lon="5.3023">
        <ele>227.2</ele>
        <time>2022-06-21T06:23:11Z</time>
      </trkpt>
      <trkpt lat="46.46773" lon="5.30258">
        <ele>227.6</ele>
        <time>2022-06-21T06:23:15Z</time>
      </trkpt>
      <trkpt lat="46.46816" lon="5.3031">
        <ele>228.2</ele>
        <time>2022-06-21T06:23:22Z</time>
      </trkpt>
      <trkpt lat="46.46835" lon="5.30333">
        <ele>228</ele>
        <time>2022-06-21T06:23:25Z</time>
      </trkpt>
      <trkpt lat="46.46867" lon="5.30369">
        <ele>228</ele>
        <time>2022-06-21T06:23:30Z</time>
      </trkpt>
      <trkpt lat="46.46874" lon="5.30374">
        <ele>228</ele>
        <time>2022-06-21T06:23:31Z</time>
      </trkpt>
      <trkpt lat="46.4689" lon="5.30383">
        <ele>227.8</ele>
        <time>2022-06-21T06:23:33Z</time>
      </trkpt>
      <trkpt lat="46.46914" lon="5.30393">
        <ele>227.4</ele>
        <time>2022-06-21T06:23:36Z</time>
      </trkpt>
      <trkpt lat="46.46962" lon="5.30415">
        <ele>227</ele>
        <time>2022-06-21T06:23:42Z</time>
      </trkpt>
      <trkpt lat="46.47006" lon="5.30452">
        <ele>227</ele>
        <time>2022-06-21T06:23:48Z</time>
      </trkpt>
      <trkpt lat="46.47055" lon="5.30494">
        <ele>227.6</ele>
        <time>2022-06-21T06:23:55Z</time>
      </trkpt>
      <trkpt lat="46.47069" lon="5.30506">
        <ele>227.8</ele>
        <time>2022-06-21T06:23:57Z</time>
      </trkpt>
      <trkpt lat="46.47095" lon="5.30528">
        <ele>228.4</ele>
        <time>2022-06-21T06:24:01Z</time>
      </trkpt>
      <trkpt lat="46.47118" lon="5.30542">
        <ele>228.6</ele>
        <time>2022-06-21T06:24:04Z</time>
      </trkpt>
      <trkpt lat="46.47158" lon="5.3056">
        <ele>229</ele>
        <time>2022-06-21T06:24:09Z</time>
      </trkpt>
      <trkpt lat="46.47194" lon="5.30561">
        <ele>228.8</ele>
        <time>2022-06-21T06:24:13Z</time>
      </trkpt>
      <trkpt lat="46.4722" lon="5.30559">
        <ele>228.6</ele>
        <time>2022-06-21T06:24:16Z</time>
      </trkpt>
      <trkpt lat="46.47238" lon="5.30565">
        <ele>228.4</ele>
        <time>2022-06-21T06:24:18Z</time>
      </trkpt>
      <trkpt lat="46.47268" lon="5.30591">
        <ele>228</ele>
        <time>2022-06-21T06:24:22Z</time>
      </trkpt>
      <trkpt lat="46.47307" lon="5.30641">
        <ele>228.4</ele>
        <time>2022-06-21T06:24:28Z</time>
      </trkpt>
      <trkpt lat="46.47315" lon="5.30663">
        <ele>228.4</ele>
        <time>2022-06-21T06:24:30Z</time>
      </trkpt>
      <trkpt lat="46.47316" lon="5.30675">
        <ele>228.6</ele>
        <time>2022-06-21T06:24:31Z</time>
      </trkpt>
      <trkpt lat="46.47319" lon="5.30753">
        <ele>228.4</ele>
        <time>2022-06-21T06:24:37Z</time>
      </trkpt>
      <trkpt lat="46.47321" lon="5.3078">
        <ele>228</ele>
        <time>2022-06-21T06:24:39Z</time>
      </trkpt>
      <trkpt lat="46.47329" lon="5.30868">
        <ele>227.4</ele>
        <time>2022-06-21T06:24:46Z</time>
      </trkpt>
      <trkpt lat="46.47335" lon="5.30888">
        <ele>227.4</ele>
        <time>2022-06-21T06:24:48Z</time>
      </trkpt>
      <trkpt lat="46.47341" lon="5.30895">
        <ele>227.2</ele>
        <time>2022-06-21T06:24:49Z</time>
      </trkpt>
      <trkpt lat="46.47347" lon="5.30898">
        <ele>227.4</ele>
        <time>2022-06-21T06:24:50Z</time>
      </trkpt>
      <trkpt lat="46.47355" lon="5.30899">
        <ele>227.4</ele>
        <time>2022-06-21T06:24:51Z</time>
      </trkpt>
      <trkpt lat="46.47362" lon="5.30897">
        <ele>227.4</ele>
        <time>2022-06-21T06:24:52Z</time>
      </trkpt>
      <trkpt lat="46.47387" lon="5.30888">
        <ele>227.8</ele>
        <time>2022-06-21T06:24:55Z</time>
      </trkpt>
      <trkpt lat="46.47439" lon="5.30861">
        <ele>227.6</ele>
        <time>2022-06-21T06:25:01Z</time>
      </trkpt>
      <trkpt lat="46.47448" lon="5.30857">
        <ele>227.6</ele>
        <time>2022-06-21T06:25:02Z</time>
      </trkpt>
      <trkpt lat="46.47505" lon="5.30827">
        <ele>228.6</ele>
        <time>2022-06-21T06:25:09Z</time>
      </trkpt>
      <trkpt lat="46.47543" lon="5.30811">
        <ele>229</ele>
        <time>2022-06-21T06:25:14Z</time>
      </trkpt>
      <trkpt lat="46.47566" lon="5.30806">
        <ele>229.2</ele>
        <time>2022-06-21T06:25:17Z</time>
      </trkpt>
      <trkpt lat="46.47597" lon="5.30802">
        <ele>229.4</ele>
        <time>2022-06-21T06:25:21Z</time>
      </trkpt>
      <trkpt lat="46.47653" lon="5.30793">
        <ele>229.4</ele>
        <time>2022-06-21T06:25:28Z</time>
      </trkpt>
      <trkpt lat="46.4771" lon="5.30785">
        <ele>229.2</ele>
        <time>2022-06-21T06:25:35Z</time>
      </trkpt>
      <trkpt lat="46.47718" lon="5.30783">
        <ele>229.2</ele>
        <time>2022-06-21T06:25:36Z</time>
      </trkpt>
      <trkpt lat="46.47776" lon="5.30773">
        <ele>229</ele>
        <time>2022-06-21T06:25:43Z</time>
      </trkpt>
      <trkpt lat="46.47823" lon="5.30771">
        <ele>228.4</ele>
        <time>2022-06-21T06:25:49Z</time>
      </trkpt>
      <trkpt lat="46.47837" lon="5.30776">
        <ele>228.6</ele>
        <time>2022-06-21T06:25:51Z</time>
      </trkpt>
      <trkpt lat="46.47841" lon="5.3078">
        <ele>228.6</ele>
        <time>2022-06-21T06:25:52Z</time>
      </trkpt>
      <trkpt lat="46.47845" lon="5.30786">
        <ele>228.8</ele>
        <time>2022-06-21T06:25:53Z</time>
      </trkpt>
      <trkpt lat="46.47849" lon="5.30795">
        <ele>229.2</ele>
        <time>2022-06-21T06:25:55Z</time>
      </trkpt>
      <trkpt lat="46.47859" lon="5.30801">
        <ele>230.2</ele>
        <time>2022-06-21T06:25:57Z</time>
      </trkpt>
      <trkpt lat="46.47865" lon="5.30802">
        <ele>230.6</ele>
        <time>2022-06-21T06:25:58Z</time>
      </trkpt>
      <trkpt lat="46.47898" lon="5.30808">
        <ele>231</ele>
        <time>2022-06-21T06:26:02Z</time>
      </trkpt>
      <trkpt lat="46.47936" lon="5.30819">
        <ele>230.2</ele>
        <time>2022-06-21T06:26:06Z</time>
      </trkpt>
      <trkpt lat="46.47949" lon="5.3082">
        <ele>229.6</ele>
        <time>2022-06-21T06:26:07Z</time>
      </trkpt>
      <trkpt lat="46.4796" lon="5.30818">
        <ele>229</ele>
        <time>2022-06-21T06:26:08Z</time>
      </trkpt>
      <trkpt lat="46.47979" lon="5.30812">
        <ele>228</ele>
        <time>2022-06-21T06:26:10Z</time>
      </trkpt>
      <trkpt lat="46.48001" lon="5.308">
        <ele>226.8</ele>
        <time>2022-06-21T06:26:12Z</time>
      </trkpt>
      <trkpt lat="46.48028" lon="5.30786">
        <ele>226</ele>
        <time>2022-06-21T06:26:15Z</time>
      </trkpt>
      <trkpt lat="46.48074" lon="5.3076">
        <ele>226.8</ele>
        <time>2022-06-21T06:26:21Z</time>
      </trkpt>
      <trkpt lat="46.4813" lon="5.30729">
        <ele>228</ele>
        <time>2022-06-21T06:26:28Z</time>
      </trkpt>
      <trkpt lat="46.48138" lon="5.30725">
        <ele>228</ele>
        <time>2022-06-21T06:26:29Z</time>
      </trkpt>
      <trkpt lat="46.48197" lon="5.30693">
        <ele>227.4</ele>
        <time>2022-06-21T06:26:36Z</time>
      </trkpt>
      <trkpt lat="46.48205" lon="5.3069">
        <ele>227.2</ele>
        <time>2022-06-21T06:26:37Z</time>
      </trkpt>
      <trkpt lat="46.48214" lon="5.30687">
        <ele>226.6</ele>
        <time>2022-06-21T06:26:38Z</time>
      </trkpt>
      <trkpt lat="46.48234" lon="5.30685">
        <ele>226.4</ele>
        <time>2022-06-21T06:26:40Z</time>
      </trkpt>
      <trkpt lat="46.48244" lon="5.30687">
        <ele>226</ele>
        <time>2022-06-21T06:26:41Z</time>
      </trkpt>
      <trkpt lat="46.48253" lon="5.30689">
        <ele>226</ele>
        <time>2022-06-21T06:26:42Z</time>
      </trkpt>
      <trkpt lat="46.48273" lon="5.30695">
        <ele>225.4</ele>
        <time>2022-06-21T06:26:44Z</time>
      </trkpt>
      <trkpt lat="46.48305" lon="5.30699">
        <ele>224.8</ele>
        <time>2022-06-21T06:26:47Z</time>
      </trkpt>
      <trkpt lat="46.48313" lon="5.30698">
        <ele>224.4</ele>
        <time>2022-06-21T06:26:48Z</time>
      </trkpt>
      <trkpt lat="46.48322" lon="5.30696">
        <ele>224.2</ele>
        <time>2022-06-21T06:26:49Z</time>
      </trkpt>
      <trkpt lat="46.48342" lon="5.30686">
        <ele>223.8</ele>
        <time>2022-06-21T06:26:51Z</time>
      </trkpt>
      <trkpt lat="46.4835" lon="5.3068">
        <ele>223.6</ele>
        <time>2022-06-21T06:26:52Z</time>
      </trkpt>
      <trkpt lat="46.48373" lon="5.30659">
        <ele>223.4</ele>
        <time>2022-06-21T06:26:55Z</time>
      </trkpt>
      <trkpt lat="46.4842" lon="5.30611">
        <ele>223.8</ele>
        <time>2022-06-21T06:27:02Z</time>
      </trkpt>
      <trkpt lat="46.48466" lon="5.30568">
        <ele>224.6</ele>
        <time>2022-06-21T06:27:09Z</time>
      </trkpt>
      <trkpt lat="46.48472" lon="5.30562">
        <ele>224.6</ele>
        <time>2022-06-21T06:27:10Z</time>
      </trkpt>
      <trkpt lat="46.48504" lon="5.30532">
        <ele>225.2</ele>
        <time>2022-06-21T06:27:15Z</time>
      </trkpt>
      <trkpt lat="46.48527" lon="5.30511">
        <ele>225.2</ele>
        <time>2022-06-21T06:27:19Z</time>
      </trkpt>
      <trkpt lat="46.48539" lon="5.30503">
        <ele>225.4</ele>
        <time>2022-06-21T06:27:21Z</time>
      </trkpt>
      <trkpt lat="46.48555" lon="5.30495">
        <ele>225.2</ele>
        <time>2022-06-21T06:27:24Z</time>
      </trkpt>
      <trkpt lat="46.48561" lon="5.30497">
        <ele>225.2</ele>
        <time>2022-06-21T06:27:25Z</time>
      </trkpt>
      <trkpt lat="46.48563" lon="5.30502">
        <ele>225.2</ele>
        <time>2022-06-21T06:27:26Z</time>
      </trkpt>
      <trkpt lat="46.48564" lon="5.30509">
        <ele>224.8</ele>
        <time>2022-06-21T06:27:27Z</time>
      </trkpt>
      <trkpt lat="46.48563" lon="5.30526">
        <ele>224.8</ele>
        <time>2022-06-21T06:27:29Z</time>
      </trkpt>
      <trkpt lat="46.4856" lon="5.30545">
        <ele>224.6</ele>
        <time>2022-06-21T06:27:31Z</time>
      </trkpt>
      <trkpt lat="46.48551" lon="5.30599">
        <ele>224</ele>
        <time>2022-06-21T06:27:36Z</time>
      </trkpt>
      <trkpt lat="46.48546" lon="5.30635">
        <ele>223.4</ele>
        <time>2022-06-21T06:27:39Z</time>
      </trkpt>
      <trkpt lat="46.48543" lon="5.3066">
        <ele>223</ele>
        <time>2022-06-21T06:27:41Z</time>
      </trkpt>
      <trkpt lat="46.48543" lon="5.30673">
        <ele>222.8</ele>
        <time>2022-06-21T06:27:42Z</time>
      </trkpt>
      <trkpt lat="46.48547" lon="5.307">
        <ele>222.4</ele>
        <time>2022-06-21T06:27:44Z</time>
      </trkpt>
      <trkpt lat="46.48551" lon="5.30713">
        <ele>222</ele>
        <time>2022-06-21T06:27:45Z</time>
      </trkpt>
      <trkpt lat="46.48556" lon="5.30725">
        <ele>221.8</ele>
        <time>2022-06-21T06:27:46Z</time>
      </trkpt>
      <trkpt lat="46.48568" lon="5.30746">
        <ele>221.4</ele>
        <time>2022-06-21T06:27:48Z</time>
      </trkpt>
      <trkpt lat="46.48583" lon="5.30763">
        <ele>220.2</ele>
        <time>2022-06-21T06:27:50Z</time>
      </trkpt>
      <trkpt lat="46.48608" lon="5.30785">
        <ele>219.2</ele>
        <time>2022-06-21T06:27:53Z</time>
      </trkpt>
      <trkpt lat="46.48635" lon="5.30804">
        <ele>218.4</ele>
        <time>2022-06-21T06:27:56Z</time>
      </trkpt>
      <trkpt lat="46.48643" lon="5.30809">
        <ele>218.2</ele>
        <time>2022-06-21T06:27:57Z</time>
      </trkpt>
      <trkpt lat="46.48681" lon="5.30834">
        <ele>217.4</ele>
        <time>2022-06-21T06:28:02Z</time>
      </trkpt>
      <trkpt lat="46.48721" lon="5.30864">
        <ele>217.6</ele>
        <time>2022-06-21T06:28:08Z</time>
      </trkpt>
      <trkpt lat="46.48725" lon="5.30874">
        <ele>217.8</ele>
        <time>2022-06-21T06:28:09Z</time>
      </trkpt>
      <trkpt lat="46.48725" lon="5.30885">
        <ele>217.8</ele>
        <time>2022-06-21T06:28:10Z</time>
      </trkpt>
      <trkpt lat="46.48724" lon="5.30896">
        <ele>217.8</ele>
        <time>2022-06-21T06:28:11Z</time>
      </trkpt>
      <trkpt lat="46.4872" lon="5.30906">
        <ele>218</ele>
        <time>2022-06-21T06:28:12Z</time>
      </trkpt>
      <trkpt lat="46.4871" lon="5.30922">
        <ele>218.2</ele>
        <time>2022-06-21T06:28:14Z</time>
      </trkpt>
      <trkpt lat="46.48699" lon="5.30937">
        <ele>218.6</ele>
        <time>2022-06-21T06:28:16Z</time>
      </trkpt>
      <trkpt lat="46.4869" lon="5.30955">
        <ele>219.2</ele>
        <time>2022-06-21T06:28:18Z</time>
      </trkpt>
      <trkpt lat="46.48685" lon="5.30963">
        <ele>219.6</ele>
        <time>2022-06-21T06:28:19Z</time>
      </trkpt>
      <trkpt lat="46.48681" lon="5.30972">
        <ele>220.2</ele>
        <time>2022-06-21T06:28:20Z</time>
      </trkpt>
      <trkpt lat="46.48663" lon="5.31008">
        <ele>221.2</ele>
        <time>2022-06-21T06:28:24Z</time>
      </trkpt>
      <trkpt lat="46.48659" lon="5.31017">
        <ele>221.6</ele>
        <time>2022-06-21T06:28:25Z</time>
      </trkpt>
      <trkpt lat="46.48654" lon="5.31027">
        <ele>221.8</ele>
        <time>2022-06-21T06:28:26Z</time>
      </trkpt>
      <trkpt lat="46.48619" lon="5.31099">
        <ele>221.8</ele>
        <time>2022-06-21T06:28:33Z</time>
      </trkpt>
      <trkpt lat="46.48614" lon="5.3111">
        <ele>221.6</ele>
        <time>2022-06-21T06:28:34Z</time>
      </trkpt>
      <trkpt lat="46.48588" lon="5.31163">
        <ele>220.4</ele>
        <time>2022-06-21T06:28:39Z</time>
      </trkpt>
      <trkpt lat="46.48567" lon="5.31206">
        <ele>219.4</ele>
        <time>2022-06-21T06:28:43Z</time>
      </trkpt>
      <trkpt lat="46.48562" lon="5.31217">
        <ele>219</ele>
        <time>2022-06-21T06:28:44Z</time>
      </trkpt>
      <trkpt lat="46.48553" lon="5.31241">
        <ele>218.6</ele>
        <time>2022-06-21T06:28:46Z</time>
      </trkpt>
      <trkpt lat="46.48551" lon="5.31254">
        <ele>218.6</ele>
        <time>2022-06-21T06:28:47Z</time>
      </trkpt>
      <trkpt lat="46.4855" lon="5.31267">
        <ele>218.4</ele>
        <time>2022-06-21T06:28:48Z</time>
      </trkpt>
      <trkpt lat="46.48552" lon="5.31294">
        <ele>217.6</ele>
        <time>2022-06-21T06:28:50Z</time>
      </trkpt>
      <trkpt lat="46.48555" lon="5.31333">
        <ele>216.6</ele>
        <time>2022-06-21T06:28:53Z</time>
      </trkpt>
      <trkpt lat="46.48559" lon="5.31358">
        <ele>216</ele>
        <time>2022-06-21T06:28:55Z</time>
      </trkpt>
      <trkpt lat="46.48563" lon="5.3137">
        <ele>216</ele>
        <time>2022-06-21T06:28:56Z</time>
      </trkpt>
      <trkpt lat="46.48569" lon="5.31382">
        <ele>215.6</ele>
        <time>2022-06-21T06:28:57Z</time>
      </trkpt>
      <trkpt lat="46.48576" lon="5.31392">
        <ele>215.4</ele>
        <time>2022-06-21T06:28:58Z</time>
      </trkpt>
      <trkpt lat="46.48584" lon="5.31401">
        <ele>215</ele>
        <time>2022-06-21T06:28:59Z</time>
      </trkpt>
      <trkpt lat="46.48593" lon="5.3141">
        <ele>214.6</ele>
        <time>2022-06-21T06:29:00Z</time>
      </trkpt>
      <trkpt lat="46.48601" lon="5.31423">
        <ele>214.2</ele>
        <time>2022-06-21T06:29:01Z</time>
      </trkpt>
      <trkpt lat="46.48606" lon="5.31437">
        <ele>213.6</ele>
        <time>2022-06-21T06:29:02Z</time>
      </trkpt>
      <trkpt lat="46.48608" lon="5.31469">
        <ele>212.8</ele>
        <time>2022-06-21T06:29:04Z</time>
      </trkpt>
      <trkpt lat="46.48609" lon="5.31499">
        <ele>211.6</ele>
        <time>2022-06-21T06:29:06Z</time>
      </trkpt>
      <trkpt lat="46.48612" lon="5.31511">
        <ele>211</ele>
        <time>2022-06-21T06:29:07Z</time>
      </trkpt>
      <trkpt lat="46.48621" lon="5.31531">
        <ele>210.4</ele>
        <time>2022-06-21T06:29:09Z</time>
      </trkpt>
      <trkpt lat="46.48626" lon="5.31539">
        <ele>210.2</ele>
        <time>2022-06-21T06:29:10Z</time>
      </trkpt>
      <trkpt lat="46.48655" lon="5.31572">
        <ele>210</ele>
        <time>2022-06-21T06:29:14Z</time>
      </trkpt>
      <trkpt lat="46.48691" lon="5.31614">
        <ele>210</ele>
        <time>2022-06-21T06:29:19Z</time>
      </trkpt>
      <trkpt lat="46.48737" lon="5.31662">
        <ele>209.6</ele>
        <time>2022-06-21T06:29:25Z</time>
      </trkpt>
      <trkpt lat="46.48765" lon="5.31701">
        <ele>209.8</ele>
        <time>2022-06-21T06:29:30Z</time>
      </trkpt>
      <trkpt lat="46.48778" lon="5.31719">
        <ele>209.6</ele>
        <time>2022-06-21T06:29:32Z</time>
      </trkpt>
      <trkpt lat="46.48783" lon="5.31743">
        <ele>209.6</ele>
        <time>2022-06-21T06:29:34Z</time>
      </trkpt>
      <trkpt lat="46.48784" lon="5.31793">
        <ele>209.4</ele>
        <time>2022-06-21T06:29:38Z</time>
      </trkpt>
      <trkpt lat="46.48784" lon="5.31805">
        <ele>209</ele>
        <time>2022-06-21T06:29:39Z</time>
      </trkpt>
      <trkpt lat="46.48785" lon="5.31818">
        <ele>209</ele>
        <time>2022-06-21T06:29:40Z</time>
      </trkpt>
      <trkpt lat="46.48789" lon="5.31829">
        <ele>208.8</ele>
        <time>2022-06-21T06:29:41Z</time>
      </trkpt>
      <trkpt lat="46.48794" lon="5.31839">
        <ele>208.8</ele>
        <time>2022-06-21T06:29:42Z</time>
      </trkpt>
      <trkpt lat="46.4881" lon="5.3185">
        <ele>208.8</ele>
        <time>2022-06-21T06:29:44Z</time>
      </trkpt>
      <trkpt lat="46.48826" lon="5.3186">
        <ele>208.6</ele>
        <time>2022-06-21T06:29:46Z</time>
      </trkpt>
      <trkpt lat="46.48833" lon="5.31868">
        <ele>208.6</ele>
        <time>2022-06-21T06:29:47Z</time>
      </trkpt>
      <trkpt lat="46.48838" lon="5.31878">
        <ele>208.6</ele>
        <time>2022-06-21T06:29:48Z</time>
      </trkpt>
      <trkpt lat="46.48841" lon="5.31889">
        <ele>208.6</ele>
        <time>2022-06-21T06:29:49Z</time>
      </trkpt>
      <trkpt lat="46.48843" lon="5.31901">
        <ele>208.6</ele>
        <time>2022-06-21T06:29:50Z</time>
      </trkpt>
      <trkpt lat="46.48846" lon="5.31938">
        <ele>208.6</ele>
        <time>2022-06-21T06:29:53Z</time>
      </trkpt>
      <trkpt lat="46.48847" lon="5.32007">
        <ele>209.2</ele>
        <time>2022-06-21T06:29:59Z</time>
      </trkpt>
      <trkpt lat="46.48834" lon="5.32083">
        <ele>210</ele>
        <time>2022-06-21T06:30:06Z</time>
      </trkpt>
      <trkpt lat="46.48832" lon="5.32093">
        <ele>210.2</ele>
        <time>2022-06-21T06:30:07Z</time>
      </trkpt>
      <trkpt lat="46.48824" lon="5.32154">
        <ele>210.8</ele>
        <time>2022-06-21T06:30:13Z</time>
      </trkpt>
      <trkpt lat="46.48825" lon="5.32174">
        <ele>211.2</ele>
        <time>2022-06-21T06:30:15Z</time>
      </trkpt>
      <trkpt lat="46.48828" lon="5.32202">
        <ele>211.8</ele>
        <time>2022-06-21T06:30:18Z</time>
      </trkpt>
      <trkpt lat="46.48834" lon="5.3223">
        <ele>212.2</ele>
        <time>2022-06-21T06:30:21Z</time>
      </trkpt>
      <trkpt lat="46.4884" lon="5.32248">
        <ele>212.4</ele>
        <time>2022-06-21T06:30:23Z</time>
      </trkpt>
      <trkpt lat="46.48849" lon="5.32264">
        <ele>212.6</ele>
        <time>2022-06-21T06:30:25Z</time>
      </trkpt>
      <trkpt lat="46.48861" lon="5.32281">
        <ele>212.6</ele>
        <time>2022-06-21T06:30:27Z</time>
      </trkpt>
      <trkpt lat="46.48889" lon="5.3232">
        <ele>212.4</ele>
        <time>2022-06-21T06:30:31Z</time>
      </trkpt>
      <trkpt lat="46.48904" lon="5.32344">
        <ele>211.6</ele>
        <time>2022-06-21T06:30:33Z</time>
      </trkpt>
      <trkpt lat="46.48914" lon="5.32371">
        <ele>209.8</ele>
        <time>2022-06-21T06:30:35Z</time>
      </trkpt>
      <trkpt lat="46.48922" lon="5.32398">
        <ele>208.4</ele>
        <time>2022-06-21T06:30:37Z</time>
      </trkpt>
      <trkpt lat="46.48934" lon="5.32437">
        <ele>207.4</ele>
        <time>2022-06-21T06:30:40Z</time>
      </trkpt>
      <trkpt lat="46.48938" lon="5.32451">
        <ele>207.2</ele>
        <time>2022-06-21T06:30:41Z</time>
      </trkpt>
      <trkpt lat="46.48956" lon="5.32512">
        <ele>206.6</ele>
        <time>2022-06-21T06:30:46Z</time>
      </trkpt>
      <trkpt lat="46.48958" lon="5.32524">
        <ele>206.4</ele>
        <time>2022-06-21T06:30:47Z</time>
      </trkpt>
      <trkpt lat="46.48958" lon="5.3255">
        <ele>205.8</ele>
        <time>2022-06-21T06:30:49Z</time>
      </trkpt>
      <trkpt lat="46.48951" lon="5.3257">
        <ele>205.8</ele>
        <time>2022-06-21T06:30:51Z</time>
      </trkpt>
      <trkpt lat="46.48946" lon="5.32578">
        <ele>205.8</ele>
        <time>2022-06-21T06:30:52Z</time>
      </trkpt>
      <trkpt lat="46.48935" lon="5.32593">
        <ele>206</ele>
        <time>2022-06-21T06:30:54Z</time>
      </trkpt>
      <trkpt lat="46.48928" lon="5.32609">
        <ele>206.4</ele>
        <time>2022-06-21T06:30:56Z</time>
      </trkpt>
      <trkpt lat="46.48924" lon="5.32627">
        <ele>206.6</ele>
        <time>2022-06-21T06:30:58Z</time>
      </trkpt>
      <trkpt lat="46.48924" lon="5.32636">
        <ele>206.6</ele>
        <time>2022-06-21T06:30:59Z</time>
      </trkpt>
      <trkpt lat="46.48925" lon="5.32644">
        <ele>207</ele>
        <time>2022-06-21T06:31:00Z</time>
      </trkpt>
      <trkpt lat="46.4893" lon="5.32657">
        <ele>207.8</ele>
        <time>2022-06-21T06:31:02Z</time>
      </trkpt>
      <trkpt lat="46.48939" lon="5.32674">
        <ele>209</ele>
        <time>2022-06-21T06:31:05Z</time>
      </trkpt>
      <trkpt lat="46.48945" lon="5.32684">
        <ele>209.6</ele>
        <time>2022-06-21T06:31:07Z</time>
      </trkpt>
      <trkpt lat="46.48951" lon="5.32693">
        <ele>210.4</ele>
        <time>2022-06-21T06:31:09Z</time>
      </trkpt>
      <trkpt lat="46.48962" lon="5.32703">
        <ele>211</ele>
        <time>2022-06-21T06:31:12Z</time>
      </trkpt>
      <trkpt lat="46.48966" lon="5.32706">
        <ele>211</ele>
        <time>2022-06-21T06:31:13Z</time>
      </trkpt>
      <trkpt lat="46.4897" lon="5.32708">
        <ele>211.6</ele>
        <time>2022-06-21T06:31:14Z</time>
      </trkpt>
      <trkpt lat="46.48974" lon="5.32709">
        <ele>211.8</ele>
        <time>2022-06-21T06:31:15Z</time>
      </trkpt>
      <trkpt lat="46.48989" lon="5.32712">
        <ele>212.8</ele>
        <time>2022-06-21T06:31:19Z</time>
      </trkpt>
      <trkpt lat="46.49006" lon="5.32712">
        <ele>213.6</ele>
        <time>2022-06-21T06:31:23Z</time>
      </trkpt>
      <trkpt lat="46.49011" lon="5.32711">
        <ele>214</ele>
        <time>2022-06-21T06:31:24Z</time>
      </trkpt>
      <trkpt lat="46.49023" lon="5.3271">
        <ele>214.6</ele>
        <time>2022-06-21T06:31:27Z</time>
      </trkpt>
      <trkpt lat="46.49027" lon="5.32709">
        <ele>215</ele>
        <time>2022-06-21T06:31:28Z</time>
      </trkpt>
      <trkpt lat="46.4905" lon="5.32706">
        <ele>216</ele>
        <time>2022-06-21T06:31:33Z</time>
      </trkpt>
      <trkpt lat="46.49063" lon="5.32702">
        <ele>216.4</ele>
        <time>2022-06-21T06:31:36Z</time>
      </trkpt>
      <trkpt lat="46.49081" lon="5.32699">
        <ele>217.2</ele>
        <time>2022-06-21T06:31:40Z</time>
      </trkpt>
      <trkpt lat="46.49093" lon="5.32696">
        <ele>217.8</ele>
        <time>2022-06-21T06:31:43Z</time>
      </trkpt>
      <trkpt lat="46.49098" lon="5.32696">
        <ele>218.2</ele>
        <time>2022-06-21T06:31:44Z</time>
      </trkpt>
      <trkpt lat="46.49106" lon="5.32696">
        <ele>218.4</ele>
        <time>2022-06-21T06:31:46Z</time>
      </trkpt>
      <trkpt lat="46.49115" lon="5.32699">
        <ele>219</ele>
        <time>2022-06-21T06:31:48Z</time>
      </trkpt>
      <trkpt lat="46.49119" lon="5.32702">
        <ele>219.4</ele>
        <time>2022-06-21T06:31:49Z</time>
      </trkpt>
      <trkpt lat="46.49123" lon="5.32707">
        <ele>219.4</ele>
        <time>2022-06-21T06:31:50Z</time>
      </trkpt>
      <trkpt lat="46.49129" lon="5.32718">
        <ele>219.8</ele>
        <time>2022-06-21T06:31:52Z</time>
      </trkpt>
      <trkpt lat="46.49133" lon="5.32731">
        <ele>220.4</ele>
        <time>2022-06-21T06:31:54Z</time>
      </trkpt>
      <trkpt lat="46.49139" lon="5.32759">
        <ele>220.8</ele>
        <time>2022-06-21T06:31:58Z</time>
      </trkpt>
      <trkpt lat="46.49144" lon="5.32802">
        <ele>221</ele>
        <time>2022-06-21T06:32:03Z</time>
      </trkpt>
      <trkpt lat="46.49143" lon="5.32832">
        <ele>221</ele>
        <time>2022-06-21T06:32:06Z</time>
      </trkpt>
      <trkpt lat="46.49141" lon="5.32843">
        <ele>221</ele>
        <time>2022-06-21T06:32:07Z</time>
      </trkpt>
      <trkpt lat="46.49126" lon="5.32901">
        <ele>220.2</ele>
        <time>2022-06-21T06:32:13Z</time>
      </trkpt>
      <trkpt lat="46.49123" lon="5.32952">
        <ele>219.6</ele>
        <time>2022-06-21T06:32:18Z</time>
      </trkpt>
      <trkpt lat="46.49123" lon="5.32962">
        <ele>219.8</ele>
        <time>2022-06-21T06:32:19Z</time>
      </trkpt>
      <trkpt lat="46.49125" lon="5.33">
        <ele>220</ele>
        <time>2022-06-21T06:32:23Z</time>
      </trkpt>
      <trkpt lat="46.49129" lon="5.33026">
        <ele>220.2</ele>
        <time>2022-06-21T06:32:26Z</time>
      </trkpt>
      <trkpt lat="46.49133" lon="5.33044">
        <ele>220.6</ele>
        <time>2022-06-21T06:32:28Z</time>
      </trkpt>
      <trkpt lat="46.49138" lon="5.33071">
        <ele>220.8</ele>
        <time>2022-06-21T06:32:31Z</time>
      </trkpt>
      <trkpt lat="46.49143" lon="5.33089">
        <ele>221.2</ele>
        <time>2022-06-21T06:32:33Z</time>
      </trkpt>
      <trkpt lat="46.49147" lon="5.33099">
        <ele>221.2</ele>
        <time>2022-06-21T06:32:34Z</time>
      </trkpt>
      <trkpt lat="46.4916" lon="5.33125">
        <ele>221.4</ele>
        <time>2022-06-21T06:32:37Z</time>
      </trkpt>
      <trkpt lat="46.49165" lon="5.33132">
        <ele>221.4</ele>
        <time>2022-06-21T06:32:38Z</time>
      </trkpt>
      <trkpt lat="46.49184" lon="5.3315">
        <ele>221.4</ele>
        <time>2022-06-21T06:32:41Z</time>
      </trkpt>
      <trkpt lat="46.49229" lon="5.33185">
        <ele>221.6</ele>
        <time>2022-06-21T06:32:48Z</time>
      </trkpt>
      <trkpt lat="46.49241" lon="5.33195">
        <ele>221.6</ele>
        <time>2022-06-21T06:32:50Z</time>
      </trkpt>
      <trkpt lat="46.49251" lon="5.33208">
        <ele>221.8</ele>
        <time>2022-06-21T06:32:52Z</time>
      </trkpt>
      <trkpt lat="46.4926" lon="5.33225">
        <ele>222</ele>
        <time>2022-06-21T06:32:54Z</time>
      </trkpt>
      <trkpt lat="46.49267" lon="5.33242">
        <ele>222.4</ele>
        <time>2022-06-21T06:32:56Z</time>
      </trkpt>
      <trkpt lat="46.49269" lon="5.33251">
        <ele>222.6</ele>
        <time>2022-06-21T06:32:57Z</time>
      </trkpt>
      <trkpt lat="46.49279" lon="5.33306">
        <ele>223.6</ele>
        <time>2022-06-21T06:33:03Z</time>
      </trkpt>
      <trkpt lat="46.4929" lon="5.33361">
        <ele>224.6</ele>
        <time>2022-06-21T06:33:09Z</time>
      </trkpt>
      <trkpt lat="46.49294" lon="5.33379">
        <ele>224.8</ele>
        <time>2022-06-21T06:33:11Z</time>
      </trkpt>
      <trkpt lat="46.49308" lon="5.33449">
        <ele>225.8</ele>
        <time>2022-06-21T06:33:19Z</time>
      </trkpt>
      <trkpt lat="46.49309" lon="5.33458">
        <ele>225.8</ele>
        <time>2022-06-21T06:33:20Z</time>
      </trkpt>
      <trkpt lat="46.49316" lon="5.33506">
        <ele>226.2</ele>
        <time>2022-06-21T06:33:25Z</time>
      </trkpt>
      <trkpt lat="46.49319" lon="5.33547">
        <ele>226</ele>
        <time>2022-06-21T06:33:29Z</time>
      </trkpt>
      <trkpt lat="46.49316" lon="5.33568">
        <ele>226</ele>
        <time>2022-06-21T06:33:31Z</time>
      </trkpt>
      <trkpt lat="46.49306" lon="5.33618">
        <ele>226</ele>
        <time>2022-06-21T06:33:36Z</time>
      </trkpt>
      <trkpt lat="46.49303" lon="5.33678">
        <ele>226.2</ele>
        <time>2022-06-21T06:33:42Z</time>
      </trkpt>
      <trkpt lat="46.49298" lon="5.33745">
        <ele>226.4</ele>
        <time>2022-06-21T06:33:49Z</time>
      </trkpt>
      <trkpt lat="46.49296" lon="5.33754">
        <ele>226.6</ele>
        <time>2022-06-21T06:33:50Z</time>
      </trkpt>
      <trkpt lat="46.49287" lon="5.33801">
        <ele>227</ele>
        <time>2022-06-21T06:33:55Z</time>
      </trkpt>
      <trkpt lat="46.49276" lon="5.33861">
        <ele>227.6</ele>
        <time>2022-06-21T06:34:01Z</time>
      </trkpt>
      <trkpt lat="46.49273" lon="5.33871">
        <ele>227.6</ele>
        <time>2022-06-21T06:34:02Z</time>
      </trkpt>
      <trkpt lat="46.49259" lon="5.33947">
        <ele>227.8</ele>
        <time>2022-06-21T06:34:08Z</time>
      </trkpt>
      <trkpt lat="46.49247" lon="5.34014">
        <ele>228</ele>
        <time>2022-06-21T06:34:15Z</time>
      </trkpt>
      <trkpt lat="46.49243" lon="5.34036">
        <ele>228</ele>
        <time>2022-06-21T06:34:16Z</time>
      </trkpt>
      <trkpt lat="46.49226" lon="5.34119">
        <ele>228</ele>
        <time>2022-06-21T06:34:23Z</time>
      </trkpt>
      <trkpt lat="46.49226" lon="5.34119">
        <ele>227.8</ele>
        <time>2022-06-21T06:34:24Z</time>
      </trkpt>
      <trkpt lat="46.49209" lon="5.34215">
        <ele>226.2</ele>
        <time>2022-06-21T06:34:30Z</time>
      </trkpt>
      <trkpt lat="46.49209" lon="5.34215">
        <ele>225.8</ele>
        <time>2022-06-21T06:34:31Z</time>
      </trkpt>
      <trkpt lat="46.49194" lon="5.3429">
        <ele>225.2</ele>
        <time>2022-06-21T06:34:36Z</time>
      </trkpt>
      <trkpt lat="46.4919" lon="5.34313">
        <ele>225.2</ele>
        <time>2022-06-21T06:34:38Z</time>
      </trkpt>
      <trkpt lat="46.49178" lon="5.34378">
        <ele>225.8</ele>
        <time>2022-06-21T06:34:44Z</time>
      </trkpt>
      <trkpt lat="46.49164" lon="5.34452">
        <ele>225.8</ele>
        <time>2022-06-21T06:34:50Z</time>
      </trkpt>
      <trkpt lat="46.49155" lon="5.345">
        <ele>225</ele>
        <time>2022-06-21T06:34:54Z</time>
      </trkpt>
      <trkpt lat="46.4915" lon="5.34523">
        <ele>224.8</ele>
        <time>2022-06-21T06:34:56Z</time>
      </trkpt>
      <trkpt lat="46.49139" lon="5.34577">
        <ele>224.8</ele>
        <time>2022-06-21T06:35:01Z</time>
      </trkpt>
      <trkpt lat="46.49124" lon="5.34653">
        <ele>225.4</ele>
        <time>2022-06-21T06:35:08Z</time>
      </trkpt>
      <trkpt lat="46.4911" lon="5.34725">
        <ele>225.2</ele>
        <time>2022-06-21T06:35:14Z</time>
      </trkpt>
      <trkpt lat="46.49099" lon="5.34778">
        <ele>225</ele>
        <time>2022-06-21T06:35:20Z</time>
      </trkpt>
      <trkpt lat="46.49085" lon="5.34848">
        <ele>225.4</ele>
        <time>2022-06-21T06:35:26Z</time>
      </trkpt>
      <trkpt lat="46.49079" lon="5.34886">
        <ele>226.2</ele>
        <time>2022-06-21T06:35:30Z</time>
      </trkpt>
      <trkpt lat="46.49075" lon="5.34905">
        <ele>226.6</ele>
        <time>2022-06-21T06:35:33Z</time>
      </trkpt>
      <trkpt lat="46.49066" lon="5.34951">
        <ele>227.4</ele>
        <time>2022-06-21T06:35:38Z</time>
      </trkpt>
      <trkpt lat="46.49063" lon="5.34969">
        <ele>227.6</ele>
        <time>2022-06-21T06:35:39Z</time>
      </trkpt>
      <trkpt lat="46.49055" lon="5.35014">
        <ele>228.4</ele>
        <time>2022-06-21T06:35:44Z</time>
      </trkpt>
      <trkpt lat="46.4905" lon="5.35041">
        <ele>229</ele>
        <time>2022-06-21T06:35:47Z</time>
      </trkpt>
      <trkpt lat="46.49048" lon="5.35049">
        <ele>229.4</ele>
        <time>2022-06-21T06:35:48Z</time>
      </trkpt>
      <trkpt lat="46.4904" lon="5.35085">
        <ele>229.8</ele>
        <time>2022-06-21T06:35:52Z</time>
      </trkpt>
      <trkpt lat="46.49035" lon="5.35103">
        <ele>230</ele>
        <time>2022-06-21T06:35:54Z</time>
      </trkpt>
      <trkpt lat="46.49028" lon="5.3513">
        <ele>230.4</ele>
        <time>2022-06-21T06:35:57Z</time>
      </trkpt>
      <trkpt lat="46.49017" lon="5.35156">
        <ele>230.8</ele>
        <time>2022-06-21T06:36:00Z</time>
      </trkpt>
      <trkpt lat="46.48992" lon="5.35213">
        <ele>231.2</ele>
        <time>2022-06-21T06:36:06Z</time>
      </trkpt>
      <trkpt lat="46.48987" lon="5.35224">
        <ele>231.2</ele>
        <time>2022-06-21T06:36:07Z</time>
      </trkpt>
      <trkpt lat="46.48954" lon="5.35297">
        <ele>230.6</ele>
        <time>2022-06-21T06:36:14Z</time>
      </trkpt>
      <trkpt lat="46.48927" lon="5.35357">
        <ele>229.4</ele>
        <time>2022-06-21T06:36:20Z</time>
      </trkpt>
      <trkpt lat="46.48919" lon="5.35377">
        <ele>229.2</ele>
        <time>2022-06-21T06:36:22Z</time>
      </trkpt>
      <trkpt lat="46.48891" lon="5.3544">
        <ele>229.4</ele>
        <time>2022-06-21T06:36:29Z</time>
      </trkpt>
      <trkpt lat="46.48877" lon="5.35474">
        <ele>229.6</ele>
        <time>2022-06-21T06:36:33Z</time>
      </trkpt>
      <trkpt lat="46.48873" lon="5.35482">
        <ele>229.6</ele>
        <time>2022-06-21T06:36:35Z</time>
      </trkpt>
      <trkpt lat="46.48866" lon="5.35499">
        <ele>229.8</ele>
        <time>2022-06-21T06:36:36Z</time>
      </trkpt>
      <trkpt lat="46.48848" lon="5.3554">
        <ele>230.4</ele>
        <time>2022-06-21T06:36:41Z</time>
      </trkpt>
      <trkpt lat="46.48833" lon="5.35573">
        <ele>230.6</ele>
        <time>2022-06-21T06:36:45Z</time>
      </trkpt>
      <trkpt lat="46.48826" lon="5.3559">
        <ele>230.8</ele>
        <time>2022-06-21T06:36:47Z</time>
      </trkpt>
      <trkpt lat="46.48795" lon="5.3566">
        <ele>230.6</ele>
        <time>2022-06-21T06:36:55Z</time>
      </trkpt>
      <trkpt lat="46.48769" lon="5.35723">
        <ele>230.6</ele>
        <time>2022-06-21T06:37:02Z</time>
      </trkpt>
      <trkpt lat="46.48738" lon="5.3579">
        <ele>230.4</ele>
        <time>2022-06-21T06:37:10Z</time>
      </trkpt>
      <trkpt lat="46.48734" lon="5.35798">
        <ele>230.6</ele>
        <time>2022-06-21T06:37:11Z</time>
      </trkpt>
      <trkpt lat="46.48703" lon="5.35868">
        <ele>231</ele>
        <time>2022-06-21T06:37:20Z</time>
      </trkpt>
      <trkpt lat="46.4869" lon="5.35907">
        <ele>231.2</ele>
        <time>2022-06-21T06:37:25Z</time>
      </trkpt>
      <trkpt lat="46.48688" lon="5.35915">
        <ele>231.4</ele>
        <time>2022-06-21T06:37:26Z</time>
      </trkpt>
      <trkpt lat="46.48682" lon="5.35958">
        <ele>232.6</ele>
        <time>2022-06-21T06:37:31Z</time>
      </trkpt>
      <trkpt lat="46.48676" lon="5.35994">
        <ele>233.4</ele>
        <time>2022-06-21T06:37:35Z</time>
      </trkpt>
      <trkpt lat="46.48675" lon="5.36003">
        <ele>233.6</ele>
        <time>2022-06-21T06:37:36Z</time>
      </trkpt>
      <trkpt lat="46.48673" lon="5.36012">
        <ele>233.6</ele>
        <time>2022-06-21T06:37:37Z</time>
      </trkpt>
      <trkpt lat="46.48663" lon="5.36064">
        <ele>233.8</ele>
        <time>2022-06-21T06:37:42Z</time>
      </trkpt>
      <trkpt lat="46.48644" lon="5.36141">
        <ele>232.6</ele>
        <time>2022-06-21T06:37:49Z</time>
      </trkpt>
      <trkpt lat="46.48642" lon="5.36151">
        <ele>232.2</ele>
        <time>2022-06-21T06:37:50Z</time>
      </trkpt>
      <trkpt lat="46.48638" lon="5.36205">
        <ele>231.8</ele>
        <time>2022-06-21T06:37:55Z</time>
      </trkpt>
      <trkpt lat="46.48629" lon="5.36281">
        <ele>232.8</ele>
        <time>2022-06-21T06:38:03Z</time>
      </trkpt>
      <trkpt lat="46.48625" lon="5.36297">
        <ele>233</ele>
        <time>2022-06-21T06:38:05Z</time>
      </trkpt>
      <trkpt lat="46.48618" lon="5.36311">
        <ele>233.2</ele>
        <time>2022-06-21T06:38:07Z</time>
      </trkpt>
      <trkpt lat="46.48614" lon="5.36316">
        <ele>233.6</ele>
        <time>2022-06-21T06:38:08Z</time>
      </trkpt>
      <trkpt lat="46.48609" lon="5.3632">
        <ele>233.8</ele>
        <time>2022-06-21T06:38:09Z</time>
      </trkpt>
      <trkpt lat="46.48604" lon="5.36322">
        <ele>234</ele>
        <time>2022-06-21T06:38:10Z</time>
      </trkpt>
      <trkpt lat="46.48598" lon="5.36324">
        <ele>234.4</ele>
        <time>2022-06-21T06:38:11Z</time>
      </trkpt>
      <trkpt lat="46.48588" lon="5.36325">
        <ele>234.8</ele>
        <time>2022-06-21T06:38:13Z</time>
      </trkpt>
      <trkpt lat="46.48582" lon="5.36326">
        <ele>235.2</ele>
        <time>2022-06-21T06:38:15Z</time>
      </trkpt>
      <trkpt lat="46.48561" lon="5.36328">
        <ele>236</ele>
        <time>2022-06-21T06:38:18Z</time>
      </trkpt>
      <trkpt lat="46.48541" lon="5.36332">
        <ele>237</ele>
        <time>2022-06-21T06:38:22Z</time>
      </trkpt>
      <trkpt lat="46.4853" lon="5.36334">
        <ele>237.2</ele>
        <time>2022-06-21T06:38:24Z</time>
      </trkpt>
      <trkpt lat="46.48514" lon="5.36336">
        <ele>238</ele>
        <time>2022-06-21T06:38:27Z</time>
      </trkpt>
      <trkpt lat="46.48479" lon="5.36342">
        <ele>238.8</ele>
        <time>2022-06-21T06:38:34Z</time>
      </trkpt>
      <trkpt lat="46.48461" lon="5.36345">
        <ele>239</ele>
        <time>2022-06-21T06:38:36Z</time>
      </trkpt>
      <trkpt lat="46.48432" lon="5.3635">
        <ele>239.4</ele>
        <time>2022-06-21T06:38:41Z</time>
      </trkpt>
      <trkpt lat="46.48408" lon="5.36361">
        <ele>239.6</ele>
        <time>2022-06-21T06:38:45Z</time>
      </trkpt>
      <trkpt lat="46.48402" lon="5.36365">
        <ele>239.8</ele>
        <time>2022-06-21T06:38:46Z</time>
      </trkpt>
      <trkpt lat="46.48382" lon="5.36385">
        <ele>240</ele>
        <time>2022-06-21T06:38:50Z</time>
      </trkpt>
      <trkpt lat="46.48363" lon="5.36407">
        <ele>240.2</ele>
        <time>2022-06-21T06:38:54Z</time>
      </trkpt>
      <trkpt lat="46.48329" lon="5.36443">
        <ele>241</ele>
        <time>2022-06-21T06:39:01Z</time>
      </trkpt>
      <trkpt lat="46.48311" lon="5.36463">
        <ele>241.8</ele>
        <time>2022-06-21T06:39:05Z</time>
      </trkpt>
      <trkpt lat="46.48307" lon="5.36468">
        <ele>242.2</ele>
        <time>2022-06-21T06:39:06Z</time>
      </trkpt>
      <trkpt lat="46.4828" lon="5.36497">
        <ele>243.2</ele>
        <time>2022-06-21T06:39:12Z</time>
      </trkpt>
      <trkpt lat="46.48263" lon="5.36517">
        <ele>243.8</ele>
        <time>2022-06-21T06:39:16Z</time>
      </trkpt>
      <trkpt lat="46.48245" lon="5.36537">
        <ele>244.6</ele>
        <time>2022-06-21T06:39:20Z</time>
      </trkpt>
      <trkpt lat="46.48223" lon="5.36558">
        <ele>245.8</ele>
        <time>2022-06-21T06:39:25Z</time>
      </trkpt>
      <trkpt lat="46.48206" lon="5.36558">
        <ele>246</ele>
        <time>2022-06-21T06:39:28Z</time>
      </trkpt>
      <trkpt lat="46.48201" lon="5.3656">
        <ele>246.2</ele>
        <time>2022-06-21T06:39:29Z</time>
      </trkpt>
      <trkpt lat="46.48192" lon="5.36568">
        <ele>246.4</ele>
        <time>2022-06-21T06:39:31Z</time>
      </trkpt>
      <trkpt lat="46.48189" lon="5.36575">
        <ele>246.4</ele>
        <time>2022-06-21T06:39:32Z</time>
      </trkpt>
      <trkpt lat="46.48187" lon="5.36582">
        <ele>246.6</ele>
        <time>2022-06-21T06:39:33Z</time>
      </trkpt>
      <trkpt lat="46.48185" lon="5.3659">
        <ele>246.8</ele>
        <time>2022-06-21T06:39:34Z</time>
      </trkpt>
      <trkpt lat="46.48182" lon="5.36597">
        <ele>246.8</ele>
        <time>2022-06-21T06:39:35Z</time>
      </trkpt>
      <trkpt lat="46.48179" lon="5.36603">
        <ele>247</ele>
        <time>2022-06-21T06:39:36Z</time>
      </trkpt>
      <trkpt lat="46.48175" lon="5.36609">
        <ele>247.4</ele>
        <time>2022-06-21T06:39:37Z</time>
      </trkpt>
      <trkpt lat="46.48157" lon="5.36629">
        <ele>247.8</ele>
        <time>2022-06-21T06:39:41Z</time>
      </trkpt>
      <trkpt lat="46.48153" lon="5.36633">
        <ele>247.8</ele>
        <time>2022-06-21T06:39:42Z</time>
      </trkpt>
      <trkpt lat="46.48143" lon="5.36641">
        <ele>247.8</ele>
        <time>2022-06-21T06:39:44Z</time>
      </trkpt>
      <trkpt lat="46.48127" lon="5.36659">
        <ele>248</ele>
        <time>2022-06-21T06:39:48Z</time>
      </trkpt>
      <trkpt lat="46.48123" lon="5.36665">
        <ele>248</ele>
        <time>2022-06-21T06:39:49Z</time>
      </trkpt>
      <trkpt lat="46.48108" lon="5.36682">
        <ele>248.4</ele>
        <time>2022-06-21T06:39:53Z</time>
      </trkpt>
      <trkpt lat="46.48101" lon="5.36694">
        <ele>248.6</ele>
        <time>2022-06-21T06:39:56Z</time>
      </trkpt>
      <trkpt lat="46.48101" lon="5.36699">
        <ele>248.8</ele>
        <time>2022-06-21T06:39:57Z</time>
      </trkpt>
      <trkpt lat="46.48104" lon="5.36703">
        <ele>248.8</ele>
        <time>2022-06-21T06:39:58Z</time>
      </trkpt>
      <trkpt lat="46.48108" lon="5.36707">
        <ele>248.8</ele>
        <time>2022-06-21T06:39:59Z</time>
      </trkpt>
      <trkpt lat="46.48112" lon="5.36709">
        <ele>249</ele>
        <time>2022-06-21T06:40:00Z</time>
      </trkpt>
      <trkpt lat="46.48133" lon="5.36727">
        <ele>249.8</ele>
        <time>2022-06-21T06:40:05Z</time>
      </trkpt>
      <trkpt lat="46.48136" lon="5.36731">
        <ele>250</ele>
        <time>2022-06-21T06:40:06Z</time>
      </trkpt>
      <trkpt lat="46.48156" lon="5.36747">
        <ele>251.2</ele>
        <time>2022-06-21T06:40:11Z</time>
      </trkpt>
      <trkpt lat="46.48168" lon="5.36757">
        <ele>251.8</ele>
        <time>2022-06-21T06:40:14Z</time>
      </trkpt>
      <trkpt lat="46.48176" lon="5.36763">
        <ele>252.4</ele>
        <time>2022-06-21T06:40:16Z</time>
      </trkpt>
      <trkpt lat="46.48191" lon="5.36775">
        <ele>253.2</ele>
        <time>2022-06-21T06:40:20Z</time>
      </trkpt>
      <trkpt lat="46.48199" lon="5.36781">
        <ele>253.6</ele>
        <time>2022-06-21T06:40:22Z</time>
      </trkpt>
      <trkpt lat="46.4821" lon="5.36788">
        <ele>254.4</ele>
        <time>2022-06-21T06:40:25Z</time>
      </trkpt>
      <trkpt lat="46.48214" lon="5.36791">
        <ele>254.4</ele>
        <time>2022-06-21T06:40:26Z</time>
      </trkpt>
      <trkpt lat="46.48217" lon="5.36795">
        <ele>255</ele>
        <time>2022-06-21T06:40:27Z</time>
      </trkpt>
      <trkpt lat="46.4822" lon="5.36798">
        <ele>255.2</ele>
        <time>2022-06-21T06:40:28Z</time>
      </trkpt>
      <trkpt lat="46.4823" lon="5.36807">
        <ele>256.2</ele>
        <time>2022-06-21T06:40:31Z</time>
      </trkpt>
      <trkpt lat="46.48243" lon="5.36818">
        <ele>257.2</ele>
        <time>2022-06-21T06:40:35Z</time>
      </trkpt>
      <trkpt lat="46.48252" lon="5.36826">
        <ele>258</ele>
        <time>2022-06-21T06:40:38Z</time>
      </trkpt>
      <trkpt lat="46.48256" lon="5.36829">
        <ele>258.4</ele>
        <time>2022-06-21T06:40:39Z</time>
      </trkpt>
    </trkseg>
  </trk>
</gpx>